GFSSW_con_sbcape_000.txt.gz
CAPE
4 3 3 2 1 1 1 0 0 0 0 0 0 3 3 2 0 0 0 0 0 920 1423 15 70 214 201 104 130 202 143 68 69 111 118 155 185 408 389 629 550 546 379 494 448
5 4 3 2 2 2 1 1 0 0 0 0 1 1 4 1 0 0 0 0 281 1477 0 0 0 71 8 0 4 81 181 86 29 71 205 208 209 589 655 609 529 734 495 413 442
6 5 4 2 2 1 1 1 1 1 1 1 1 1 3 0 0 0 0 0 366 811 0 0 0 0 0 0 0 0 110 69 38 31 194 238 281 523 314 504 402 747 718 520 519
4 3 4 4 2 1 1 1 1 2 3 2 2 2 1 0 0 0 0 0 448 0 0 0 0 0 0 0 0 0 0 1 29 48 206 294 359 407 295 197 293 518 764 686 702
3 3 3 3 3 2 1 3 3 2 2 2 3 2 0 0 0 0 0 0 0 0 0 0 0 0 0 0 0 0 0 0 0 11 83 344 402 369 413 351 395 673 903 739 776
7 7 6 4 3 1 2 5 5 3 2 2 2 0 0 0 0 0 0 0 0 0 0 0 0 0 0 0 0 0 0 0 0 0 124 445 543 529 450 281 794 886 1037 857 835
10 8 7 5 2 0 1 3 4 2 3 3 1 0 0 0 0 0 0 0 0 0 0 0 0 0 0 0 0 0 0 4 1 70 302 391 663 611 544 619 1110 1090 1079 989 939
6 3 2 2 2 4 4 6 3 4 0 3 1 0 0 0 0 0 0 0 0 0 0 0 0 0 0 0 0 0 0 18 81 196 365 444 240 545 702 870 1234 1167 1165 1016 1001
7 3 3 5 6 7 4 3 2 1 1 1 0 0 0 0 0 0 0 0 0 0 0 0 0 0 0 0 0 0 1 9 218 249 512 515 202 559 765 905 1053 1141 958 983 1082
15 10 6 5 5 3 3 0 0 0 0 0 0 0 0 0 0 0 0 0 0 0 0 0 0 0 0 0 0 2 1 27 37 281 427 471 251 630 802 799 750 1176 979 908 938
9 7 5 4 4 1 0 0 0 0 0 0 0 0 0 0 0 0 0 0 0 0 0 0 0 0 0 0 0 3 28 43 38 229 364 281 240 337 878 812 767 1005 1146 976 819
7 8 5 1 1 0 0 0 0 0 0 0 0 0 0 0 0 0 0 0 0 0 0 0 0 0 0 0 0 0 4 39 87 159 228 177 239 269 416 901 715 722 1066 1287 1029
4 7 4 3 0 0 0 0 0 0 0 0 0 0 0 0 0 0 0 0 0 0 0 0 0 0 0 0 0 0 0 24 94 158 209 150 246 192 152 598 698 621 653 1103 1197
4 4 3 2 0 0 0 0 0 0 0 0 0 0 0 0 0 0 0 0 0 0 0 0 0 0 0 0 0 0 0 7 56 108 139 181 151 67 128 476 643 817 698 612 1136
3 0 1 0 0 0 0 0 0 0 0 0 0 0 0 0 0 0 0 0 0 0 0 0 0 0 0 0 0 0 0 0 9 88 123 154 160 53 74 114 449 813 839 584 463
3 0 2 0 0 0 0 0 0 0 0 0 0 0 0 0 0 0 0 0 0 0 0 0 0 0 0 0 0 0 0 0 13 40 92 101 76 6 15 80 69 273 681 752 388
0 0 0 0 0 0 0 0 0 0 0 0 0 0 0 0 0 0 0 0 0 0 0 0 0 0 0 0 0 0 0 6 28 38 45 65 64 1 1 2 13 8 165 748 540
0 0 0 0 0 0 0 0 0 0 0 0 0 0 0 0 0 0 0 0 0 0 0 0 0 0 0 0 0 0 0 6 42 24 25 11 7 0 7 12 0 0 44 469 703
0 0 0 0 0 0 0 0 0 0 0 0 0 0 0 0 0 0 0 0 0 0 0 0 0 0 0 0 0 0 0 0 26 39 23 1 1 0 0 15 0 32 91 204 637
0 0 0 0 0 0 0 0 0 0 0 0 0 0 0 0 0 0 0 0 0 0 0 0 0 0 0 0 0 0 0 0 2 67 36 4 12 0 7 0 0 25 115 236 573
0 0 0 0 0 0 0 0 0 0 0 0 0 0 0 0 0 0 0 0 0 0 0 0 0 0 0 0 0 0 0 0 1 4 12 22 1 0 0 0 0 3 124 159 448
0 0 0 0 0 0 0 0 0 0 0 0 0 0 0 0 0 0 0 0 0 0 0 0 0 0 0 0 0 0 0 0 2 1 10 9 0 0 0 0 0 0 8 10 260
0 0 0 0 0 0 0 0 0 0 0 0 0 0 0 0 0 0 0 0 0 0 0 0 0 4 0 0 0 0 0 0 0 2 96 14 0 0 0 0 0 49 84 99 442
6 0 0 0 0 0 0 0 0 0 0 0 0 0 0 0 0 0 0 0 0 0 119 0 0 0 0 0 0 0 0 0 0 3 1 5 26 6 0 0 0 0 96 210 691
23 0 0 0 73 63 50 26 1 0 0 0 0 0 0 0 0 0 0 0 0 0 0 91 97 33 0 0 0 0 0 0 0 0 3 0 8 11 1 0 0 0 4 238 865
42 55 37 0 0 0 0 0 15 1 3 0 0 0 0 0 0 0 0 0 0 0 0 0 130 57 35 8 7 4 0 0 0 0 0 0 0 0 0 0 0 0 0 289 1017
28 27 27 1 0 0 0 1 3 46 2 0 0 0 0 0 0 0 0 0 0 0 0 14 161 387 216 111 66 63 11 3 0 0 0 0 0 0 0 0 0 1 123 332 960

GFSSW_con_sbcape_003.txt.gz
CAPE
2 2 2 1 1 0 0 0 0 0 0 1 1 2 2 1 0 0 0 0 0 920 1698 34 80 0 30 9 2 0 60 137 61 74 4 0 5 1 159 190 225 395 723 899 1052
4 2 2 1 1 0 0 0 0 1 1 1 2 2 2 0 0 0 0 108 490 596 0 0 0 0 0 0 3 8 92 59 33 79 50 10 11 12 62 135 267 359 760 927 1069
5 4 3 2 1 1 1 0 0 0 1 1 1 2 2 0 0 0 0 0 929 376 0 0 0 0 0 0 0 9 161 76 48 46 61 19 29 16 77 94 252 424 633 796 1046
8 6 5 3 2 1 1 1 1 1 0 0 0 1 0 0 0 0 0 0 628 0 0 0 0 0 0 0 0 0 43 33 94 6 139 44 45 29 7 74 122 410 428 647 961
6 4 2 2 1 1 1 2 1 1 0 0 1 1 0 0 0 0 0 4 0 0 0 0 0 0 0 0 0 0 19 25 8 9 56 142 53 17 9 3 107 467 407 547 818
4 4 4 2 0 0 1 4 2 1 1 1 1 0 0 0 0 0 0 0 0 0 0 0 0 0 0 0 0 3 10 5 4 18 14 151 53 49 11 14 221 599 540 554 662
5 3 3 2 0 0 0 3 2 1 1 2 1 0 0 0 0 0 0 0 0 0 0 0 0 0 0 0 0 0 0 2 0 4 5 19 40 0 12 169 281 601 696 560 616
3 3 3 1 0 0 3 4 0 3 1 0 1 0 0 0 0 0 0 0 0 0 0 0 0 0 0 0 0 0 0 24 63 3 7 8 118 143 145 114 237 500 793 672 625
4 4 2 1 2 2 3 1 0 2 1 0 0 0 0 0 0 0 0 0 0 0 0 0 0 0 0 0 0 0 0 7 18 10 82 37 127 271 365 110 219 393 682 779 727
8 5 7 4 1 0 0 0 0 0 0 0 0 0 0 0 0 0 0 0 0 0 0 0 0 0 0 0 0 9 10 77 178 13 165 56 162 429 409 370 24 180 327 676 677
6 6 5 1 0 0 0 0 0 0 0 0 0 0 0 0 0 0 0 0 0 0 0 0 0 0 0 0 0 14 61 44 46 27 81 174 145 266 455 413 257 90 131 400 572
5 4 2 0 0 0 0 0 0 0 0 0 0 0 0 0 0 0 0 0 0 0 0 0 0 0 0 0 0 0 24 66 46 42 29 114 203 222 773 536 380 231 123 153 337
4 6 1 0 0 0 0 0 0 0 0 0 0 0 0 0 0 0 0 0 0 0 0 0 0 0 0 0 0 0 8 43 71 145 77 134 129 155 214 668 588 305 263 198 200
5 4 1 0 0 0 0 0 0 0 0 0 0 0 0 0 0 0 0 0 0 0 0 0 0 0 0 0 0 0 0 16 66 49 112 41 171 162 120 206 640 609 432 305 255
13 0 0 0 0 0 0 0 0 0 0 0 0 0 0 0 0 0 0 0 0 0 0 0 0 0 0 0 0 0 0 15 46 140 135 72 117 99 59 133 259 619 618 433 268
2 0 0 0 0 0 0 0 0 0 0 0 0 0 0 0 0 0 0 0 0 0 0 0 0 0 0 0 0 0 0 18 40 83 112 156 117 214 52 116 170 284 633 712 550
0 0 0 0 0 0 0 0 0 0 0 0 0 0 0 0 0 0 0 0 0 0 0 0 0 0 0 0 0 0 0 8 44 66 42 89 152 204 221 70 73 75 124 557 823
0 0 0 0 0 0 0 0 0 0 0 0 0 0 0 0 0 0 0 0 0 0 0 0 0 0 0 0 0 0 0 0 17 39 41 50 66 86 95 41 55 69 33 122 644
0 0 0 0 0 0 0 0 0 0 0 0 0 0 0 0 0 0 0 0 0 0 0 0 0 0 0 0 0 0 0 0 24 67 57 53 54 23 32 75 62 28 9 27 285
0 0 0 0 0 0 0 0 0 0 0 0 0 0 0 0 0 0 0 0 0 0 0 0 0 0 0 0 0 0 0 0 7 74 71 75 68 62 53 8 5 31 14 12 51
0 0 0 0 0 0 0 0 0 0 0 0 0 0 0 0 0 0 0 0 0 0 0 0 0 0 0 0 0 0 0 0 1 29 37 70 74 53 59 38 0 3 5 37 58
0 0 0 0 0 0 0 0 0 0 0 0 0 0 0 0 0 0 0 0 0 0 0 0 0 0 0 0 0 0 0 0 25 35 21 72 71 29 8 3 4 14 18 31 77
7 0 0 0 0 0 0 0 0 0 0 0 0 0 0 0 0 0 0 0 0 0 0 0 0 0 0 0 0 0 0 0 0 12 132 44 4 23 11 12 43 17 0 6 82
36 8 7 3 0 0 0 0 0 0 0 0 0 0 0 0 0 0 0 0 0 0 0 0 0 0 0 0 0 0 0 0 0 0 7 11 47 87 65 10 1 0 0 8 58
63 39 52 58 41 4 8 33 13 19 11 3 2 0 0 0 0 0 0 0 0 0 0 0 0 0 0 0 3 0 0 0 0 0 1 4 40 37 83 70 15 3 0 0 1
123 107 102 67 46 1 0 0 0 1 1 0 0 1 0 0 0 0 0 0 0 0 0 0 15 18 0 0 0 2 3 0 0 0 0 0 1 18 17 86 34 0 0 0 0
83 191 139 22 75 95 3 9 19 4 3 0 0 0 13 9 0 0 0 6 0 19 18 38 70 328 161 66 93 72 0 0 1 1 0 0 0 0 15 64 97 16 0 2 64

GFSSW_con_sbcape_006.txt.gz
CAPE
4 4 3 2 2 1 1 1 1 0 0 0 0 1 1 2 1 0 0 0 0 1284 1033 7 0 0 0 0 5 107 15 103 23 7 0 0 0 50 216 167 619 547 494 713 924
5 4 2 1 0 1 1 1 1 0 0 0 0 0 1 0 0 0 0 0 190 689 0 0 0 0 0 0 3 44 71 21 2 14 0 0 0 0 0 14 228 548 604 655 1065
2 3 1 0 0 0 0 0 1 0 0 0 0 1 0 0 0 0 163 362 639 65 0 0 0 0 0 0 4 11 3 16 35 8 1 3 0 0 0 2 108 833 753 659 954
3 2 1 0 0 0 0 0 0 0 0 0 0 0 0 0 0 0 6 91 513 0 0 0 0 0 0 0 0 13 4 18 3 19 42 2 9 1 7 22 93 648 899 771 847
4 4 3 0 0 0 0 0 0 0 0 0 0 1 0 0 0 0 21 5 0 0 0 0 0 0 0 0 0 0 34 16 18 0 16 6 8 11 10 33 55 208 701 847 770
2 5 6 4 3 0 0 0 0 0 0 0 0 1 0 0 0 0 0 0 0 0 0 0 0 0 0 0 0 1 2 3 15 2 4 85 38 0 2 10 6 128 386 703 793
2 4 6 5 2 0 2 0 1 0 0 1 1 0 0 0 0 0 0 0 0 0 0 0 0 0 0 0 0 0 2 2 0 0 13 2 32 13 0 0 40 127 205 434 661
4 4 4 2 1 1 1 0 1 0 0 2 2 0 0 0 0 0 0 0 0 0 0 0 0 0 0 0 0 0 0 3 0 0 0 0 92 0 4 0 0 190 154 274 442
4 5 4 3 1 0 0 0 0 0 2 0 0 0 0 0 0 0 0 0 0 0 0 0 0 0 0 0 0 0 0 0 1 0 4 9 133 76 70 0 0 87 208 168 507
7 6 4 2 0 0 0 0 0 0 0 0 0 0 0 0 0 0 0 0 0 0 0 0 0 0 0 0 0 0 0 3 23 30 8 0 61 39 40 53 13 0 106 336 208
5 4 2 1 0 0 0 0 0 0 0 0 0 0 0 0 0 0 0 0 0 0 0 0 0 0 0 0 0 0 3 0 0 40 1 125 100 0 0 185 4 101 64 194 377
4 4 1 0 0 0 0 0 0 0 0 0 0 0 0 0 0 0 0 0 0 0 0 0 0 0 0 0 0 0 0 9 10 58 19 71 322 40 328 279 199 10 41 52 48
2 2 0 0 0 0 0 0 0 0 0 0 0 0 0 0 0 0 0 0 0 0 0 0 0 0 0 0 0 0 0 0 3 16 14 22 60 260 320 184 121 94 39 19 86
1 0 0 0 0 0 0 0 0 0 0 0 0 0 0 0 0 0 0 0 0 0 0 0 0 0 0 0 0 0 0 0 0 22 23 26 0 339 87 581 196 139 82 63 64
3 1 0 0 0 0 0 0 0 0 0 0 0 0 0 0 0 0 0 0 0 0 0 0 0 0 0 0 0 0 0 0 0 0 56 161 86 86 367 409 643 358 256 188 206
2 0 0 0 0 0 0 0 0 0 0 0 0 0 0 0 0 0 0 0 0 0 0 0 0 0 0 0 0 0 0 0 0 0 16 39 24 63 183 94 54 402 501 415 382
0 0 0 0 0 0 0 0 0 0 0 0 0 0 0 0 0 0 0 0 0 0 0 0 0 0 0 0 0 0 0 0 0 12 5 25 61 192 212 122 69 2 163 657 662
0 0 0 0 0 0 0 0 0 0 0 0 0 0 0 0 0 0 0 0 0 0 0 0 0 0 0 0 0 0 0 0 0 1 3 12 20 81 236 112 79 15 23 490 774
0 0 0 0 0 0 0 0 0 0 0 0 0 0 0 0 0 0 0 0 0 0 0 0 0 0 0 0 0 0 0 0 0 0 7 17 43 12 78 176 11 0 58 112 663
0 0 0 0 0 0 0 0 0 0 0 0 0 0 0 0 0 0 0 0 0 0 0 0 0 0 0 0 0 0 0 0 0 2 18 12 53 122 137 294 130 74 39 51 91
0 0 0 0 0 0 0 0 0 0 0 0 0 0 0 0 0 0 0 0 0 0 0 0 0 0 0 0 0 0 0 0 0 0 7 30 29 124 487 522 390 123 37 24 54
5 0 0 8 6 7 0 0 0 0 0 0 0 0 0 0 0 0 0 0 0 0 0 0 0 0 0 0 0 0 0 0 0 0 0 0 5 19 252 273 59 56 35 43 55
16 1 0 0 4 1 0 0 0 0 0 0 0 0 0 0 0 0 0 0 0 0 0 0 0 0 0 0 0 0 0 0 0 0 8 5 0 0 94 20 209 95 63 223 97
42 5 0 1 0 18 12 1 1 0 0 0 0 0 0 0 0 0 0 0 0 0 21 0 0 0 0 0 0 0 0 0 0 0 0 0 7 38 266 112 178 172 141 137 539
57 28 16 12 2 3 8 38 15 32 0 2 1 0 0 0 0 0 0 0 0 0 1 0 0 0 0 0 0 0 0 0 0 0 0 0 0 130 165 325 149 130 183 246 467
72 82 84 33 1 0 0 0 1 9 5 0 0 0 0 0 0 0 0 0 0 0 0 0 0 0 0 0 0 5 0 0 0 0 0 0 0 0 48 80 458 191 185 240 269
15 50 125 32 43 32 0 0 2 6 1 3 2 0 1 0 0 0 0 0 0 0 29 27 0 23 0 0 1 22 0 2 0 0 0 0 0 0 24 149 386 657 294 268 212

GFSSW_con_sbcape_009.txt.gz
CAPE
5 3 2 1 0 0 0 0 0 0 0 0 0 1 2 3 0 0 0 0 0 377 514 0 0 0 52 167 63 78 148 21 35 45 1 12 192 384 367 542 508 436 358 519 442
3 2 2 1 0 0 0 0 0 0 0 0 0 0 1 2 0 0 0 0 0 600 0 0 0 0 0 0 0 0 30 13 6 11 0 1 250 272 607 600 453 629 613 622 715
1 1 1 0 0 0 0 0 0 0 0 0 0 0 1 0 0 0 0 0 0 124 0 0 0 0 0 0 0 0 0 16 10 2 1 3 0 0 259 516 405 542 725 719 757
1 1 0 0 0 0 0 0 0 0 0 0 0 0 1 0 0 0 0 100 14 0 0 0 0 0 0 0 0 0 0 0 2 30 10 0 0 0 0 409 509 629 890 861 693
2 2 1 0 0 0 0 0 0 0 0 0 0 1 0 0 0 0 0 25 0 0 0 0 0 0 0 0 0 0 1 2 23 37 44 23 0 0 4 649 687 579 624 793 699
4 5 5 5 4 1 1 0 0 0 0 0 0 2 0 0 0 0 0 0 0 0 0 0 0 0 0 0 0 0 0 35 17 0 78 50 0 7 54 722 798 715 480 604 865
3 3 5 5 2 2 2 1 0 0 0 0 3 0 0 0 0 0 0 0 0 0 0 0 0 0 0 0 0 0 0 0 1 0 9 87 0 0 22 159 747 731 658 580 544
3 3 2 4 3 4 1 0 0 0 0 0 0 0 0 0 0 0 0 0 0 0 0 0 0 0 0 0 0 0 0 0 0 0 0 20 0 41 0 85 328 481 660 665 573
6 4 2 1 2 0 0 0 0 0 0 1 0 0 0 0 0 0 0 0 0 0 0 0 0 0 0 0 0 0 0 0 0 0 0 2 0 0 0 41 60 218 266 461 540
2 1 1 0 0 0 0 0 0 0 0 0 0 0 0 0 0 0 0 0 0 0 0 0 0 0 0 0 0 0 0 0 0 0 2 0 0 2 0 0 51 61 20 123 236
10 4 1 0 0 0 0 0 0 0 0 0 0 0 0 0 0 0 0 0 0 0 0 0 0 0 0 0 0 0 0 0 0 9 5 35 9 17 0 0 0 73 0 39 93
9 5 2 0 0 0 0 0 0 0 0 0 0 0 0 0 0 0 0 0 0 0 0 0 0 0 0 0 0 0 0 0 0 3 2 39 47 0 0 0 0 1 33 27 56
4 2 0 0 0 0 0 0 0 0 0 0 0 0 0 0 0 0 0 0 0 0 0 0 0 0 0 0 0 0 0 0 0 0 14 57 49 36 0 0 0 4 2 44 60
2 0 0 0 0 0 0 0 0 0 0 0 0 0 0 0 0 0 0 0 0 0 0 0 0 0 0 0 0 0 0 0 0 0 1 30 20 23 15 305 147 31 0 1 53
3 0 0 0 0 0 0 0 0 0 0 0 0 0 0 0 0 0 0 0 0 0 0 0 0 0 0 0 0 0 0 0 0 0 20 0 0 0 65 39 2 6 0 0 0
2 0 0 0 0 0 0 0 0 0 0 0 0 0 0 0 0 0 0 0 0 0 0 0 0 0 0 0 0 0 0 0 0 0 0 0 0 0 19 7 10 25 0 0 0
0 0 0 0 0 0 0 0 0 0 0 0 0 0 0 0 0 0 0 0 0 0 0 0 0 0 0 0 0 0 0 0 0 0 0 0 0 0 44 27 45 72 21 29 1
0 0 0 0 0 0 0 0 0 0 0 0 0 0 0 0 0 0 0 0 0 0 0 0 0 0 0 0 0 0 0 0 0 0 0 0 0 0 4 52 89 120 188 81 78
0 0 0 0 0 0 0 0 0 0 0 0 0 0 0 0 0 0 0 0 0 0 0 0 0 0 0 0 0 0 0 0 0 0 0 0 0 0 0 15 61 27 29 13 37
0 0 0 0 0 0 0 0 0 0 0 0 0 0 0 0 0 0 0 0 0 0 0 0 0 0 0 0 0 0 0 0 0 0 0 0 0 0 0 23 20 18 32 26 1
0 1 0 0 0 0 0 0 0 0 0 0 0 0 0 0 0 0 0 0 0 0 0 0 0 0 0 0 0 0 0 0 0 0 0 0 0 0 0 33 78 20 15 15 11
0 0 0 0 0 0 0 0 0 0 0 0 0 0 0 0 0 0 0 0 0 0 0 0 0 0 0 0 0 0 0 0 0 0 0 0 0 0 0 132 158 33 38 7 0
3 0 0 0 0 0 0 0 0 0 0 0 0 0 0 0 0 0 0 0 0 0 0 0 0 0 0 0 0 0 0 0 0 0 0 0 0 0 0 0 1 1 24 0 10
27 4 0 0 0 2 0 0 0 0 0 0 0 0 0 0 0 0 0 0 0 0 15 1 0 0 0 0 0 0 0 0 0 0 0 0 0 0 0 18 19 30 16 6 23
95 21 12 2 0 0 10 1 0 0 0 0 0 0 0 0 0 0 0 0 0 0 0 0 0 0 0 0 0 0 0 0 0 0 0 0 0 0 0 101 65 97 92 53 140
45 61 12 0 0 0 0 0 3 0 0 0 0 0 0 1 0 0 0 0 0 0 0 0 0 0 0 0 0 0 0 0 0 0 0 0 0 0 0 0 303 167 23 1 424
84 50 52 7 0 4 0 1 1 8 0 4 0 0 0 0 0 0 0 0 0 0 0 0 0 0 0 0 0 0 0 0 0 0 0 0 0 0 0 0 41 82 149 2 8

GFSSW_con_sbcape_012.txt.gz
CAPE
2 2 1 1 0 0 0 0 0 0 0 0 0 1 2 3 0 0 0 0 0 511 724 173 96 14 535 746 146 56 44 1 0 14 55 274 350 382 482 377 291 367 218 150 161
2 1 1 0 0 0 0 0 0 0 0 0 0 0 1 2 0 0 0 0 0 72 0 0 0 0 0 37 251 194 25 13 50 21 45 197 339 536 432 346 389 363 276 195 335
3 1 0 0 0 0 0 0 0 0 0 0 0 0 1 2 0 0 0 0 0 143 0 0 0 0 0 0 0 1 0 0 26 33 154 362 492 550 397 435 286 417 310 367 354
3 1 0 0 1 1 0 0 0 0 0 0 0 0 0 0 0 0 98 17 0 0 0 0 0 0 0 0 0 0 0 0 18 15 38 209 403 707 526 465 421 464 400 399 421
1 1 1 0 0 0 0 0 0 0 0 0 0 1 0 0 0 0 0 149 0 0 0 0 0 0 0 0 0 0 0 0 7 37 0 0 298 687 531 580 599 555 577 568 439
3 4 4 3 2 2 3 2 2 0 0 0 0 1 0 0 0 0 0 0 0 0 0 0 0 0 0 0 0 0 0 0 0 3 11 0 17 134 518 689 735 630 629 683 567
7 5 3 3 5 3 3 2 2 0 0 0 1 0 0 0 0 0 0 0 0 0 0 0 0 0 0 0 0 0 0 0 0 0 9 2 67 632 668 679 802 766 721 697 620
9 8 5 3 3 3 1 0 0 0 0 0 2 0 0 0 0 0 0 0 0 0 0 0 0 0 0 0 0 0 0 0 0 0 0 7 57 744 697 723 859 900 908 806 618
5 5 4 3 2 0 0 0 0 0 0 0 0 0 0 0 0 0 0 0 0 0 0 0 0 0 0 0 0 0 0 0 0 0 8 1 0 108 713 625 542 566 836 760 712
7 4 3 1 0 0 0 0 0 0 0 0 0 0 0 0 0 0 0 0 0 0 0 0 0 0 0 0 0 0 0 0 0 0 1 0 0 0 733 688 666 587 476 480 683
7 5 2 1 0 0 0 0 0 0 0 0 0 0 0 0 0 0 0 0 0 0 0 0 0 0 0 0 0 0 0 0 0 0 0 0 0 0 198 511 583 600 551 483 454
6 4 3 0 0 0 0 0 0 0 0 0 0 0 0 0 0 0 0 0 0 0 0 0 0 0 0 0 0 0 0 0 0 0 0 1 0 0 8 65 278 321 375 453 409
6 3 1 0 0 0 0 0 0 0 0 0 0 0 0 0 0 0 0 0 0 0 0 0 0 0 0 0 0 0 0 0 0 0 0 6 35 2 0 1 2 46 88 211 190
6 3 1 2 0 0 0 0 0 0 0 0 0 0 0 0 0 0 0 0 0 0 0 0 0 0 0 0 0 0 0 0 0 0 0 7 1 43 0 0 0 0 4 62 71
3 2 0 0 0 0 0 0 0 0 0 0 0 0 0 0 0 0 0 0 0 0 0 0 0 0 0 0 0 0 0 0 0 0 0 0 0 0 11 0 0 0 1 59 24
2 0 0 0 0 0 0 0 0 0 0 0 0 0 0 0 0 0 0 0 0 0 0 0 0 0 0 0 0 0 0 0 0 0 0 0 0 0 0 0 0 1 0 2 28
0 0 0 0 0 0 0 0 0 0 0 0 0 0 0 0 0 0 0 0 0 0 0 0 0 0 0 0 0 0 0 0 0 0 0 0 0 0 0 0 0 26 0 0 2
0 0 0 0 0 0 0 0 0 0 0 0 0 0 0 0 0 0 0 0 0 0 0 0 0 0 0 0 0 0 0 0 0 0 0 0 0 0 0 0 7 13 1 0 0
0 0 0 0 0 0 0 0 0 0 0 0 0 0 0 0 0 0 0 0 0 0 0 0 0 0 0 0 0 0 0 0 0 0 0 0 0 0 0 0 0 2 5 0 0
0 0 0 0 0 0 0 0 0 0 0 0 0 0 0 0 0 0 0 0 0 0 0 0 0 0 0 0 0 0 0 0 0 0 0 0 0 0 0 0 0 0 6 2 0
0 0 0 0 0 0 0 0 0 0 0 0 0 0 0 0 0 0 0 0 0 0 0 0 0 0 0 0 0 0 0 0 0 0 0 0 0 0 0 0 0 6 27 19 10
0 0 0 0 0 0 0 0 0 0 0 0 0 0 0 0 0 0 0 0 0 0 0 0 0 0 0 0 0 0 0 0 0 0 0 0 0 0 0 0 0 0 1 114 100
0 0 0 0 0 0 0 0 0 0 0 0 0 0 0 0 0 0 0 0 0 0 0 0 0 0 0 0 0 0 0 0 0 0 0 0 0 0 0 0 0 0 0 0 0
0 0 0 0 0 0 1 0 0 0 0 0 0 0 0 0 0 0 0 0 0 0 0 0 0 0 0 0 0 0 0 0 0 0 0 0 0 0 0 0 0 0 2 9 19
0 0 0 1 0 0 4 0 0 0 0 0 0 0 0 0 0 0 0 0 0 0 0 0 0 0 0 0 0 0 0 0 0 0 0 0 0 0 0 0 0 0 0 4 60
8 25 0 0 0 0 0 0 2 0 0 0 0 0 0 0 0 0 0 0 0 0 0 0 0 0 0 0 0 0 0 0 0 0 0 0 0 0 0 0 0 0 0 0 0
2 13 13 3 0 0 0 0 0 0 0 1 0 0 0 0 0 0 0 0 0 0 0 0 0 0 0 0 0 0 0 0 0 0 0 0 0 0 0 0 0 0 0 0 0

GFSSW_con_sbcape_015.txt.gz
CAPE
5 3 3 2 1 1 0 0 0 0 0 0 0 0 1 3 1 0 0 0 0 1031 1763 1503 781 811 475 909 72 40 23 7 0 0 32 338 386 349 395 312 213 235 157 137 216
5 4 3 3 1 2 1 1 0 0 0 0 0 0 1 2 0 0 0 0 0 1171 338 860 522 405 533 668 316 96 7 17 0 0 206 386 406 407 411 347 317 271 208 245 237
7 4 4 3 2 1 2 1 0 0 0 0 0 0 1 1 0 0 0 0 0 475 0 5 0 0 0 0 463 218 267 18 0 0 291 417 415 493 466 384 294 244 240 247 359
4 3 3 3 3 3 2 2 1 1 1 0 0 0 0 0 0 0 435 68 1 0 0 0 0 0 0 0 0 0 11 69 0 0 339 482 478 471 393 375 347 211 205 227 391
1 2 1 2 2 2 1 1 1 1 1 1 0 0 0 0 0 0 0 0 0 0 0 0 0 0 0 0 0 0 0 0 0 0 238 476 661 612 471 553 375 288 235 294 380
6 8 6 6 5 4 2 4 2 1 1 1 1 0 0 0 0 0 0 0 0 0 0 0 0 0 0 0 0 0 0 0 0 0 264 517 707 738 558 576 539 389 377 394 361
8 7 6 6 7 6 4 2 4 0 1 3 2 0 0 0 0 0 0 0 0 0 0 0 0 0 0 0 0 0 0 0 0 0 22 321 548 774 682 731 628 516 499 440 386
9 8 7 7 8 4 1 1 1 1 0 0 3 0 0 0 0 0 0 0 0 0 0 0 0 0 0 0 0 0 0 0 0 0 0 16 0 366 658 772 686 664 636 558 464
7 6 5 5 4 2 0 1 0 0 0 2 0 0 0 0 0 0 0 0 0 0 0 0 0 0 0 0 0 0 0 0 0 0 0 0 0 595 674 763 703 725 749 742 590
8 5 4 4 3 0 0 0 0 0 1 0 0 0 0 0 0 0 0 0 0 0 0 0 0 0 0 0 0 0 0 0 0 0 0 0 0 572 638 733 743 689 680 770 636
11 7 4 3 2 0 0 0 0 0 0 0 0 0 0 0 0 0 0 0 0 0 0 0 0 0 0 0 0 0 0 0 0 0 0 0 0 505 611 689 831 763 750 810 702
9 5 3 3 0 0 0 0 0 0 0 0 0 0 0 0 0 0 0 0 0 0 0 0 0 0 0 0 0 0 0 0 0 0 0 0 0 392 501 590 736 800 796 832 769
6 3 2 4 0 0 0 0 0 0 0 0 0 0 0 0 0 0 0 0 0 0 0 0 0 0 0 0 0 0 0 0 0 0 0 0 0 0 472 539 544 531 551 668 563
4 2 1 4 0 0 0 0 0 0 0 0 0 0 0 0 0 0 0 0 0 0 0 0 0 0 0 0 0 0 0 0 0 0 0 0 0 0 12 415 391 430 441 392 332
4 0 0 0 0 0 0 0 0 0 0 0 0 0 0 0 0 0 0 0 0 0 0 0 0 0 0 0 0 0 0 0 0 0 0 0 0 0 0 0 7 99 165 243 263
1 0 0 0 0 0 0 0 0 0 0 0 0 0 0 0 0 0 0 0 0 0 0 0 0 0 0 0 0 0 0 0 0 0 0 0 0 0 0 0 0 0 0 29 104
0 0 0 0 0 0 0 0 0 0 0 0 0 0 0 0 0 0 0 0 0 0 0 0 0 0 0 0 0 0 0 0 0 0 0 0 0 0 0 0 0 0 0 0 1
0 0 0 0 0 0 0 0 0 0 0 0 0 0 0 0 0 0 0 0 0 0 0 0 0 0 0 0 0 0 0 0 0 0 0 0 0 0 0 0 0 0 0 0 0
0 0 0 0 0 0 0 0 0 0 0 0 0 0 0 0 0 0 0 0 0 0 0 0 0 0 0 0 0 0 0 0 0 0 0 0 0 0 0 0 0 0 0 0 0
0 0 0 0 0 0 0 0 0 0 0 0 0 0 0 0 0 0 0 0 0 0 0 0 0 0 0 0 0 0 0 0 0 0 0 0 0 0 0 0 0 0 0 0 0
0 0 0 0 0 0 0 0 0 0 0 0 0 0 0 0 0 0 0 0 0 0 0 0 0 0 0 0 0 0 0 0 0 0 0 0 0 0 0 0 0 0 0 0 0
0 0 0 0 0 0 0 0 0 0 0 0 0 0 0 0 0 0 0 0 0 0 0 0 0 0 0 0 0 0 0 0 0 0 0 0 0 0 0 0 0 0 0 0 0
0 0 0 0 0 0 0 0 0 0 0 0 0 0 0 0 0 0 0 0 0 0 0 0 0 0 0 0 0 0 0 0 0 0 0 0 0 0 0 0 0 0 0 0 0
0 0 0 0 0 0 0 0 0 0 0 0 0 0 0 0 0 0 0 0 0 0 0 0 0 0 0 0 0 0 0 0 0 0 0 0 0 0 0 0 0 0 0 0 0
0 0 0 1 0 0 0 0 2 4 0 0 0 0 0 0 0 0 0 0 0 0 0 0 0 0 0 0 0 0 0 0 0 0 0 0 0 0 0 0 0 0 0 0 0
4 6 8 0 0 0 0 0 2 0 4 0 0 0 0 0 0 0 0 0 0 0 0 0 0 0 0 0 0 0 0 0 0 0 0 0 0 0 0 0 0 0 0 0 0
0 0 17 22 6 1 0 0 0 0 1 6 0 0 0 0 0 0 0 0 0 0 0 0 0 0 0 0 0 0 0 0 0 0 0 0 0 0 0 0 0 0 0 0 0

GFSSW_con_sbcape_018.txt.gz
CAPE
8 6 5 5 5 4 4 4 4 2 1 0 0 0 1 3 1 0 0 0 0 138 1483 1084 834 303 642 544 118 30 49 9 0 116 94 320 312 296 256 93 104 80 77 64 114
5 4 4 4 4 3 3 4 4 2 1 1 0 1 1 4 0 0 0 0 108 1575 1133 715 626 421 483 887 396 134 7 7 0 0 47 342 369 362 346 112 190 151 84 127 106
4 4 3 4 4 4 3 2 1 2 1 1 1 1 1 3 0 0 0 0 1083 1556 632 400 525 306 355 114 534 311 402 5 4 0 24 356 380 425 386 156 221 120 140 149 189
3 2 2 4 4 3 2 2 0 0 1 2 1 1 0 0 0 0 36 0 889 112 158 68 211 43 2 142 224 50 3 180 54 0 246 373 362 448 429 250 179 150 153 205 247
3 4 3 3 3 3 3 3 4 1 2 3 3 2 0 0 0 0 0 0 235 0 0 0 0 0 0 0 0 11 0 0 0 0 13 342 385 422 489 409 271 179 202 215 266
9 10 9 10 8 6 8 10 11 4 2 3 4 2 0 0 0 0 0 0 0 0 0 0 0 0 0 0 0 0 0 0 0 0 9 355 376 464 515 303 244 265 237 258 290
12 12 12 12 8 8 5 5 6 4 3 4 5 1 0 0 0 0 0 0 0 0 0 0 0 0 0 0 0 0 0 0 0 0 8 277 469 504 405 324 285 274 231 233 376
9 9 10 10 9 4 0 2 4 2 0 3 5 0 0 0 0 0 0 0 0 0 0 0 0 0 0 0 0 0 0 0 0 0 30 303 301 560 424 436 353 277 238 291 332
13 11 9 6 4 1 0 0 0 2 1 4 0 0 0 0 0 0 0 0 0 0 0 0 0 0 0 0 0 0 0 0 0 0 0 275 10 334 474 490 463 379 323 398 338
8 6 6 6 2 0 0 0 0 0 0 0 0 0 0 0 0 0 0 0 0 0 0 0 0 0 0 0 0 0 0 0 0 0 0 68 0 117 495 491 547 462 430 449 369
9 6 4 3 1 0 0 0 0 0 0 0 0 0 0 0 0 0 0 0 0 0 0 0 0 0 0 0 0 0 0 0 0 0 0 0 0 343 449 529 556 530 527 494 452
4 4 3 2 0 0 0 0 0 0 0 0 0 0 0 0 0 0 0 0 0 0 0 0 0 0 0 0 0 0 0 0 0 0 0 0 0 252 444 530 535 558 561 562 575
4 2 4 4 0 0 0 0 0 0 0 0 0 0 0 0 0 0 0 0 0 0 0 0 0 0 0 0 0 0 0 0 0 0 0 0 0 0 368 477 539 505 527 518 570
3 2 3 3 0 0 0 0 0 0 0 0 0 0 0 0 0 0 0 0 0 0 0 0 0 0 0 0 0 0 0 0 0 0 0 0 0 0 47 421 455 510 581 549 586
2 2 0 0 0 0 0 0 0 0 0 0 0 0 0 0 0 0 0 0 0 0 0 0 0 0 0 0 0 0 0 0 0 0 0 0 0 0 2 293 314 361 430 589 585
1 0 0 0 0 0 0 0 0 0 0 0 0 0 0 0 0 0 0 0 0 0 0 0 0 0 0 0 0 0 0 0 0 0 0 0 0 0 0 88 343 318 382 378 357
0 0 0 0 0 0 0 0 0 0 0 0 0 0 0 0 0 0 0 0 0 0 0 0 0 0 0 0 0 0 0 0 0 0 0 0 0 0 0 0 3 150 197 265 314
0 0 0 0 0 0 0 0 0 0 0 0 0 0 0 0 0 0 0 0 0 0 0 0 0 0 0 0 0 0 0 0 0 0 0 0 0 0 0 0 0 0 1 19 77
0 0 0 0 0 0 0 0 0 0 0 0 0 0 0 0 0 0 0 0 0 0 0 0 0 0 0 0 0 0 0 0 0 0 0 0 0 0 0 0 0 0 0 0 0
0 0 0 0 0 0 0 0 0 0 0 0 0 0 0 0 0 0 0 0 0 0 0 0 0 0 0 0 0 0 0 0 0 0 0 0 0 0 0 0 0 0 0 0 0
0 0 0 0 0 0 0 0 0 0 0 0 0 0 0 0 0 0 0 0 0 0 0 0 0 0 0 0 0 0 0 0 0 0 0 0 0 0 0 0 0 0 0 0 0
0 0 0 0 0 0 0 0 0 0 0 0 0 0 0 0 0 0 0 0 0 0 0 0 0 0 0 0 0 0 0 0 0 0 0 0 0 0 0 0 0 0 0 0 0
0 0 0 0 0 0 0 0 0 1 0 0 0 0 0 0 0 0 0 0 0 0 0 0 0 0 0 0 0 0 0 0 0 0 0 0 0 0 0 0 0 0 0 0 0
0 1 0 0 0 0 0 0 0 0 3 0 0 0 0 0 0 0 0 0 0 0 0 0 0 0 0 0 0 0 0 0 0 0 0 0 0 0 0 0 0 0 0 0 0
0 0 0 0 0 1 0 0 3 0 0 2 0 0 0 0 0 0 0 0 0 0 0 0 0 0 0 0 0 0 0 0 0 0 0 0 0 0 0 0 0 0 0 0 0
3 13 2 0 5 2 0 0 1 0 2 0 12 4 0 0 0 0 0 0 0 0 0 0 0 0 0 0 0 0 0 0 0 0 0 0 0 0 0 0 0 0 0 0 0
0 0 8 4 19 4 0 0 0 0 0 4 10 0 0 0 0 0 0 0 0 0 0 0 0 0 0 0 0 0 0 0 0 0 0 0 0 0 0 0 0 0 0 0 0

GFSSW_con_sbcape_021.txt.gz
CAPE
5 4 4 3 2 2 2 2 1 0 1 0 1 1 2 4 1 0 0 0 0 497 427 241 166 312 254 428 547 209 484 244 29 181 221 524 540 443 278 129 62 76 74 94 154
4 4 3 3 3 2 3 3 2 1 0 0 1 2 1 4 0 0 0 0 0 1239 301 30 77 240 470 444 627 456 411 190 46 106 0 516 584 563 418 212 185 226 135 133 169
5 4 4 4 4 4 3 3 1 2 1 1 2 3 1 2 0 0 0 0 182 1059 147 77 146 187 276 708 699 759 591 318 59 0 0 186 575 599 535 398 262 320 271 194 204
5 5 5 4 6 5 4 2 2 3 3 3 3 4 1 0 0 0 161 0 622 41 173 74 106 27 32 242 672 585 439 312 17 0 0 232 602 648 630 461 325 316 251 219 257
6 6 5 5 4 3 4 6 8 4 3 4 3 4 0 0 0 0 0 2 597 2 0 0 0 0 0 76 83 543 62 2 0 0 0 25 567 649 694 488 401 487 317 238 217
9 11 11 10 7 5 7 10 9 2 1 3 5 1 0 0 0 0 0 0 42 0 0 0 8 0 0 0 0 0 0 0 0 0 0 3 151 573 646 629 639 600 477 283 212
7 9 11 11 8 7 8 7 1 1 1 3 4 1 0 0 0 0 0 0 0 0 0 0 0 0 0 0 0 0 0 0 0 0 0 0 279 488 643 685 730 674 547 397 305
3 5 6 10 5 4 3 3 0 1 1 3 4 1 0 0 0 0 0 0 0 0 0 0 0 0 0 0 0 0 0 0 0 0 0 0 0 306 690 755 798 661 498 473 463
5 5 7 11 5 0 1 0 0 2 4 4 1 0 0 0 0 0 0 0 0 0 0 0 0 0 0 0 0 0 0 0 0 0 21 95 0 24 686 766 815 708 546 521 578
8 8 7 4 1 0 0 0 0 0 0 1 0 0 0 0 0 0 0 0 0 0 0 0 0 0 0 0 0 0 0 0 0 0 0 26 18 55 707 767 819 720 581 583 610
8 7 8 2 0 0 0 0 0 0 0 0 0 0 0 0 0 0 0 0 0 0 0 0 0 0 0 0 0 0 0 0 0 0 0 0 20 119 666 819 851 780 664 615 626
8 6 6 1 0 0 0 0 0 0 0 0 0 0 0 0 0 0 0 0 0 0 0 0 0 0 0 0 0 0 0 0 0 0 0 0 0 0 356 797 905 895 763 724 756
8 5 1 1 1 0 0 0 0 0 0 0 0 0 0 0 0 0 0 0 0 0 0 0 0 0 0 0 0 0 0 0 0 0 0 0 0 0 138 509 786 924 868 766 834
7 6 0 3 0 0 0 0 0 0 0 0 0 0 0 0 0 0 0 0 0 0 0 0 0 0 0 0 0 0 0 0 0 0 0 0 0 0 0 375 554 774 880 860 876
5 4 0 0 0 0 0 0 0 0 0 0 0 0 0 0 0 0 0 0 0 0 0 0 0 0 0 0 0 0 0 0 0 0 0 0 0 0 0 164 537 697 823 844 925
3 0 1 0 0 0 0 0 0 0 0 0 0 0 0 0 0 0 0 0 0 0 0 0 0 0 0 0 0 0 0 0 0 0 0 0 0 0 0 0 164 557 790 880 864
0 0 0 0 0 0 0 0 0 0 0 0 0 0 0 0 0 0 0 0 0 0 0 0 0 0 0 0 0 0 0 0 0 0 0 0 0 0 0 0 0 258 664 791 950
0 0 0 0 0 0 0 0 0 0 0 0 0 0 0 0 0 0 0 0 0 0 0 0 0 0 0 0 0 0 0 0 0 0 0 0 0 0 0 0 0 9 245 604 795
0 0 0 0 0 0 0 0 0 0 0 0 0 0 0 0 0 0 0 0 0 0 0 0 0 0 0 0 0 0 0 0 0 0 0 0 0 0 0 0 0 0 0 101 443
0 0 0 0 0 0 0 0 0 0 0 0 0 0 0 0 0 0 0 0 0 0 0 0 0 0 0 0 0 0 0 0 0 0 0 0 0 0 0 0 0 0 0 0 0
0 0 0 0 0 0 0 0 0 0 0 0 0 0 0 0 0 0 0 0 0 0 0 0 0 0 0 0 0 0 0 0 0 0 0 0 0 0 0 0 0 0 0 0 0
1 0 0 0 0 0 0 0 0 0 0 0 0 0 0 0 0 0 0 0 0 0 0 0 0 0 0 0 0 0 0 0 0 0 0 0 0 0 0 0 0 0 0 0 22
0 0 0 0 1 4 1 0 0 12 12 1 0 0 0 0 0 0 0 0 0 0 0 0 0 0 0 0 0 0 0 0 0 0 0 0 0 0 0 0 0 0 0 0 0
1 0 0 0 0 3 4 0 1 0 10 14 15 0 0 0 0 0 0 0 0 0 0 0 0 0 0 0 0 0 0 0 0 0 0 0 0 0 0 0 0 0 0 0 0
1 3 2 2 0 2 14 0 7 7 0 5 9 36 9 0 0 0 0 0 0 0 0 0 0 0 0 0 0 0 0 0 0 0 0 0 0 0 0 0 0 0 0 0 0
16 23 27 4 8 17 0 5 12 13 8 3 90 7 9 15 4 3 0 0 0 0 0 0 0 0 0 0 0 0 0 0 0 0 0 0 0 0 0 0 0 0 0 0 0
17 28 18 27 8 38 14 7 12 22 0 17 28 11 0 4 0 0 0 0 0 0 0 0 0 0 0 0 0 0 0 0 0 0 0 0 0 0 0 0 0 0 0 0 0

GFSSW_con_sbcape_024.txt.gz
CAPE
7 6 5 5 5 4 3 3 2 2 1 1 1 2 2 2 0 0 0 0 0 216 481 279 586 478 479 493 743 531 736 294 175 255 287 578 794 692 669 367 216 252 292 404 451
6 6 4 5 4 4 5 4 2 1 2 3 2 2 2 0 0 0 0 0 0 1075 0 16 433 262 350 268 562 647 684 187 73 25 5 181 663 862 597 416 261 375 335 433 450
4 4 3 3 2 4 3 2 2 2 2 3 3 2 1 0 0 0 0 0 20 339 0 0 4 24 11 160 378 423 562 148 49 11 5 74 666 930 546 459 384 595 545 519 465
4 3 3 3 2 2 2 2 2 3 4 4 4 1 0 0 0 0 0 0 265 0 0 0 0 1 0 104 210 340 252 330 72 1 0 0 340 864 675 398 445 672 546 583 553
2 3 3 3 2 1 3 6 6 2 2 3 4 1 0 0 0 0 0 0 0 0 0 0 0 0 0 0 34 284 72 17 17 0 0 0 53 343 737 550 531 719 595 650 592
3 6 7 9 2 2 5 9 5 1 2 5 4 1 0 0 0 0 0 0 0 0 0 0 0 0 0 0 0 21 58 6 0 0 0 0 0 251 507 741 661 750 648 696 641
5 8 10 7 3 6 6 4 0 0 0 5 5 0 0 0 0 0 0 0 0 0 0 0 0 0 0 0 0 0 0 0 0 0 0 0 0 173 420 958 973 884 793 718 675
6 7 5 6 5 3 3 1 0 0 2 2 5 0 0 0 0 0 0 0 0 0 0 0 0 0 0 0 0 0 0 0 0 0 0 0 37 159 551 978 1157 1076 978 824 718
10 9 4 4 2 0 0 0 0 2 1 6 0 0 0 0 0 0 0 0 0 0 0 0 0 0 0 0 0 0 0 0 0 0 0 0 30 50 559 904 1118 1261 1138 988 843
9 7 3 3 2 0 0 0 0 2 0 1 0 0 0 0 0 0 0 0 0 0 0 0 0 0 0 0 0 0 0 0 0 0 0 0 18 19 234 581 875 1298 1222 1055 903
8 3 1 0 1 1 0 0 0 0 0 0 0 0 0 0 0 0 0 0 0 0 0 0 0 0 0 0 0 0 0 0 0 0 0 0 0 0 97 574 634 1179 1289 1180 1083
8 2 0 0 0 0 0 0 0 0 0 0 0 0 0 0 0 0 0 0 0 0 0 0 0 0 0 0 0 0 0 0 0 0 0 0 0 0 26 491 634 1044 1239 1267 1196
5 0 0 0 0 0 0 0 0 0 0 0 0 0 0 0 0 0 0 0 0 0 0 0 0 0 0 0 0 0 0 0 0 0 0 0 0 0 0 15 282 680 1071 1156 1207
4 0 0 1 0 0 0 0 0 0 0 0 0 0 0 0 0 0 0 0 0 0 0 0 0 0 0 0 0 0 0 0 0 0 0 0 1 29 7 11 38 319 774 1049 1196
2 0 0 0 0 0 0 0 0 0 0 0 0 0 0 0 0 0 0 0 0 0 0 0 0 0 0 0 0 0 0 0 0 0 0 0 0 0 0 0 0 75 360 887 1056
0 0 0 0 0 0 0 0 0 0 0 0 0 0 0 0 0 0 0 0 0 0 0 0 0 0 0 0 0 0 0 0 0 0 0 0 0 0 0 0 0 95 404 830 1012
0 0 0 0 0 0 0 0 0 0 0 0 0 0 0 0 0 0 0 0 0 0 0 0 0 0 0 0 0 0 0 0 0 0 0 0 0 0 0 0 0 0 30 759 1025
0 0 0 0 0 0 0 0 0 0 0 0 0 0 0 0 0 0 0 0 0 0 0 0 0 0 0 0 0 0 0 0 0 0 0 0 0 0 0 0 0 0 0 246 961
0 0 0 0 0 0 0 0 0 1 2 0 0 0 0 0 0 0 0 0 0 0 0 0 0 0 0 0 0 0 0 0 0 0 0 0 0 0 0 0 0 0 0 0 670
0 0 0 0 0 0 7 0 5 5 2 0 0 0 0 0 0 0 0 0 0 0 0 0 0 0 0 0 0 0 0 0 0 0 0 0 0 0 0 0 0 0 0 0 167
0 0 0 0 0 14 26 8 0 6 7 0 8 7 3 1 0 0 0 0 0 0 0 0 0 0 0 0 0 0 0 0 0 0 0 0 0 0 0 0 0 0 0 0 33
0 0 0 0 15 9 20 0 0 25 46 39 7 8 16 8 0 0 0 0 0 0 0 0 0 0 0 0 0 0 0 0 0 0 0 0 0 0 0 0 0 0 0 0 0
0 0 0 0 15 27 33 27 16 45 45 52 52 40 13 18 8 5 8 0 0 0 0 0 0 0 0 0 0 0 0 0 0 0 0 0 0 0 0 0 0 0 0 0 0
5 3 6 21 27 43 38 65 52 42 42 23 60 60 27 6 16 16 10 0 0 0 0 0 0 0 0 0 0 0 0 0 0 0 0 0 0 0 0 0 0 0 0 0 0
25 17 17 17 35 35 40 69 38 27 52 56 25 35 33 10 27 10 15 2 0 0 0 0 0 0 0 0 0 0 0 0 0 0 0 0 0 0 0 0 0 0 0 0 0
25 25 30 16 30 44 19 72 35 19 31 50 37 1 7 47 14 14 13 17 10 0 0 0 0 0 0 0 0 0 0 0 0 0 0 0 0 0 0 0 0 0 0 0 0
38 42 58 14 28 63 54 16 22 21 58 51 39 28 15 18 7 14 9 2 1 0 0 0 0 0 0 0 0 0 0 0 0 0 0 0 0 0 0 0 0 0 0 0 0

GFSSW_con_sbcape_027.txt.gz
CAPE
6 4 4 3 4 3 2 2 1 1 1 2 2 3 1 1 0 0 0 0 0 0 0 0 4 238 439 413 372 431 590 476 80 19 199 165 33 183 499 357 411 511 693 585 473
3 3 2 2 1 1 2 1 1 1 2 2 4 2 1 0 0 0 0 0 0 0 0 0 0 124 215 223 255 368 312 246 45 44 73 162 118 103 431 354 391 445 711 577 585
3 2 2 1 0 1 0 1 1 1 3 3 3 2 0 0 0 0 0 0 0 129 0 0 3 55 40 2 49 208 256 136 87 32 39 86 364 245 64 306 424 620 815 689 647
2 2 1 1 0 0 1 1 1 2 2 3 2 1 0 0 0 0 0 0 0 0 0 0 0 11 0 0 0 34 195 159 53 23 24 72 366 457 185 108 246 633 786 734 689
2 2 3 1 1 1 2 5 3 1 1 2 2 1 0 0 0 0 47 0 0 0 0 0 0 0 0 0 1 3 92 142 211 54 29 17 78 414 409 143 225 655 783 778 794
2 5 5 5 6 6 6 6 3 0 0 2 4 1 0 0 0 0 0 0 0 0 0 0 0 0 0 0 1 19 27 109 45 37 24 7 25 171 585 325 397 647 808 796 823
2 4 3 3 4 4 3 2 0 0 0 3 9 0 0 0 0 0 0 0 0 0 0 0 0 0 0 0 0 19 14 47 100 0 5 0 19 146 587 672 629 801 765 800 801
1 1 3 3 1 1 0 0 0 0 0 0 6 0 0 0 0 0 0 0 0 0 0 0 0 0 0 0 0 0 0 30 1 0 0 0 22 36 461 926 774 843 730 831 798
4 2 2 1 0 0 0 0 0 0 0 2 0 0 0 0 0 0 0 0 0 0 0 0 0 0 0 0 0 0 0 0 25 6 14 1 46 64 309 852 1003 935 921 666 843
2 2 2 0 0 0 0 0 0 0 0 0 0 0 0 0 0 0 0 0 0 0 0 0 0 0 0 0 0 0 0 1 10 78 22 40 31 28 415 557 778 1052 1051 945 700
2 2 1 0 0 0 0 0 0 0 0 0 0 0 0 0 0 0 0 0 0 0 0 0 0 0 0 0 0 0 0 0 24 69 40 37 81 85 119 288 397 958 1166 1151 952
2 1 0 0 0 0 0 0 0 0 0 0 0 0 0 0 0 0 0 0 0 0 0 0 0 0 0 0 0 0 0 0 0 9 40 29 29 61 74 154 299 662 1060 1190 1126
1 0 0 0 0 0 0 0 0 0 0 0 0 0 0 0 0 0 0 0 0 0 0 0 0 0 0 0 0 0 0 0 0 3 7 13 29 33 50 94 310 565 990 1041 1163
1 0 0 0 0 0 0 0 0 0 0 0 0 0 0 0 0 0 0 0 0 0 0 0 0 0 0 0 0 0 0 0 0 3 12 0 19 34 31 52 158 338 809 1045 1091
3 0 0 0 0 0 0 0 0 0 0 0 0 0 0 0 0 0 0 0 0 0 0 0 0 0 0 0 0 0 0 0 0 0 1 3 19 67 29 29 41 55 301 925 904
0 0 0 0 0 0 0 0 0 0 0 0 0 0 0 0 0 0 0 0 0 0 0 0 0 0 0 0 0 0 0 0 0 0 0 0 0 10 57 64 71 59 69 322 626
0 0 0 0 0 0 0 0 0 0 0 0 0 0 0 0 0 0 0 0 0 0 0 0 0 0 0 0 0 0 0 0 0 0 0 0 0 0 9 16 37 31 46 102 289
0 0 0 0 0 0 0 0 0 0 0 0 0 0 0 0 0 0 0 0 0 0 0 0 0 0 0 0 0 0 0 0 0 0 0 0 0 0 0 3 15 37 48 167 315
0 0 0 0 0 0 0 16 8 24 0 1 0 0 0 0 0 0 0 0 0 0 0 0 0 0 0 0 0 0 0 0 0 0 0 0 0 0 0 0 0 0 4 44 249
0 0 0 0 0 0 96 80 13 0 1 0 0 3 1 4 0 0 0 0 0 0 0 0 0 0 0 0 0 0 0 0 0 0 0 0 0 0 0 0 0 0 0 0 51
0 0 0 0 1 84 33 20 2 0 1 3 0 1 1 1 0 5 0 0 0 0 0 0 0 0 0 0 0 0 0 0 0 0 0 0 0 0 0 0 0 0 0 0 0
0 0 0 0 37 40 41 44 14 18 67 52 34 8 2 9 0 0 8 0 0 0 0 0 0 0 0 0 0 0 0 0 0 0 0 0 0 0 0 0 0 0 0 0 0
3 0 7 0 32 88 70 70 105 139 75 69 36 9 33 14 3 1 2 0 0 0 0 1 0 0 1 0 0 0 0 0 0 0 0 0 0 0 0 0 0 0 0 0 0
11 17 4 21 41 60 67 118 97 83 65 55 97 45 7 6 6 2 7 1 0 0 0 0 0 0 0 0 0 0 0 0 0 0 0 0 0 0 0 0 0 0 0 0 2
17 16 16 23 38 45 80 69 145 83 72 75 136 42 32 22 43 8 5 17 1 0 0 0 0 0 0 4 0 0 0 0 0 0 0 0 0 0 0 0 0 0 0 0 0
31 16 18 29 20 51 90 104 72 82 83 96 67 49 26 52 29 6 30 7 8 4 0 0 0 0 0 0 0 0 0 0 0 0 0 0 0 0 0 0 0 0 0 0 0
57 44 62 17 26 44 49 57 50 18 82 98 56 34 55 49 44 28 13 7 3 2 4 0 2 22 5 0 1 0 0 0 0 0 0 0 0 0 0 0 0 0 0 0 0

GFSSW_con_sbcape_030.txt.gz
CAPE
3 2 1 0 0 1 1 1 1 1 2 1 2 2 2 4 1 0 0 0 0 0 0 0 0 0 177 588 559 506 348 347 184 95 112 9 515 523 234 528 756 690 345 352 283
1 1 0 0 0 0 0 1 1 1 1 2 2 2 2 2 0 0 0 0 0 0 0 0 0 0 172 250 255 298 84 20 132 29 32 90 3 162 194 306 633 616 375 353 444
1 0 0 0 0 0 0 0 1 1 2 0 1 1 1 0 0 0 0 0 0 0 0 0 0 0 40 70 66 128 126 19 22 112 74 26 14 204 71 215 810 594 430 420 410
0 0 0 0 0 0 0 0 0 0 0 1 1 1 0 0 0 0 0 0 0 0 0 0 0 0 19 1 11 58 83 6 46 151 62 149 21 92 84 69 704 694 449 560 430
0 1 3 2 0 0 0 0 1 0 0 1 2 2 0 0 0 0 0 0 0 0 0 0 0 0 0 0 2 17 219 160 4 99 24 149 70 86 39 101 512 726 546 563 618
1 3 3 4 4 3 1 2 1 0 0 2 2 2 0 0 0 0 0 0 0 0 0 0 0 0 0 0 2 17 38 57 37 225 53 0 115 86 115 76 424 648 642 553 569
3 3 3 2 1 1 0 0 0 0 0 4 3 1 0 0 0 0 0 0 0 0 0 0 0 0 0 0 0 4 17 31 69 125 32 18 24 63 177 117 157 532 648 646 605
3 3 3 1 0 0 0 0 0 0 0 1 8 0 0 0 0 0 0 0 0 0 0 0 0 0 0 0 6 2 4 28 52 82 12 1 8 232 127 223 202 398 540 648 636
3 3 2 0 0 0 0 0 0 0 0 1 0 0 0 0 0 0 0 0 0 0 0 0 0 0 0 0 1 0 1 4 42 30 5 1 0 11 236 193 481 277 437 549 812
3 3 2 0 0 0 0 0 0 0 0 0 0 0 0 0 0 0 0 0 0 0 0 0 0 0 0 0 0 0 0 0 2 57 16 9 19 0 62 205 563 765 427 586 566
0 0 0 0 0 0 0 0 0 0 0 0 0 0 0 0 0 0 0 0 0 0 0 0 0 0 0 0 0 0 1 0 1 10 61 12 62 30 60 18 334 675 802 512 618
0 0 0 0 0 0 0 0 0 0 0 0 0 0 0 0 0 0 0 0 0 0 0 0 0 0 0 0 0 0 0 0 0 6 14 41 10 38 106 40 51 449 413 786 491
1 0 0 0 0 0 0 0 0 0 0 0 0 0 0 0 0 0 0 0 0 0 0 0 0 0 0 0 0 0 0 0 0 0 15 13 22 41 75 99 43 401 374 706 796
0 0 0 0 0 0 0 0 0 0 0 0 0 0 0 0 0 0 0 0 0 0 0 0 0 0 0 0 0 0 0 0 0 7 8 8 24 68 38 34 37 59 318 386 951
0 0 0 0 0 0 0 0 0 0 0 0 0 0 0 0 0 0 0 0 0 0 0 0 0 0 0 0 0 0 0 0 0 0 2 9 19 19 65 42 46 149 408 502 939
0 0 0 0 0 0 0 0 0 0 0 0 0 0 0 0 0 0 0 0 0 0 0 0 0 0 0 0 0 0 0 0 0 0 0 0 6 14 28 81 57 87 111 709 578
0 0 0 0 0 0 0 0 0 0 0 0 0 0 0 0 0 0 0 0 0 0 0 0 0 0 0 0 0 0 0 0 0 0 0 0 0 0 9 82 33 50 62 309 881
0 0 0 0 0 0 0 0 0 0 1 0 0 0 0 0 0 0 0 0 0 0 0 0 0 0 0 0 0 0 0 0 0 0 0 0 0 0 0 4 24 62 52 158 473
0 0 0 0 0 0 0 0 0 5 0 0 0 0 0 0 0 0 0 0 0 0 0 0 0 0 0 0 0 0 0 0 0 0 0 0 0 0 0 0 0 25 128 118 218
0 0 0 0 0 0 10 8 21 0 0 0 3 0 0 0 0 0 0 0 0 0 0 0 0 0 0 0 0 0 0 0 0 0 0 0 0 0 0 0 0 6 17 86 225
0 0 0 0 0 3 30 12 34 2 14 15 4 0 10 9 6 10 0 0 0 4 0 0 0 0 0 0 0 0 0 0 0 0 0 0 0 0 0 0 0 0 0 53 391
0 7 0 0 1 4 21 12 20 61 98 25 14 2 13 17 5 14 17 1 0 0 0 0 0 0 0 0 0 0 0 0 0 0 0 0 13 0 13 0 0 0 0 24 188
0 4 5 0 10 4 12 18 20 103 107 42 25 39 3 8 5 10 18 3 0 0 0 0 0 0 0 4 0 0 0 0 0 0 0 0 0 0 1 21 17 0 109 157 473
6 8 6 0 10 26 32 30 65 110 151 73 55 77 41 16 2 6 12 2 0 0 0 0 0 0 0 0 0 0 0 0 0 0 0 0 0 0 0 0 0 69 114 118 655
15 12 8 3 12 22 28 82 100 141 56 34 90 75 60 24 20 13 6 0 0 17 0 0 0 0 0 0 7 0 0 0 0 0 0 0 0 0 0 2 0 6 215 309 592
38 64 19 10 31 30 41 78 149 93 44 40 120 101 27 19 11 19 16 5 15 0 0 0 0 0 6 0 0 4 0 0 0 0 0 0 2 0 0 26 5 33 22 38 71
33 2 45 4 28 38 75 77 45 111 123 84 74 52 15 30 25 11 1 0 0 0 0 0 0 0 0 0 0 2 2 0 0 0 0 0 11 8 4 22 2 0 0 0 0

GFSSW_con_sbcape_033.txt.gz
CAPE
1 0 0 0 0 0 0 0 0 1 2 1 1 1 4 8 4 0 0 0 0 0 0 0 0 0 22 224 379 545 80 36 149 25 4 3 225 278 663 445 259 246 271 214 130
1 0 0 0 0 0 0 0 0 0 1 1 1 1 2 6 0 0 0 0 0 0 0 0 0 0 0 106 321 252 190 118 240 67 34 8 35 215 466 294 353 375 305 211 212
0 0 0 0 0 0 0 0 0 1 1 1 2 1 1 0 0 0 0 0 0 0 0 0 0 0 0 4 65 282 192 227 67 26 55 59 14 36 440 295 382 316 388 379 342
0 0 0 0 0 0 0 0 0 1 0 1 3 3 1 0 0 0 0 0 0 0 0 0 0 0 0 0 15 45 159 163 26 13 10 30 17 51 175 415 369 261 285 272 227
0 4 6 3 1 0 0 0 1 0 0 1 1 2 0 0 0 0 0 19 0 0 0 0 0 0 0 0 0 12 105 10 17 28 0 21 32 39 397 458 353 262 265 218 190
6 5 4 4 3 1 1 0 0 0 0 1 3 0 0 0 0 0 0 0 0 0 0 0 0 0 0 0 0 0 74 13 58 54 32 6 3 16 536 390 327 361 289 235 247
5 5 4 4 1 0 0 0 0 0 0 0 2 2 0 0 0 0 0 0 0 0 0 0 0 0 0 0 0 0 10 169 44 2 98 59 76 6 654 490 369 438 335 265 269
3 2 0 0 0 0 0 0 0 0 0 0 1 3 0 0 0 0 0 0 0 0 0 0 0 0 0 0 0 0 0 5 16 34 72 96 77 69 351 578 453 409 442 401 336
1 0 0 0 0 0 0 0 0 0 0 0 0 0 0 0 0 0 0 0 0 0 0 0 0 0 0 0 0 0 0 0 0 1 52 19 73 115 137 312 533 510 431 405 403
1 0 0 0 0 0 0 0 0 0 0 0 0 0 0 0 0 0 0 0 0 0 0 0 0 0 0 0 0 0 0 0 0 0 53 26 0 97 129 174 206 167 458 422 364
0 0 0 0 0 0 0 0 0 0 0 0 0 0 0 0 0 0 0 0 0 0 0 0 0 0 0 0 0 0 0 0 0 0 3 16 0 180 194 369 516 313 185 430 410
0 0 0 0 0 0 0 0 0 0 0 0 0 0 0 0 0 0 0 0 0 0 0 0 0 0 0 0 0 0 0 0 0 0 0 2 4 206 162 20 118 64 2 188 415
0 0 0 0 0 0 0 0 0 0 0 0 0 0 0 0 0 0 0 0 0 0 0 0 0 0 0 0 0 0 0 0 0 0 0 5 19 109 182 28 7 29 0 249 334
0 0 0 0 0 0 0 0 0 0 0 0 0 0 0 0 0 0 0 0 0 0 0 0 0 0 0 0 0 0 0 0 0 0 0 0 18 8 68 42 0 11 78 255 237
0 0 0 0 0 0 0 0 0 0 0 0 0 0 0 0 0 0 0 0 0 0 0 0 0 0 0 0 0 0 0 0 0 0 0 0 0 0 28 91 49 52 302 244 306
0 0 0 0 0 0 0 0 0 0 0 0 0 0 0 0 0 0 0 0 0 0 0 0 0 0 0 0 0 0 0 0 0 0 0 0 0 0 1 11 57 97 343 334 52
0 0 0 0 0 0 0 0 0 0 0 0 0 0 0 0 0 0 0 0 0 0 0 0 0 0 0 0 0 0 0 0 0 0 0 0 0 0 0 12 34 134 241 68 0
0 0 0 0 0 0 0 0 0 0 0 0 0 0 0 0 0 0 0 0 0 0 0 0 0 0 0 0 0 0 0 0 0 0 0 0 0 0 0 0 16 87 130 26 52
0 0 0 0 0 0 0 0 0 0 0 0 0 0 0 0 0 0 0 0 0 0 0 0 0 0 0 0 0 0 0 0 0 0 0 0 0 0 0 0 0 0 20 187 449
0 0 0 0 0 0 0 0 0 0 0 0 0 0 0 1 0 0 0 0 0 0 0 0 0 0 0 0 0 0 0 0 0 0 0 0 0 0 0 0 0 0 0 43 685
0 0 0 0 0 0 0 0 0 0 0 0 31 3 0 7 0 0 1 0 0 0 0 0 0 0 0 0 0 0 0 0 0 0 0 0 0 0 0 0 0 0 0 0 138
0 0 0 0 0 0 0 0 0 1 0 16 39 3 0 0 1 1 27 30 1 1 0 0 0 0 0 0 0 0 0 0 0 0 0 0 0 0 0 0 0 0 0 0 25
0 0 0 0 0 0 0 0 1 1 11 7 25 16 5 41 23 12 19 14 6 4 0 0 0 0 0 0 0 0 0 0 0 0 0 0 0 0 0 0 0 0 0 0 41
0 0 0 0 0 0 0 0 3 24 18 22 0 3 29 33 4 3 8 2 0 0 7 5 0 0 0 0 0 0 0 0 0 0 0 0 0 0 0 0 0 0 4 0 344
0 0 0 0 0 0 0 14 13 40 26 27 13 48 2 2 0 28 4 0 0 0 0 0 0 0 0 0 0 0 0 0 0 0 0 0 0 0 1 6 17 24 20 96 179
6 0 3 5 0 0 1 19 32 52 43 20 56 33 11 7 0 0 0 0 0 0 0 0 0 0 0 0 0 0 0 0 0 0 0 0 0 0 2 5 0 0 0 0 174
22 2 7 10 1 0 0 15 16 35 18 59 25 4 28 36 50 13 0 0 0 0 0 0 0 0 0 0 1 0 0 0 0 0 0 0 0 1 13 0 0 0 0 0 0

GFSSW_con_sbcape_036.txt.gz
CAPE
1 0 0 1 1 0 0 0 1 2 2 1 1 2 4 6 6 0 0 0 0 0 53 0 0 0 55 261 556 20 0 0 0 8 1 3 58 370 270 192 206 248 184 0 0
0 0 0 1 0 0 0 0 1 2 2 1 2 3 3 4 0 0 0 0 0 0 0 0 0 0 10 135 366 438 0 0 0 40 35 161 28 18 261 330 292 210 0 0 0
0 0 0 0 0 0 1 1 0 0 0 0 2 3 4 0 0 0 0 0 0 0 0 0 0 0 0 2 191 179 35 24 74 48 31 38 102 360 419 372 277 192 14 3 0
0 0 0 0 0 0 0 1 0 0 0 1 2 1 1 0 0 0 0 0 0 0 0 0 0 0 0 0 0 35 253 215 47 56 22 23 131 536 396 384 291 185 91 117 129
1 4 4 4 1 1 1 0 0 0 0 0 2 1 0 0 0 0 0 0 0 0 0 0 0 0 0 0 0 25 40 107 112 62 17 2 18 3 281 447 272 129 219 230 163
3 2 1 0 1 1 1 0 0 0 0 0 1 0 0 0 0 0 0 0 0 0 0 0 0 0 0 0 0 1 0 7 33 20 4 4 0 39 494 406 322 174 221 252 250
2 1 0 0 0 0 0 0 0 0 0 0 6 0 0 0 0 0 0 0 0 0 0 0 0 0 0 0 0 0 0 0 11 0 1 10 3 557 425 393 357 276 265 227 275
2 1 0 0 0 0 0 0 0 0 0 0 6 0 0 0 0 0 0 0 0 0 0 0 0 0 0 0 0 0 0 0 15 25 19 25 7 561 352 285 254 210 191 159 179
3 1 0 0 0 0 0 0 0 0 0 0 0 0 0 0 0 0 0 0 0 0 0 0 0 0 0 0 0 0 0 0 0 33 46 48 28 585 353 306 273 213 188 178 189
0 0 0 0 0 0 0 0 0 0 0 0 0 0 0 0 0 0 0 0 0 0 0 0 0 0 0 0 0 0 0 0 0 0 28 56 4 487 350 352 365 289 230 215 202
1 0 0 0 0 0 0 0 0 0 0 0 0 0 0 0 0 0 0 0 0 0 0 0 0 0 0 0 0 0 0 0 0 0 0 1 133 484 438 309 439 384 372 261 226
0 0 0 0 0 0 0 0 0 0 0 0 0 0 0 0 0 0 0 0 0 0 0 0 0 0 0 0 0 0 0 0 0 0 0 0 101 353 473 349 430 408 407 401 369
0 0 0 0 0 0 0 0 0 0 0 0 0 0 0 0 0 0 0 0 0 0 0 0 0 0 0 0 0 0 0 0 0 0 0 0 107 127 210 338 377 328 343 314 320
0 0 0 0 0 0 0 0 0 0 0 0 0 0 0 0 0 0 0 0 0 0 0 0 0 0 0 0 0 0 0 0 0 0 0 0 38 106 173 131 64 54 102 163 188
0 0 0 0 0 0 0 0 0 0 0 0 0 0 0 0 0 0 0 0 0 0 0 0 0 0 0 0 0 0 0 0 0 0 0 0 0 83 126 44 0 0 0 73 169
0 0 0 0 0 0 0 0 0 0 0 0 0 0 0 0 0 0 0 0 0 0 0 0 0 0 0 0 0 0 0 0 0 0 0 0 0 0 53 30 2 13 0 19 173
0 0 0 0 0 0 0 0 0 0 0 0 0 0 0 0 0 0 0 0 0 0 0 0 0 0 0 0 0 0 0 0 0 0 0 0 0 0 19 30 27 3 0 57 222
0 0 0 0 0 0 0 0 0 0 0 0 0 0 0 0 0 0 0 0 0 0 0 0 0 0 0 0 0 0 0 0 0 0 0 0 0 0 0 8 25 24 36 180 267
0 0 0 0 0 0 0 0 0 0 0 0 0 0 0 0 0 0 0 0 0 0 0 0 0 0 0 0 0 0 0 0 0 0 0 0 0 0 0 0 0 22 109 321 279
0 0 0 0 0 0 0 0 0 0 0 0 0 0 0 0 0 0 0 0 0 0 0 0 0 0 0 0 0 0 0 0 0 0 0 0 0 0 0 0 0 0 96 405 447
0 0 0 0 0 0 0 0 0 0 0 0 0 2 0 8 0 0 0 0 2 3 0 0 0 0 0 0 0 0 0 0 0 0 0 0 0 0 0 0 0 1 25 315 415
0 0 0 0 0 0 0 0 0 0 0 0 0 1 0 15 17 9 5 19 1 8 6 1 0 0 0 0 0 0 0 0 0 0 0 0 0 0 0 0 0 0 125 130 207
0 0 0 0 0 0 0 0 0 0 0 0 0 0 0 35 35 47 30 9 19 8 20 14 3 0 0 0 0 0 0 0 0 0 0 0 0 0 0 0 0 0 0 21 73
0 0 0 0 0 0 0 0 0 0 0 0 0 0 0 4 43 52 21 17 3 2 24 30 0 0 0 0 0 0 0 0 0 0 0 0 0 0 0 0 0 0 0 0 146
0 0 0 0 0 0 0 0 0 0 0 1 0 14 0 0 0 41 9 1 1 9 6 3 1 0 0 0 0 0 0 0 0 0 0 0 0 0 0 0 0 0 0 0 482
0 0 0 0 0 0 0 0 1 0 6 0 5 2 0 0 3 0 6 2 11 0 0 0 0 0 0 0 0 0 0 0 0 0 0 0 0 0 0 0 0 0 0 0 448
0 0 0 3 1 3 0 0 0 6 0 25 13 1 0 0 1 0 1 0 1 3 0 0 0 0 0 0 0 0 0 0 0 0 0 0 0 0 8 81 26 0 0 4 273

GFSSW_con_sbcape_039.txt.gz
CAPE
1 0 0 1 1 2 2 3 2 0 0 0 1 4 6 5 2 0 0 0 0 0 0 0 0 0 2 129 356 12 0 0 0 0 1 10 86 328 275 153 207 142 0 0 0
0 0 0 0 1 1 1 0 0 0 0 0 1 4 1 3 0 0 0 0 0 0 0 0 0 0 8 118 465 267 0 0 0 0 23 31 199 494 204 283 177 0 0 0 0
0 0 0 0 0 0 0 0 0 0 0 0 0 3 0 1 0 0 0 0 0 0 0 0 0 0 2 20 220 377 0 8 0 34 26 61 181 180 327 348 223 0 0 0 0
0 0 0 0 0 0 0 0 0 0 0 1 1 1 0 0 0 0 0 0 0 0 0 0 0 0 0 0 1 239 252 221 141 53 71 123 152 329 408 429 253 0 0 0 0
0 0 1 1 0 0 0 0 0 0 0 1 0 1 0 0 0 0 0 0 0 0 0 0 0 0 0 0 0 38 164 112 235 233 145 36 238 462 421 393 135 0 0 0 0
1 3 3 1 1 0 0 0 0 0 0 0 0 2 0 0 0 0 0 0 0 0 0 0 0 0 0 0 0 0 7 24 1 10 65 40 251 403 423 304 68 2 0 0 0
3 2 2 1 0 0 0 0 0 0 0 0 1 0 0 0 0 0 0 0 0 0 0 0 0 0 0 0 0 0 0 0 0 0 0 13 0 22 375 189 96 25 0 0 28
2 2 0 0 0 0 0 0 0 0 0 0 6 0 0 0 0 0 0 0 0 0 0 0 0 0 0 0 0 0 0 0 0 0 0 10 0 547 281 130 123 109 22 5 30
3 2 0 0 0 0 0 0 0 0 0 0 0 0 0 0 0 0 0 0 0 0 0 0 0 0 0 0 0 0 0 0 0 0 2 23 77 473 324 172 139 150 117 100 91
1 1 0 0 0 0 0 0 0 0 0 0 0 0 0 0 0 0 0 0 0 0 0 0 0 0 0 0 0 0 0 0 0 0 0 12 49 418 332 251 221 194 161 135 105
1 0 0 0 0 0 0 0 0 0 0 0 0 0 0 0 0 0 0 0 0 0 0 0 0 0 0 0 0 0 0 0 0 0 0 0 8 423 271 221 222 202 165 117 92
1 0 0 0 0 0 0 0 0 0 0 0 0 0 0 0 0 0 0 0 0 0 0 0 0 0 0 0 0 0 0 0 0 0 0 0 2 439 301 221 232 199 171 149 103
0 0 0 0 0 0 0 0 0 0 0 0 0 0 0 0 0 0 0 0 0 0 0 0 0 0 0 0 0 0 0 0 0 0 0 0 43 14 334 281 280 260 182 141 116
0 0 0 0 0 0 0 0 0 0 0 0 0 0 0 0 0 0 0 0 0 0 0 0 0 0 0 0 0 0 0 0 0 0 0 0 33 346 307 246 258 341 249 212 160
0 0 0 0 0 0 0 0 0 0 0 0 0 0 0 0 0 0 0 0 0 0 0 0 0 0 0 0 0 0 0 0 0 0 0 0 0 36 273 262 256 314 346 352 279
0 0 0 0 0 0 0 0 0 0 0 0 0 0 0 0 0 0 0 0 0 0 0 0 0 0 0 0 0 0 0 0 0 0 0 0 0 0 0 221 274 329 326 350 314
0 0 0 0 0 0 0 0 0 0 0 0 0 0 0 0 0 0 0 0 0 0 0 0 0 0 0 0 0 0 0 0 0 0 0 0 0 0 0 4 154 224 212 179 101
0 0 0 0 0 0 0 0 0 0 0 0 0 0 0 0 0 0 0 0 0 0 0 0 0 0 0 0 0 0 0 0 0 0 0 0 0 0 0 3 43 98 99 90 37
0 0 0 0 0 0 0 0 0 0 0 0 0 0 0 0 0 0 0 0 1 6 2 0 0 0 0 0 0 0 0 0 0 0 0 0 0 0 0 0 0 38 39 18 18
0 0 0 0 0 0 0 0 0 0 0 0 0 0 0 0 0 0 0 0 0 2 4 0 1 0 0 0 0 0 0 0 0 0 0 0 0 0 0 0 0 32 27 22 28
0 0 0 0 0 0 0 0 0 0 0 0 0 0 0 0 0 0 0 0 0 0 3 8 0 0 0 0 0 0 0 0 0 0 0 0 0 0 0 0 0 0 0 25 12
0 0 0 0 0 0 0 0 0 0 0 0 0 0 0 0 0 0 4 27 1 16 4 6 19 5 0 0 0 0 0 0 0 0 0 0 0 0 0 0 0 0 0 13 122
0 0 0 0 0 0 0 0 0 0 0 0 0 0 0 0 0 19 25 37 27 0 10 19 18 0 0 0 0 0 0 0 0 0 0 0 0 0 0 0 0 0 0 0 141
0 0 0 0 0 0 0 0 0 0 0 0 0 0 0 0 0 1 28 44 4 0 38 54 13 0 0 0 0 0 0 0 0 0 0 0 0 0 0 0 0 0 0 0 14
0 0 0 0 0 0 0 0 0 0 4 0 0 0 0 0 0 0 28 31 1 54 19 11 3 0 0 0 0 0 0 0 0 0 0 0 0 0 0 0 0 0 0 0 0
0 0 0 0 0 0 0 0 1 0 2 0 0 0 12 0 0 0 0 7 35 15 2 15 6 0 0 0 0 0 0 0 0 0 0 0 0 0 0 10 25 0 0 0 0
0 0 0 6 4 10 3 16 16 19 9 8 3 1 0 0 0 0 0 0 20 21 0 9 2 0 0 0 0 0 0 0 0 0 0 0 0 0 56 162 114 115 0 0 0

GFSSW_con_sbcape_042.txt.gz
CAPE
2 1 1 1 2 1 1 0 0 0 0 0 1 1 2 0 2 0 0 0 0 0 0 171 3 0 0 0 256 2 3 0 0 0 35 36 208 286 239 3 10 0 0 0 3
1 0 1 1 1 0 0 0 0 0 0 0 1 2 4 0 0 0 0 0 0 0 0 15 0 0 7 128 309 240 0 0 0 0 13 49 370 538 261 94 2 0 0 0 1
1 1 0 0 1 0 0 0 0 0 0 1 2 2 2 1 0 0 0 0 0 0 0 0 0 0 0 77 272 341 44 0 9 0 19 51 166 283 347 186 17 0 1 0 0
0 0 0 1 0 0 0 0 0 0 1 1 2 0 0 0 0 0 0 0 0 0 0 0 0 0 0 16 89 281 254 167 181 39 45 75 111 115 221 256 77 0 0 0 0
0 1 2 1 0 0 0 0 0 0 0 0 0 0 0 0 0 0 0 0 0 0 0 0 0 0 0 0 0 189 228 171 289 208 107 49 45 111 325 61 0 0 0 0 0
1 3 3 2 2 1 0 0 0 0 0 0 0 0 0 0 0 0 0 0 0 0 0 0 0 0 0 0 0 0 5 26 5 0 1 52 90 213 299 2 0 0 0 0 0
1 1 1 0 2 1 0 0 0 0 0 0 0 0 0 0 0 0 0 0 0 0 0 0 0 0 0 0 0 0 0 0 0 0 0 0 150 169 195 0 0 0 0 0 0
1 0 1 0 2 0 0 0 0 0 0 0 1 0 0 0 0 0 0 0 0 0 0 0 0 0 0 0 0 0 0 0 0 0 0 5 3 225 146 0 0 0 0 0 0
2 2 0 0 1 0 0 0 0 0 0 1 0 0 0 0 0 0 0 0 0 0 0 0 0 0 0 0 0 0 0 0 0 0 8 20 19 400 197 26 0 0 0 0 0
1 1 0 0 0 0 0 0 0 0 0 0 0 0 0 0 0 0 0 0 0 0 0 0 0 0 0 0 0 0 0 0 0 0 0 15 5 386 193 109 18 0 0 0 0
2 0 0 0 0 0 0 0 0 0 0 0 0 0 0 0 0 0 0 0 0 0 0 0 0 0 0 0 0 0 0 0 0 0 0 0 19 444 277 107 108 41 1 0 0
2 0 0 0 0 0 0 0 0 0 0 0 0 0 0 0 0 0 0 0 0 0 0 0 0 0 0 0 0 0 0 0 0 0 0 0 0 383 326 189 116 102 60 28 20
0 0 0 0 0 0 0 0 0 0 0 0 0 0 0 0 0 0 0 0 0 0 0 0 0 0 0 0 0 0 0 0 0 0 0 0 0 143 284 226 176 94 42 44 46
0 0 0 0 0 0 0 0 0 0 0 0 0 0 0 0 0 0 0 0 0 0 0 0 0 0 0 0 0 0 0 0 0 0 0 0 0 19 239 222 185 116 65 49 69
0 0 0 0 0 0 0 0 0 0 0 0 0 0 0 0 0 0 0 0 0 0 0 0 0 0 0 0 0 0 0 0 0 0 0 0 0 0 119 143 195 186 131 53 76
0 0 0 0 0 0 0 0 0 0 0 0 0 0 0 0 0 0 0 0 0 0 0 0 0 0 0 0 0 0 0 0 0 0 0 0 0 0 30 214 275 243 230 161 86
0 0 0 0 0 0 0 0 0 0 0 0 0 0 0 0 0 0 0 0 0 0 0 0 0 0 0 0 0 0 0 0 0 0 0 0 0 0 0 214 252 246 250 250 162
0 0 0 0 0 0 0 0 0 0 0 0 0 0 0 0 0 0 0 0 0 0 0 0 0 0 0 0 0 0 0 0 0 0 0 0 0 0 0 0 274 282 252 212 205
0 0 0 0 0 0 0 0 0 0 0 0 0 0 0 0 0 0 0 0 0 0 0 0 0 0 0 0 0 0 0 0 0 0 0 0 0 0 0 0 0 125 187 169 187
0 0 0 0 0 0 0 0 0 0 0 0 0 0 0 0 0 0 0 0 0 0 0 0 4 0 0 0 0 0 0 0 0 0 0 0 0 0 0 0 0 0 42 120 127
0 0 0 0 0 0 0 0 0 0 0 0 0 0 0 0 0 0 0 0 0 0 0 0 16 0 0 0 0 0 0 0 0 0 0 0 0 0 0 0 0 0 20 72 84
0 0 0 0 0 0 0 0 0 0 0 0 0 0 0 0 0 0 0 0 0 0 0 1 48 24 0 0 0 0 0 0 0 0 0 0 0 0 0 0 0 0 2 60 82
0 0 0 0 0 0 0 0 0 0 0 0 0 0 0 0 0 0 0 0 0 0 0 0 4 7 0 0 0 0 0 0 0 0 0 0 0 0 0 0 0 0 0 0 59
0 0 0 0 0 0 1 0 0 0 0 0 0 0 0 0 0 0 0 1 0 0 57 64 24 2 0 0 0 0 0 0 0 0 0 0 0 0 0 0 0 0 0 0 4
0 0 0 0 0 1 3 0 0 2 0 0 0 0 0 0 0 0 0 0 18 67 47 0 27 7 1 1 0 0 0 0 0 0 0 0 0 0 0 0 0 0 0 0 0
0 0 0 0 0 0 3 5 3 4 10 11 8 1 1 10 0 0 0 0 2 12 44 24 25 33 0 0 0 0 0 0 0 0 0 0 0 0 0 0 0 0 0 0 0
0 0 0 1 3 3 14 11 11 25 7 8 27 19 29 0 0 0 0 0 0 18 16 19 64 2 0 0 0 0 0 0 0 0 0 0 0 0 0 94 47 13 17 116 0

GFSSW_con_sbcape_045.txt.gz
CAPE
1 1 2 3 2 1 0 0 0 0 1 1 2 4 4 2 0 1 0 0 0 0 0 164 10 3 0 41 251 13 38 119 1 19 145 65 353 374 204 15 13 0 0 0 11
0 0 0 1 2 1 1 1 0 0 0 0 3 3 2 0 0 0 0 0 0 0 6 0 0 0 0 79 388 385 139 55 0 0 57 84 682 626 285 63 6 0 1 7 18
0 0 0 0 0 0 1 1 0 0 0 0 2 2 1 1 0 0 0 0 0 0 0 0 0 0 0 115 286 265 128 19 0 0 25 131 658 582 320 157 64 0 4 6 16
0 0 0 0 0 0 1 1 0 0 0 0 1 0 0 0 0 0 0 0 0 0 0 0 0 0 0 6 158 355 340 224 186 21 22 50 199 319 445 402 201 0 0 3 7
0 0 0 0 0 0 0 0 0 0 0 0 0 0 0 0 0 0 0 0 0 0 0 0 0 0 0 0 0 192 333 289 244 179 157 175 180 136 313 320 64 0 0 0 1
0 1 1 1 1 0 0 0 0 0 0 0 0 0 0 0 0 0 0 0 0 0 0 0 0 0 0 0 0 0 79 192 51 114 80 113 87 105 380 55 0 0 0 0 0
0 1 1 2 0 0 0 0 0 0 0 0 0 0 0 0 0 0 0 0 0 0 0 0 0 0 0 0 0 0 0 0 0 0 3 2 49 224 197 76 18 0 0 0 0
0 0 2 2 0 0 0 0 0 0 0 0 0 0 0 0 0 0 0 0 0 0 0 0 0 0 0 0 0 0 0 0 0 0 0 0 104 234 145 141 35 0 0 0 0
1 1 0 1 0 0 0 0 0 0 0 0 0 0 0 0 0 0 0 0 0 0 0 0 0 0 0 0 0 0 0 0 0 0 38 47 113 369 180 206 62 1 0 0 0
1 0 0 0 0 0 0 0 0 0 0 0 0 0 0 0 0 0 0 0 0 0 0 0 0 0 0 0 0 0 0 0 0 11 21 93 114 628 435 195 64 8 0 0 0
2 1 0 1 0 0 0 0 0 0 0 0 0 0 0 0 0 0 0 0 0 0 0 0 0 0 0 0 0 0 0 0 0 0 26 116 126 522 623 389 116 6 0 0 0
2 1 0 0 0 0 0 0 0 0 0 0 0 0 0 0 0 0 0 0 0 0 0 0 0 0 0 0 0 0 0 0 0 0 2 45 99 137 630 598 423 78 1 0 1
2 0 0 0 0 0 0 0 0 0 0 0 0 0 0 0 0 0 0 0 0 0 0 0 0 0 0 0 0 0 0 0 0 0 0 0 2 0 531 582 531 415 83 2 5
2 0 0 1 0 0 0 0 0 0 0 0 0 0 0 0 0 0 0 0 0 0 0 0 0 0 0 0 0 0 0 0 0 0 0 0 8 14 38 605 582 528 447 230 30
2 0 0 0 0 0 0 0 0 0 0 0 0 0 0 0 0 0 0 0 0 0 0 0 0 0 0 0 0 0 0 0 0 0 0 0 0 6 83 177 493 611 552 462 310
0 0 2 0 0 0 0 0 0 0 0 0 0 0 0 0 0 0 0 0 0 0 0 0 0 0 0 0 0 0 0 0 0 0 0 0 0 0 0 131 421 555 602 591 451
0 0 0 0 0 0 0 0 0 0 0 0 0 0 0 0 0 0 0 0 0 0 0 0 0 0 0 0 0 0 0 0 0 0 0 0 0 0 0 15 148 441 620 624 569
0 0 0 0 0 0 0 0 0 0 0 0 0 0 0 0 0 0 0 0 0 0 0 0 0 0 0 0 0 0 0 0 0 0 0 0 0 0 0 0 25 224 455 594 673
0 0 0 0 0 0 0 0 0 0 0 0 0 0 0 0 0 0 0 0 0 0 0 0 0 0 0 0 0 0 0 0 0 0 0 0 0 0 0 0 0 32 279 587 733
0 0 0 0 0 0 0 0 0 0 0 0 0 0 0 0 0 0 0 0 0 0 0 0 0 0 0 0 0 0 0 0 0 0 0 0 0 0 0 0 0 0 88 406 624
0 0 0 0 0 0 0 0 0 0 0 0 0 0 0 0 0 0 0 0 0 0 0 0 0 0 0 0 0 0 0 2 0 0 0 0 0 0 0 0 0 0 0 107 471
0 0 0 0 0 0 0 0 0 0 0 0 0 0 0 0 0 0 0 0 0 0 0 0 3 0 0 0 0 0 0 0 44 0 0 0 0 0 0 0 0 0 0 1 189
0 0 0 0 0 0 0 0 0 0 0 0 0 0 0 0 0 0 0 0 0 0 1 2 8 0 0 0 0 0 0 0 0 2 5 2 0 0 0 0 0 0 0 12 135
0 0 0 0 0 1 0 0 0 0 2 4 0 0 0 0 0 0 0 20 18 10 25 3 1 0 0 0 0 0 0 0 0 27 6 9 0 0 0 0 0 0 0 0 12
0 0 0 2 2 1 1 0 6 9 5 6 16 1 2 4 0 0 0 0 41 42 53 30 0 5 0 0 0 0 0 0 0 0 25 1 5 0 0 0 0 0 0 0 0
0 1 0 4 0 2 0 9 9 8 10 9 17 15 21 45 1 3 0 3 0 21 65 17 2 10 0 0 0 0 0 0 0 0 0 0 1 0 0 0 0 0 4 24 50
0 0 2 4 2 6 15 16 14 28 9 6 26 5 13 11 10 18 18 17 2 5 73 81 35 23 3 0 7 17 0 0 0 0 0 0 0 0 0 244 160 124 132 141 209

GFSSW_con_sbcape_048.txt.gz
CAPE
0 0 0 1 1 1 1 1 0 0 0 1 2 1 0 2 0 0 0 0 0 0 0 2 17 16 25 169 433 512 411 413 92 196 649 410 388 303 227 72 143 80 46 123 103
0 0 0 0 0 1 1 1 0 0 0 1 1 2 1 0 0 0 0 0 0 0 0 0 1 2 2 37 320 345 241 109 120 92 265 423 416 583 615 358 117 43 36 89 63
0 0 0 0 0 1 1 1 0 0 0 0 1 0 0 0 0 0 0 0 0 0 0 0 0 0 0 11 130 245 181 197 106 67 362 898 973 1032 721 625 336 119 127 32 114
0 0 0 0 0 2 1 0 0 0 0 0 0 0 0 0 0 0 0 0 0 0 0 0 0 0 0 0 15 29 188 244 185 133 328 445 597 661 365 753 576 127 138 132 95
0 0 1 0 0 1 1 0 0 0 0 0 0 0 0 0 0 0 0 0 0 0 0 0 0 0 0 0 0 0 155 441 173 194 184 168 380 209 520 679 455 131 95 79 42
0 2 2 1 3 0 0 0 0 0 0 0 0 0 0 0 0 0 0 0 0 0 0 0 0 0 0 0 0 0 1 317 244 455 296 225 315 142 478 693 466 214 127 76 51
1 1 1 1 2 0 0 0 0 0 0 0 0 0 0 0 0 0 0 0 0 0 0 0 0 0 0 0 0 0 0 0 24 108 268 207 176 209 764 604 517 390 186 110 47
2 1 1 1 0 0 0 0 0 0 0 0 0 0 0 0 0 0 0 0 0 0 0 0 0 0 0 0 0 0 0 0 0 6 108 182 293 459 701 704 636 452 217 109 55
2 1 1 0 0 1 0 0 0 0 0 0 0 0 0 0 0 0 0 0 0 0 0 0 0 0 0 0 0 0 0 0 0 35 255 260 338 793 606 703 704 526 297 126 65
2 1 1 0 0 0 0 0 0 0 0 0 0 0 0 0 0 0 0 0 0 0 0 0 0 0 0 0 0 0 0 0 0 57 346 384 337 815 629 725 758 609 417 206 91
1 1 1 0 0 0 0 0 0 0 0 0 0 0 0 0 0 0 0 0 0 0 0 0 0 0 0 0 0 0 0 0 0 0 195 373 364 518 878 714 688 658 518 291 167
1 1 2 1 0 0 0 0 0 0 0 0 0 0 0 0 0 0 0 0 0 0 0 0 0 0 0 0 0 0 0 0 0 0 32 315 359 310 994 851 697 603 470 288 121
3 1 1 0 0 0 0 0 0 0 0 0 0 0 0 0 0 0 0 0 0 0 0 0 0 0 0 0 0 0 0 0 0 0 0 73 290 293 410 917 843 637 464 302 131
4 1 0 1 0 0 0 0 0 0 0 0 0 0 0 0 0 0 0 0 0 0 0 0 0 0 0 0 0 0 0 0 0 0 0 3 140 202 229 712 831 946 649 382 231
3 1 0 0 0 0 0 0 0 0 0 0 0 0 0 0 0 0 0 0 0 0 0 0 0 0 0 0 0 0 0 0 0 0 0 0 14 121 216 254 797 858 904 584 358
0 0 1 0 0 0 0 0 0 0 0 0 0 0 0 0 0 0 0 0 0 0 0 0 0 0 0 0 0 0 0 0 0 0 0 0 9 36 125 225 290 669 685 806 697
0 0 0 0 0 0 0 0 0 0 0 0 0 0 0 0 0 0 0 0 0 0 0 0 0 0 0 0 0 0 0 0 0 0 0 0 0 1 23 82 189 332 595 733 831
0 0 0 0 0 0 0 0 0 0 0 0 0 0 0 0 0 0 0 0 0 0 0 0 0 0 0 0 0 0 0 0 0 0 0 0 0 0 0 0 7 176 294 621 800
0 0 0 0 0 0 0 0 0 0 0 0 0 0 0 0 0 0 0 0 0 0 0 0 0 0 0 0 0 0 0 0 0 0 0 0 0 0 0 0 0 0 98 212 672
0 0 0 0 0 0 0 0 0 0 0 0 0 0 0 0 0 0 0 0 0 0 0 0 0 0 0 0 0 0 0 12 3 4 0 0 0 0 0 0 0 0 3 111 581
0 0 0 0 0 0 0 0 0 0 0 0 0 0 0 0 0 0 0 0 0 0 0 0 0 0 0 0 0 0 0 4 25 4 0 0 0 0 0 0 0 0 0 26 395
0 0 0 0 0 0 0 0 0 0 0 0 0 0 0 0 0 3 1 0 0 0 0 0 0 0 0 0 0 0 0 7 42 20 2 4 15 0 0 0 0 0 0 24 124
0 0 0 0 1 4 1 0 0 0 5 6 4 2 2 4 4 4 2 0 0 0 0 1 0 0 0 0 0 0 0 0 0 4 25 25 3 0 0 0 0 0 0 7 58
0 0 2 2 7 1 0 2 6 0 9 17 22 25 16 18 11 10 7 4 2 3 0 0 0 0 0 0 0 0 0 0 21 41 2 7 13 37 0 0 0 0 0 0 3
0 2 3 5 6 10 6 5 1 6 10 9 18 28 39 38 47 21 8 1 15 21 35 16 18 0 0 0 0 0 0 0 0 4 4 1 36 3 15 0 0 0 0 0 0
8 20 0 2 0 7 2 9 13 17 16 9 19 16 21 79 70 35 14 32 36 64 36 38 31 19 5 1 0 0 0 0 0 0 0 0 0 0 5 0 0 0 0 0 0
0 0 11 0 5 21 19 18 18 24 9 16 29 31 14 27 11 20 45 66 68 88 97 86 81 68 18 0 1 2 0 0 0 0 0 0 0 13 16 4 0 0 0 37 88

GFSSW_con_sbcape_051.txt.gz
CAPE
0 0 0 0 0 1 1 0 0 1 1 1 1 0 0 0 0 0 0 0 0 0 0 0 0 3 26 15 5 437 330 646 257 313 1012 960 984 390 518 107 168 321 470 331 123
0 0 0 0 0 0 1 1 0 0 0 1 1 0 0 0 0 0 0 0 0 0 0 0 0 2 7 6 73 368 180 126 125 302 554 809 631 504 159 351 431 414 491 186 76
0 0 0 0 0 1 1 1 0 0 0 1 0 0 0 0 0 0 0 0 0 0 0 0 0 0 1 0 22 142 71 103 225 231 611 923 583 540 437 483 393 318 380 141 127
0 0 0 0 0 1 1 0 0 0 0 0 1 0 0 0 0 0 0 0 0 0 0 0 0 0 0 0 3 61 84 22 150 330 623 743 890 847 640 415 359 299 280 170 358
0 0 2 1 1 1 0 0 0 0 0 0 0 0 0 0 0 0 0 0 0 0 0 0 0 0 0 0 3 17 23 348 440 439 350 565 418 347 283 614 373 301 235 254 299
0 1 1 2 3 1 0 0 0 0 0 0 0 0 0 0 0 0 0 0 0 0 0 0 0 0 0 0 0 0 0 248 495 260 263 135 253 293 380 604 502 414 344 281 318
0 1 1 2 0 0 0 0 0 0 0 0 0 0 0 0 0 0 0 0 0 0 0 0 0 0 0 0 0 0 0 1 370 452 281 194 155 429 517 755 599 560 449 308 227
0 1 0 1 0 0 0 0 0 0 0 0 0 0 0 0 0 0 0 0 0 0 0 0 0 0 0 0 0 0 0 14 125 280 215 362 182 286 817 834 798 696 491 376 249
2 1 1 2 1 0 0 0 0 0 0 0 0 0 0 0 0 0 0 0 0 0 0 0 0 0 0 0 0 0 0 0 1 148 186 288 137 4 759 865 876 853 598 441 327
2 1 2 1 0 0 0 0 0 0 0 0 0 0 0 0 0 0 0 0 0 0 0 0 0 0 0 0 0 0 0 0 0 88 138 223 408 312 709 860 949 926 637 512 362
2 1 1 0 0 0 0 0 0 0 0 0 0 0 0 0 0 0 0 0 0 0 0 0 0 0 0 0 0 0 0 0 0 10 135 168 272 194 706 823 942 933 812 552 474
3 1 1 0 0 0 0 0 0 0 0 0 0 0 0 0 0 0 0 0 0 0 0 0 0 0 0 0 0 0 0 0 0 7 184 296 239 398 672 700 951 933 921 599 499
3 1 1 0 0 0 0 0 0 0 0 0 0 0 0 0 0 0 0 0 0 0 0 0 0 0 0 0 0 0 0 0 0 0 0 92 206 359 680 699 893 882 844 756 507
3 1 0 1 0 0 0 0 0 0 0 0 0 0 0 0 0 0 0 0 0 0 0 0 0 0 0 0 0 0 0 0 0 1 9 0 91 262 392 744 852 852 769 779 517
2 0 0 0 0 0 0 0 0 0 0 0 0 0 0 0 0 0 0 0 0 0 0 0 0 0 0 0 0 0 0 0 0 0 0 0 50 99 393 388 757 948 810 663 660
0 0 0 0 0 0 0 0 0 0 0 0 0 0 0 0 0 0 0 0 0 0 0 0 0 0 0 0 0 0 0 0 0 0 0 0 24 68 140 265 528 698 924 776 619
0 0 0 0 0 0 0 0 0 0 0 0 0 0 0 0 0 0 0 0 0 0 0 0 0 0 0 0 0 0 0 0 0 0 0 0 0 6 74 192 182 551 769 895 650
0 0 0 0 0 0 0 0 0 0 0 0 0 0 0 0 0 0 0 0 0 0 0 0 0 0 0 0 0 0 0 0 0 0 0 0 0 0 0 74 9 71 542 720 765
0 0 0 0 0 0 0 0 0 0 0 0 0 0 0 0 0 0 0 0 0 0 0 0 0 0 0 0 0 0 5 0 0 2 0 0 0 0 0 0 9 1 276 314 713
0 0 0 0 0 0 0 0 0 0 0 0 0 0 0 0 0 0 0 0 0 0 0 0 0 0 0 0 0 0 0 8 2 4 3 22 3 0 0 0 0 0 17 270 430
0 1 0 0 0 0 1 8 0 0 0 0 0 0 3 0 1 0 0 0 0 0 0 0 0 0 0 0 0 0 0 0 16 22 5 21 12 5 0 0 0 0 0 57 185
0 3 0 0 10 3 26 0 0 0 0 0 0 0 3 8 15 14 5 10 0 0 0 0 0 0 0 0 0 0 0 0 9 12 16 0 21 10 15 0 0 0 0 0 61
1 0 0 0 9 20 1 1 0 0 7 0 3 13 10 3 4 16 18 5 0 1 0 0 0 0 0 0 0 0 0 0 2 6 48 23 2 2 6 1 0 0 0 0 12
2 14 6 0 0 0 1 4 9 1 3 14 14 11 23 24 31 31 19 0 0 4 0 0 1 0 0 2 0 0 0 0 4 57 27 20 47 30 32 12 20 0 0 0 29
0 0 0 4 0 8 6 12 13 12 15 11 14 15 28 44 52 45 74 50 17 17 16 8 2 0 0 0 0 0 0 0 0 0 10 11 10 22 27 26 55 9 0 0 0
1 2 0 3 2 15 0 1 4 1 0 11 8 13 24 17 19 83 12 166 97 44 42 34 31 21 41 7 0 0 0 0 0 0 0 0 0 0 0 0 0 13 30 0 0
0 0 11 0 11 9 11 12 8 16 11 13 8 13 8 14 16 34 71 54 98 189 159 99 80 99 43 41 14 6 0 0 0 0 0 0 0 0 0 0 0 11 38 16 21

GFSSW_con_sbcape_054.txt.gz
CAPE
0 0 0 0 0 0 1 1 2 1 1 1 1 1 1 0 0 0 0 0 0 0 0 0 0 0 9 79 109 6 155 427 57 254 449 764 789 132 139 273 215 175 367 159 45
0 0 0 0 0 0 1 1 1 0 0 0 0 1 1 0 0 0 0 0 0 0 0 0 0 0 1 5 41 3 237 122 11 17 606 523 628 572 361 257 240 406 350 103 30
0 0 0 0 0 0 1 1 1 0 0 0 0 0 0 0 0 0 0 0 0 0 0 0 0 0 0 9 2 0 86 25 2 108 362 563 535 231 106 222 432 442 243 102 10
0 0 0 0 0 0 1 1 0 0 0 0 0 0 0 0 0 0 0 0 0 0 0 0 0 0 0 2 3 4 30 66 78 194 702 596 465 487 50 270 157 368 173 76 31
0 1 1 0 0 0 0 0 0 0 0 0 1 0 0 0 0 0 0 0 0 0 0 0 0 0 0 0 0 4 15 17 251 274 575 912 417 251 100 257 150 267 118 33 55
1 3 4 5 2 1 0 0 0 0 0 0 0 0 0 0 0 0 0 0 0 0 0 0 0 0 0 0 0 3 15 16 152 365 401 619 152 245 149 204 359 195 113 91 72
1 1 3 4 2 0 0 0 0 0 0 0 0 0 0 0 0 0 0 0 0 0 0 0 0 0 0 0 0 0 0 0 0 415 324 327 133 270 492 229 399 201 199 152 76
2 2 3 3 1 1 1 0 0 0 0 0 0 0 0 0 0 0 0 0 0 0 0 0 0 0 0 0 0 0 0 0 0 318 364 327 54 56 301 89 448 325 276 266 113
3 2 3 4 1 1 0 0 0 0 0 0 0 0 0 0 0 0 0 0 0 0 0 0 0 0 0 0 0 0 0 0 0 45 285 360 345 421 180 173 612 527 280 208 203
4 2 3 3 0 0 0 0 0 0 0 0 0 0 0 0 0 0 0 0 0 0 0 0 0 0 0 0 0 0 0 0 0 0 151 126 175 456 307 12 639 683 421 274 101
5 1 2 2 0 0 0 0 0 0 0 0 0 0 0 0 0 0 0 0 0 0 0 0 0 0 0 0 0 0 0 0 0 0 132 169 87 3 14 1 470 727 537 395 163
6 2 1 1 0 0 0 0 0 0 0 0 0 0 0 0 0 0 0 0 0 0 0 0 0 0 0 0 0 0 0 0 0 0 54 390 131 68 0 143 367 678 469 357 269
5 1 0 0 0 0 0 0 0 0 0 0 0 0 0 0 0 0 0 0 0 0 0 0 0 0 0 0 0 0 0 0 0 0 12 35 46 0 0 5 33 438 382 388 455
4 0 0 3 0 0 0 0 0 0 0 0 0 0 0 0 0 0 0 0 0 0 0 0 0 0 0 0 0 0 0 0 0 0 3 3 26 75 203 127 6 39 482 402 481
0 0 0 0 0 0 0 0 0 0 0 0 0 0 0 0 0 0 0 0 0 0 0 0 0 0 0 0 0 0 0 0 0 0 0 1 5 0 608 144 2 20 839 543 545
0 0 0 0 0 0 0 0 0 0 0 0 0 0 0 0 0 0 0 0 0 0 0 0 0 0 0 0 0 0 0 0 0 0 0 0 0 0 133 190 12 111 313 465 512
0 0 0 0 0 0 0 0 0 0 0 0 0 0 0 0 0 0 0 0 0 0 0 0 0 0 0 0 0 0 0 0 0 0 0 0 0 0 0 520 236 6 0 39 812
0 0 0 0 0 0 0 0 0 0 0 0 0 0 0 0 0 0 0 0 0 0 0 0 0 0 0 0 0 0 0 0 0 0 0 0 0 0 0 28 302 111 58 96 723
0 0 0 0 0 0 0 0 18 1 0 0 0 0 0 0 0 0 0 0 0 0 0 0 0 0 0 0 0 0 1 0 0 0 0 0 0 0 0 0 150 55 159 46 52
0 0 0 0 0 0 0 0 3 0 0 0 0 0 0 3 0 0 0 0 0 0 0 0 0 0 0 0 0 0 0 2 0 0 0 0 0 0 0 0 0 63 9 8 91
0 1 0 0 0 0 0 6 3 0 0 0 0 0 2 1 1 4 0 0 0 0 0 0 0 0 0 0 0 0 0 0 0 2 0 0 0 2 69 0 0 146 95 2 94
0 6 0 0 4 32 5 0 0 0 0 0 0 0 0 0 0 4 11 9 0 0 0 0 0 0 0 0 0 0 0 0 0 0 1 0 0 0 29 1 0 0 6 280 467
0 0 0 0 6 19 0 1 0 0 1 1 2 1 0 0 0 0 0 0 0 0 1 0 0 0 0 0 0 0 0 0 0 0 0 2 0 0 1 46 9 3 0 55 570
0 8 3 0 0 0 5 3 9 0 1 1 0 0 0 2 4 1 2 7 0 0 0 0 0 0 0 0 0 1 0 0 0 0 0 0 0 0 1 14 35 60 85 10 156
0 0 0 2 0 7 7 7 1 0 0 0 5 1 1 1 9 15 35 43 7 12 0 0 0 0 0 0 0 0 0 0 0 0 0 0 0 0 0 0 1 6 28 66 102
0 1 0 0 0 7 0 2 0 0 0 2 11 9 8 12 18 17 12 12 63 158 50 26 14 10 9 1 0 0 0 0 0 0 0 0 0 0 0 0 0 0 0 0 0
0 0 0 0 0 0 0 0 0 3 5 12 11 13 13 15 11 16 9 11 52 23 193 125 101 56 13 9 7 5 0 0 0 0 0 0 0 0 0 0 0 0 0 0 0

GFSSW_con_sbcape_057.txt.gz
CAPE
0 0 0 0 0 0 1 1 2 1 1 1 1 2 3 2 0 0 0 0 0 0 0 0 0 0 16 176 241 102 0 97 152 30 314 286 398 86 74 179 322 119 19 0 0
0 0 0 0 0 0 1 1 1 1 1 1 0 1 0 0 0 0 0 0 0 0 0 0 0 0 0 0 0 9 4 20 46 56 254 49 231 5 240 206 265 201 34 0 0
0 0 0 0 0 0 1 1 1 0 1 0 0 0 0 0 0 0 0 0 0 0 0 0 0 0 0 0 0 0 0 8 17 108 288 60 136 399 296 270 241 199 24 0 3
0 0 0 0 0 1 1 1 1 0 0 1 0 0 0 0 0 0 0 0 0 0 0 0 0 0 0 0 0 0 0 0 26 462 523 438 274 172 169 158 340 136 9 0 0
0 0 0 1 1 1 0 1 0 0 1 0 0 0 0 0 0 0 0 0 0 0 0 0 0 0 0 0 0 0 0 3 117 231 656 296 505 347 152 6 142 143 27 0 0
0 2 4 3 2 1 2 1 0 0 1 0 0 0 0 0 0 0 0 0 0 0 0 0 0 0 0 0 0 0 0 0 14 394 615 333 299 313 179 0 1 102 7 0 0
1 3 5 4 2 0 2 1 0 0 0 0 0 0 0 0 0 0 0 0 0 0 0 0 0 0 0 0 0 0 0 0 0 107 307 130 44 87 296 150 221 25 18 0 0
2 2 3 2 1 2 3 1 0 0 0 0 0 0 0 0 0 0 0 0 0 0 0 0 0 0 0 0 0 0 0 0 0 6 212 237 165 316 400 308 253 72 67 64 23
7 4 5 5 2 2 1 0 0 0 0 0 0 0 0 0 0 0 0 0 0 0 0 0 0 0 0 0 0 0 0 0 0 0 222 269 334 433 560 458 190 98 127 114 62
7 4 5 4 1 0 0 0 0 0 0 0 0 0 0 0 0 0 0 0 0 0 0 0 0 0 0 0 0 0 0 0 0 0 202 365 338 231 88 228 418 223 192 90 65
6 4 3 1 0 0 0 0 0 0 0 0 0 0 0 0 0 0 0 0 0 0 0 0 0 0 0 0 0 0 0 0 0 0 54 330 641 526 84 268 588 486 276 136 112
5 3 1 0 0 0 0 0 0 0 0 0 0 0 0 0 0 0 0 0 0 0 0 0 0 0 0 0 0 0 0 0 0 0 1 168 424 132 276 109 341 154 289 177 220
2 1 0 0 0 0 0 0 0 0 0 0 0 0 0 0 0 0 0 0 0 0 0 0 0 0 0 0 0 0 0 0 0 0 26 198 156 81 93 178 94 15 25 101 149
0 0 0 1 0 0 0 0 0 0 0 0 0 0 0 0 0 0 0 0 0 0 0 0 0 0 0 0 0 0 0 0 0 0 0 163 177 98 84 224 352 47 8 0 113
0 0 0 1 0 0 0 0 0 0 0 0 0 0 0 0 0 0 0 0 0 0 0 0 0 0 0 0 0 0 0 0 0 0 0 0 0 96 144 173 84 173 0 0 0
0 0 0 0 0 0 0 0 0 0 0 0 0 0 0 0 0 0 0 0 0 0 0 0 0 0 0 0 0 0 0 0 0 0 0 0 0 0 167 173 15 0 0 0 16
0 0 0 0 0 0 0 0 0 0 0 0 0 0 0 0 0 0 0 0 0 0 0 0 0 0 0 0 0 0 0 0 0 0 0 0 0 0 191 290 22 0 1 53 609
0 0 0 0 0 0 0 0 0 0 0 0 0 0 0 0 0 0 0 0 0 0 0 0 0 0 0 0 0 0 0 0 0 0 0 0 0 0 0 502 74 15 66 349 207
0 0 0 0 0 0 0 0 0 0 0 0 0 0 0 0 0 0 0 0 0 0 0 0 0 0 0 0 0 0 0 0 0 0 0 0 0 0 0 122 202 104 267 46 84
0 0 0 0 0 0 0 0 0 0 0 0 0 0 0 0 0 0 0 0 0 0 0 0 0 0 0 0 0 0 0 0 0 0 0 0 0 0 0 0 240 201 118 462 518
0 0 0 0 0 0 0 0 0 0 0 0 0 0 0 0 0 0 0 0 0 0 0 0 0 0 0 0 0 0 0 0 0 0 0 0 0 0 0 0 292 261 203 518 260
0 0 0 0 0 3 0 0 0 0 0 0 0 0 0 0 0 0 0 0 0 0 0 0 0 0 0 0 0 0 0 0 0 0 0 0 0 0 0 0 49 335 270 411 393
0 2 0 0 0 0 1 0 0 0 0 0 0 0 0 0 0 0 0 0 0 0 0 0 0 0 0 0 0 0 0 0 0 0 0 0 0 0 0 0 0 0 26 334 370
0 20 0 0 0 0 0 0 0 0 0 0 0 0 0 0 0 0 0 0 0 0 0 0 0 0 0 0 0 0 0 0 0 0 0 0 0 0 0 0 0 0 0 44 457
0 0 0 0 0 0 0 0 0 0 0 0 0 0 0 0 0 0 0 0 0 0 0 0 0 0 0 0 0 0 0 0 0 0 0 0 0 0 0 0 0 0 0 0 19
0 0 0 0 0 0 0 0 0 0 0 0 0 0 0 0 0 0 0 0 0 0 0 0 0 0 0 0 0 0 0 0 0 0 0 0 0 0 0 0 0 0 0 0 0
0 0 0 0 0 0 0 0 0 0 0 0 0 1 0 0 0 0 0 0 0 0 0 1 3 17 0 0 0 0 0 0 0 0 0 0 0 0 0 0 0 0 0 0 0

GFSSW_con_sbcape_060.txt.gz
CAPE
0 0 0 0 0 0 1 3 4 3 3 3 2 1 1 2 0 0 0 0 0 0 0 0 0 0 0 0 65 104 48 15 17 106 323 514 408 59 174 111 155 112 12 0 0
0 0 0 0 1 1 1 1 3 2 2 2 2 1 0 0 0 0 0 0 0 0 0 0 0 0 0 0 30 156 60 22 0 154 502 544 232 39 207 143 263 185 2 0 0
0 0 0 1 1 1 2 1 1 2 2 2 2 0 0 0 0 0 0 0 0 0 0 0 0 0 0 0 0 2 49 29 38 171 1 3 49 179 122 121 265 50 1 0 0
0 1 2 2 2 1 2 1 1 0 1 3 1 0 0 0 0 0 0 0 0 0 0 0 0 0 0 0 0 0 0 0 14 159 39 118 362 402 187 524 422 26 0 0 0
0 1 1 2 2 2 2 1 1 0 0 1 0 1 0 0 0 0 0 0 0 0 0 0 0 0 0 0 0 0 0 0 18 469 116 26 83 107 133 405 363 63 13 0 0
1 1 2 2 2 2 1 1 0 0 0 2 0 1 0 0 0 0 0 0 0 0 0 0 0 0 0 0 0 0 0 0 639 318 161 134 397 148 110 142 284 89 5 0 0
2 2 4 4 2 1 1 1 0 0 0 0 0 0 0 0 0 0 0 0 0 0 0 0 0 0 0 0 0 0 0 0 148 735 581 311 378 397 5 82 298 164 9 2 0
2 2 4 3 2 1 3 1 0 0 0 0 0 0 0 0 0 0 0 0 0 0 0 0 0 0 0 0 0 0 0 0 6 637 566 143 259 327 152 373 353 182 23 1 0
5 5 5 4 4 3 1 0 0 0 0 0 0 0 0 0 0 0 0 0 0 0 0 0 0 0 0 0 0 0 0 0 0 3 466 208 493 466 560 504 277 132 52 1 5
6 6 6 5 2 0 0 0 0 0 0 0 0 0 0 0 0 0 0 0 0 0 0 0 0 0 0 0 0 0 0 0 0 0 346 361 527 633 568 481 225 102 53 0 11
7 5 4 2 0 0 0 0 0 0 0 0 0 0 0 0 0 0 0 0 0 0 0 0 0 0 0 0 0 0 0 0 0 0 0 396 594 784 614 505 301 117 64 13 60
6 3 2 1 0 0 0 0 0 0 0 0 0 0 0 0 0 0 0 0 0 0 0 0 0 0 0 0 0 0 0 0 0 0 0 374 464 597 338 454 471 271 127 69 86
4 2 0 0 0 0 0 0 0 0 0 0 0 0 0 0 0 0 0 0 0 0 0 0 0 0 0 0 0 0 0 0 0 0 199 396 315 307 132 171 595 588 350 139 62
3 1 1 1 0 0 0 0 0 0 0 0 0 0 0 0 0 0 0 0 0 0 0 0 0 0 0 0 0 0 0 0 0 0 2 115 96 59 189 184 314 0 41 81 97
3 0 0 0 0 0 0 0 0 0 0 0 0 0 0 0 0 0 0 0 0 0 0 0 0 0 0 0 0 0 0 0 0 0 0 0 0 1 142 209 436 2 20 5 106
0 0 1 0 0 0 0 0 0 0 0 0 0 0 0 0 0 0 0 0 0 0 0 0 0 0 0 0 0 0 0 0 0 0 0 0 0 23 63 225 479 395 253 189 89
0 0 0 0 0 0 0 0 0 0 0 0 0 0 0 0 0 0 0 0 0 0 0 0 0 0 0 0 0 0 0 0 0 0 0 0 0 0 94 93 356 375 346 290 81
0 0 0 0 0 0 0 0 0 0 0 0 0 0 0 0 0 0 0 0 0 0 0 0 0 0 0 0 0 0 0 0 0 0 0 0 0 0 2 255 239 336 318 14 25
0 0 0 0 0 0 0 0 0 0 0 0 0 0 0 0 0 0 0 0 0 0 0 0 0 0 0 0 0 0 0 0 0 0 0 0 0 0 0 0 277 168 67 20 46
0 0 0 0 0 0 0 0 0 0 0 0 0 0 0 0 0 0 0 0 0 0 0 0 0 0 0 0 0 0 0 0 0 0 0 0 0 0 0 0 69 98 97 81 388
0 0 0 0 0 0 0 0 0 0 0 0 0 0 0 0 0 0 0 0 0 0 0 0 0 0 0 0 0 0 0 0 0 0 0 0 0 0 0 0 0 119 79 148 392
0 0 0 0 0 0 0 0 0 0 0 0 0 0 0 0 0 0 0 0 0 0 0 0 0 0 0 0 0 0 0 0 0 0 0 0 0 0 0 0 0 0 83 191 162
0 0 0 0 0 0 0 0 0 0 0 0 0 0 0 0 0 0 0 0 0 0 0 0 0 0 0 0 0 0 0 0 0 0 0 0 0 0 0 0 0 0 52 333 418
0 0 0 0 0 0 0 0 0 0 0 0 0 0 0 0 0 0 0 0 0 0 0 0 0 0 0 0 0 0 0 0 0 0 0 0 0 0 0 0 0 0 2 309 240
0 0 0 0 0 0 0 0 0 0 0 0 0 0 0 0 0 0 0 0 0 0 0 0 0 0 0 0 0 0 0 0 0 0 0 0 0 0 0 0 0 0 0 8 119
0 0 0 0 0 0 0 0 0 0 0 0 0 0 0 0 0 0 0 0 0 0 0 0 0 0 0 0 0 0 0 0 0 0 0 0 0 0 0 0 0 0 0 0 0
0 0 0 0 0 0 0 0 0 0 0 0 0 0 0 0 0 0 0 0 0 0 0 0 0 0 0 0 0 0 0 0 0 0 0 0 0 0 0 0 0 0 0 0 0

GFSSW_con_sbcape_063.txt.gz
CAPE
0 0 1 2 2 3 4 3 3 3 3 2 2 2 3 5 1 0 0 0 0 0 3 0 0 0 0 32 128 210 87 1 1 37 330 239 419 210 186 138 9 185 0 0 25
0 1 2 2 3 4 3 3 3 1 2 2 2 3 2 5 0 0 0 0 0 0 0 0 0 0 0 68 167 233 112 29 0 201 278 411 368 97 205 176 165 0 0 14 76
0 1 2 3 2 3 3 3 3 2 1 2 3 1 3 0 0 0 0 0 0 0 0 0 0 0 0 0 176 63 132 4 23 139 370 408 308 100 117 164 245 0 4 29 48
0 1 3 3 4 3 3 3 2 2 1 1 3 0 0 0 0 0 0 0 0 0 0 0 0 0 0 0 0 0 17 15 0 83 2 27 325 237 260 280 281 0 0 30 2
1 2 3 3 5 4 3 2 1 2 1 1 1 1 0 0 0 0 0 0 0 0 0 0 0 0 0 0 0 0 3 0 0 13 75 32 14 211 312 578 178 0 0 25 20
2 3 5 4 3 3 2 1 1 1 0 0 5 1 0 0 0 0 0 0 0 0 0 0 0 0 0 0 0 0 1 0 3 158 112 84 253 154 333 396 71 0 0 0 21
2 3 4 3 3 3 2 1 1 1 0 0 0 0 0 0 0 0 0 0 0 0 0 0 0 0 0 0 0 0 0 0 315 175 222 266 407 236 253 345 124 17 0 0 0
4 5 5 4 2 2 3 3 1 0 0 0 3 0 0 0 0 0 0 0 0 0 0 0 0 0 0 0 0 0 0 0 262 278 522 297 60 170 308 393 102 55 0 2 0
4 6 5 2 4 6 2 1 0 0 0 0 0 0 0 0 0 0 0 0 0 0 0 0 0 0 0 0 0 0 0 0 71 531 575 353 248 297 394 461 246 83 8 12 1
9 8 6 4 3 3 4 0 0 0 0 0 0 0 0 0 0 0 0 0 0 0 0 0 0 0 0 0 0 0 0 0 0 285 415 293 171 369 272 472 300 134 22 7 27
7 4 5 4 3 3 1 0 0 0 0 0 0 0 0 0 0 0 0 0 0 0 0 0 0 0 0 0 0 0 0 0 0 0 0 190 197 512 489 556 419 144 52 14 16
8 6 4 3 3 3 0 0 0 0 0 0 0 0 0 0 0 0 0 0 0 0 0 0 0 0 0 0 0 0 0 0 0 0 0 0 140 486 500 500 355 181 64 13 0
6 4 4 4 1 0 0 0 0 0 0 0 0 0 0 0 0 0 0 0 0 0 0 0 0 0 0 0 0 0 0 0 0 0 226 299 349 547 334 270 401 277 119 19 1
5 4 4 1 0 0 0 0 0 0 0 0 0 0 0 0 0 0 0 0 0 0 0 0 0 0 0 0 0 0 0 0 0 0 0 83 10 266 232 119 209 435 296 76 13
3 5 1 2 0 0 0 0 0 0 0 0 0 0 0 0 0 0 0 0 0 0 0 0 0 0 0 0 0 0 0 0 0 0 0 0 0 0 138 158 210 517 461 281 109
3 3 1 0 0 0 0 0 0 0 0 0 0 0 0 0 0 0 0 0 0 0 0 0 0 0 0 0 0 0 0 0 0 0 0 0 0 0 189 265 228 283 413 298 230
0 0 0 0 0 0 0 0 0 0 0 0 0 0 0 0 0 0 0 0 0 0 0 0 0 0 0 0 0 0 0 0 0 0 0 0 0 0 15 201 156 184 312 5 10
0 0 0 0 0 0 0 0 0 0 0 0 0 0 0 0 0 0 0 0 0 0 0 0 0 0 0 0 0 0 0 0 0 0 0 0 0 0 0 3 56 128 138 127 19
0 0 0 0 0 0 0 0 0 0 0 0 0 0 0 0 0 0 0 0 0 0 0 0 0 0 0 0 0 0 0 0 0 0 0 0 0 0 0 0 0 104 232 196 182
0 0 0 0 0 0 0 0 0 0 0 0 0 0 0 0 0 0 0 0 0 0 0 0 0 0 0 0 0 0 0 0 0 0 0 0 0 0 0 0 0 34 159 276 281
0 0 0 0 0 0 0 0 0 0 0 0 0 0 0 0 0 0 0 0 0 0 0 0 0 0 0 0 0 0 0 0 0 0 0 0 0 0 0 0 0 0 0 149 13
0 0 0 0 0 0 0 0 0 0 0 0 0 0 0 0 0 0 0 0 0 0 0 0 0 0 0 0 0 0 0 0 0 0 0 0 0 0 0 0 0 40 0 0 54
0 0 0 0 0 0 0 0 0 0 0 0 0 0 0 0 0 0 0 0 0 0 0 0 0 0 0 0 0 0 0 0 0 0 0 0 0 0 0 0 0 4 153 330 230
0 0 0 0 0 0 0 0 0 0 0 0 0 0 0 0 0 0 0 0 0 0 0 0 0 0 0 0 0 0 0 0 0 0 0 0 0 0 0 0 0 0 0 52 126
0 0 0 0 0 0 0 0 0 0 0 0 0 0 0 0 0 0 0 0 0 0 0 0 0 0 0 0 0 0 0 0 0 0 0 0 0 0 0 0 0 0 0 0 0
0 0 0 0 0 0 0 0 0 0 0 0 0 0 0 0 0 0 0 0 0 0 0 0 0 0 0 0 0 0 0 0 0 0 0 0 0 0 0 0 0 0 0 0 0
0 0 0 0 0 0 0 0 0 0 0 0 0 0 0 0 0 0 0 0 0 0 0 0 0 0 0 0 0 0 0 0 0 0 0 0 0 0 0 0 0 0 0 0 0

GFSSW_con_sbcape_066.txt.gz
CAPE
0 1 2 3 3 3 2 3 4 4 3 2 2 3 3 1 1 0 0 0 0 0 0 0 0 0 0 38 89 136 50 8 0 0 278 82 336 142 359 34 11 10 0 1 18
0 2 3 5 5 4 3 2 2 3 3 3 3 3 3 2 0 0 0 0 0 20 0 0 0 0 0 83 77 147 103 13 1 123 298 238 366 278 239 82 0 4 0 4 120
2 3 4 4 3 5 5 3 2 2 3 2 2 3 1 0 0 0 0 0 0 1 0 0 0 0 0 2 138 74 84 10 23 367 344 346 250 194 155 132 2 2 10 77 112
3 4 5 5 4 3 3 4 4 2 2 2 1 2 1 0 0 0 0 0 0 0 0 0 0 0 0 0 0 0 0 1 0 19 68 222 204 181 125 173 1 0 1 77 99
2 3 4 5 6 4 2 2 3 3 2 1 1 2 0 0 0 0 0 0 0 0 0 0 0 0 0 0 0 0 0 0 0 0 12 91 172 305 300 377 0 3 6 40 70
5 5 4 4 4 4 2 2 2 2 1 1 0 1 0 0 0 0 0 0 0 0 0 0 0 0 0 0 0 0 0 0 0 0 26 22 34 132 546 89 0 9 1 11 31
5 5 4 4 4 3 1 2 2 2 2 0 4 1 0 0 0 0 0 0 0 0 0 0 0 0 0 0 0 0 0 0 0 148 107 373 258 126 578 7 14 3 5 0 6
5 4 5 4 4 3 4 5 3 2 1 0 4 0 0 0 0 0 0 0 0 0 0 0 0 0 0 0 0 0 0 0 105 223 320 86 24 248 521 55 0 10 30 19 0
7 7 5 3 6 9 6 3 0 0 0 1 0 0 0 0 0 0 0 0 0 0 0 0 0 0 0 0 0 0 0 0 0 278 382 154 99 176 582 272 21 0 0 8 0
10 8 6 8 10 2 1 0 0 0 0 0 0 0 0 0 0 0 0 0 0 0 0 0 0 0 0 0 0 0 0 0 0 331 365 283 179 343 471 410 189 24 1 0 0
8 7 7 8 7 0 0 0 0 0 0 0 0 0 0 0 0 0 0 0 0 0 0 0 0 0 0 0 0 0 0 0 0 0 0 0 0 266 212 577 419 111 17 5 0
6 5 7 7 5 3 0 0 0 0 0 0 0 0 0 0 0 0 0 0 0 0 0 0 0 0 0 0 0 0 0 0 0 0 0 0 40 157 169 616 500 235 48 19 0
5 6 3 5 2 0 0 0 0 0 0 0 0 0 0 0 0 0 0 0 0 0 0 0 0 0 0 0 0 0 0 0 0 0 14 145 153 420 607 405 397 327 107 9 0
6 9 1 0 0 0 0 0 0 0 0 0 0 0 0 0 0 0 0 0 0 0 0 0 0 0 0 0 0 0 0 0 0 0 0 0 0 87 307 409 281 292 107 18 1
9 4 1 1 0 0 0 0 0 0 0 0 0 0 0 0 0 0 0 0 0 0 0 0 0 0 0 0 0 0 0 0 0 0 0 0 0 0 119 347 297 325 283 104 4
6 3 0 0 0 0 0 0 0 0 0 0 0 0 0 0 0 0 0 0 0 0 0 0 0 0 0 0 0 0 0 0 0 0 0 0 0 0 142 146 104 287 442 278 148
0 0 0 0 0 0 0 0 0 0 0 0 0 0 0 0 0 0 0 0 0 0 0 0 0 0 0 0 0 0 0 0 0 0 0 0 0 0 0 0 0 40 214 446 263
0 0 0 0 0 0 0 0 0 0 0 0 0 0 0 0 0 0 0 0 0 0 0 0 0 0 0 0 0 0 0 0 0 0 0 0 0 0 0 0 0 2 89 320 358
0 0 0 0 0 0 0 0 0 0 0 0 0 0 0 0 0 0 0 0 0 0 0 0 0 0 0 0 0 0 0 0 0 0 0 0 0 0 0 0 0 0 8 196 149
0 0 0 0 0 0 0 0 0 0 0 0 0 0 0 0 0 0 0 0 0 0 0 0 0 0 0 0 0 0 0 0 0 0 0 0 0 0 0 0 0 0 0 23 59
0 0 0 0 0 0 0 0 0 0 0 0 0 0 0 0 0 0 0 0 0 0 0 0 0 0 0 0 0 0 0 0 0 0 0 0 0 0 0 0 0 6 146 0 140
0 0 0 0 0 0 0 0 0 0 0 0 0 0 0 0 0 0 0 0 0 0 0 0 0 0 0 0 0 0 0 0 0 0 0 0 0 0 0 0 0 0 173 76 16
0 0 0 0 0 0 0 0 0 0 0 0 0 0 0 0 0 0 0 0 0 0 0 0 0 0 0 0 0 0 0 0 0 0 0 0 0 0 0 0 0 0 0 0 0
0 0 0 0 0 0 0 0 0 0 0 0 0 0 0 0 0 0 0 0 0 0 0 0 0 0 0 0 0 0 0 0 0 0 0 0 0 0 0 0 0 0 0 0 0
0 0 0 0 0 0 0 0 0 0 0 0 0 0 0 0 0 0 0 0 0 0 0 0 0 0 0 0 0 0 0 0 0 0 0 0 0 0 0 0 0 0 0 0 0
0 0 0 0 0 0 0 0 0 0 0 0 0 0 0 0 0 0 0 0 0 0 0 0 0 0 0 0 0 0 0 0 0 0 0 0 0 0 0 0 0 0 0 0 0
0 0 0 0 0 0 0 0 0 0 0 0 0 0 0 0 0 0 0 0 0 0 0 0 0 0 0 0 0 0 0 0 0 0 0 0 0 0 0 0 0 0 0 0 0

GFSSW_con_sbcape_069.txt.gz
CAPE
1 3 3 4 4 4 3 3 3 4 2 2 2 3 0 1 0 0 0 0 0 0 0 0 0 9 22 106 245 292 202 69 3 10 336 135 299 208 352 26 12 4 9 0 3
1 2 3 3 4 4 3 4 2 2 3 2 2 2 2 0 0 0 0 0 0 0 0 0 0 40 82 111 184 353 362 107 34 140 285 337 294 175 251 7 12 6 17 1 7
2 4 4 4 4 4 3 3 3 2 2 2 1 2 1 1 0 0 0 0 0 0 0 0 0 0 21 163 153 220 261 59 14 198 345 363 380 383 217 32 8 7 12 4 7
2 4 5 4 4 4 5 3 2 2 3 2 1 2 2 0 0 0 0 0 71 0 0 0 0 0 14 26 43 140 15 2 0 92 210 280 392 357 196 259 12 12 0 0 3
4 5 5 5 2 3 3 4 4 3 2 3 1 1 0 0 0 0 0 0 0 0 0 0 0 0 0 0 0 26 6 0 0 0 0 113 202 232 299 145 26 4 4 3 13
2 3 3 4 5 3 3 4 4 3 2 2 1 0 0 0 0 0 0 0 0 0 0 0 0 0 0 0 0 0 0 0 0 0 2 48 142 237 333 17 7 17 15 4 18
4 6 6 5 4 5 4 1 4 3 2 1 0 0 0 0 0 0 0 0 0 0 0 0 0 0 0 0 0 0 0 0 17 45 110 256 194 216 53 15 30 32 26 6 35
3 4 5 5 5 1 1 1 2 1 2 0 2 0 0 0 0 0 0 0 0 0 0 0 0 0 0 0 0 0 0 0 130 255 249 267 206 394 158 41 25 5 40 53 73
3 6 5 4 1 1 1 0 1 0 0 1 0 0 0 0 0 0 0 0 0 0 0 0 0 0 0 0 0 0 0 0 0 505 485 302 233 584 216 71 18 24 27 56 105
8 8 8 3 2 0 0 0 0 1 2 0 0 0 0 0 0 0 0 0 0 0 0 0 0 0 0 0 0 0 0 0 0 212 493 293 191 560 862 325 159 43 25 58 86
6 9 11 1 1 1 0 0 0 0 0 0 0 0 0 0 0 0 0 0 0 0 0 0 0 0 0 0 0 0 0 0 0 0 0 0 0 3 736 785 277 145 78 81 92
6 11 0 1 0 1 0 0 0 0 0 0 0 0 0 0 0 0 0 0 0 0 0 0 0 0 0 0 0 0 0 0 0 0 0 0 0 577 401 828 659 218 77 79 105
11 4 2 0 0 0 0 0 0 0 0 0 0 0 0 0 0 0 0 0 0 0 0 0 0 0 0 0 0 0 0 0 0 0 1 188 190 539 614 705 822 636 176 85 61
4 4 1 0 0 0 0 0 0 0 0 0 0 0 0 0 0 0 0 0 0 0 0 0 0 0 0 0 0 0 0 0 0 0 0 0 0 155 629 604 770 845 547 242 148
6 1 1 0 0 0 0 0 0 0 0 0 0 0 0 0 0 0 0 0 0 0 0 0 0 0 0 0 0 0 0 0 0 0 0 0 0 0 263 591 450 869 739 349 249
3 1 0 0 0 0 0 0 0 0 0 0 0 0 0 0 0 0 0 0 0 0 0 0 0 0 0 0 0 0 0 0 0 0 0 0 0 0 0 0 0 452 798 604 365
1 0 0 0 0 0 0 0 0 0 0 0 0 0 0 0 0 0 0 0 0 0 0 0 0 0 0 0 0 0 0 0 0 0 0 0 0 0 0 0 0 0 55 804 582
0 0 0 0 0 0 0 0 0 0 0 0 0 0 0 0 0 0 0 0 0 0 0 0 0 0 0 0 0 0 0 0 0 0 0 0 0 0 0 0 0 30 10 448 753
0 0 0 0 0 0 0 0 0 0 0 0 0 0 0 0 0 0 0 0 0 0 0 0 0 0 0 0 0 0 0 0 0 0 0 0 0 0 0 0 0 174 239 269 684
0 0 0 0 0 0 0 0 0 0 0 0 0 0 0 0 0 0 0 0 0 0 0 0 0 0 0 0 0 0 0 0 0 0 0 0 0 0 0 0 0 104 225 98 354
0 0 0 0 0 0 0 0 0 0 0 0 0 0 0 0 0 0 0 0 0 0 0 0 0 0 0 0 0 0 0 0 0 0 0 0 0 0 0 0 0 0 0 295 561
0 0 0 0 0 0 0 0 0 0 0 0 0 0 0 0 0 0 0 0 0 0 0 0 0 0 0 0 0 0 0 0 0 0 0 0 0 0 0 0 0 0 0 0 4
0 0 0 0 0 0 0 0 0 0 0 0 0 0 0 0 0 0 0 0 0 0 0 0 0 0 0 0 0 0 0 0 0 0 0 0 0 0 0 0 0 0 0 0 0
0 0 0 0 0 0 0 0 0 0 0 0 0 0 0 0 0 0 0 0 0 0 0 0 0 0 0 0 0 0 0 0 0 0 0 0 0 0 0 0 0 0 0 0 0
0 0 0 0 0 0 0 0 0 0 0 0 0 0 0 0 0 0 0 0 0 0 0 0 0 0 0 0 0 0 0 0 0 0 0 0 0 0 0 0 0 0 0 0 0
0 0 0 0 0 0 0 0 0 0 0 0 0 0 0 0 0 0 0 0 0 0 0 0 0 0 0 0 0 0 0 0 0 0 0 0 0 0 0 0 0 0 0 0 0
0 0 0 0 0 0 0 0 0 0 0 0 0 0 0 0 0 0 0 0 0 0 0 0 0 0 0 0 0 0 0 0 0 0 0 0 0 0 0 0 0 0 0 0 0

GFSSW_con_sbcape_072.txt.gz
CAPE
3 4 2 3 3 3 2 2 2 2 2 2 2 0 0 0 0 0 0 0 0 0 35 0 0 0 130 171 368 515 672 267 148 505 392 119 258 606 427 322 165 158 82 0 21
2 3 4 4 3 3 2 2 3 3 2 2 2 1 0 0 0 0 0 0 0 0 0 0 0 6 127 167 451 513 567 174 134 178 512 380 334 519 145 92 102 107 76 14 11
3 3 4 4 3 4 2 3 2 2 3 1 1 1 0 0 0 0 0 0 0 0 0 0 0 0 5 163 490 662 336 239 115 185 192 579 186 145 289 66 216 152 56 25 22
3 3 2 3 3 2 4 2 3 2 2 2 1 0 0 0 0 0 0 0 0 0 0 0 0 0 0 27 352 444 363 220 53 2 171 212 451 531 144 200 39 195 26 28 20
3 3 3 3 1 4 4 3 2 2 2 1 0 0 0 0 0 0 0 0 0 0 0 0 0 0 0 0 100 223 256 85 1 0 0 20 230 469 568 219 150 80 8 11 25
1 2 5 3 3 4 4 2 1 3 2 1 0 0 0 0 0 0 0 0 0 0 0 0 0 0 0 0 0 21 45 10 0 0 0 117 355 506 638 400 132 37 5 12 15
2 1 1 3 3 3 2 1 3 1 4 2 0 0 0 0 0 0 0 0 0 0 0 0 0 0 0 0 0 0 0 0 0 0 33 228 604 416 665 386 157 62 12 7 23
3 3 3 2 1 1 1 2 0 2 0 1 2 0 0 0 0 0 0 0 0 0 0 0 0 0 0 0 0 0 0 40 59 33 140 646 501 794 590 200 126 94 32 27 57
2 5 4 1 1 3 2 0 1 1 1 1 0 0 0 0 0 0 0 0 0 0 0 0 0 0 0 0 0 0 25 51 109 179 335 704 527 1082 673 141 103 40 71 86 94
4 10 10 1 1 2 0 0 0 0 0 0 0 0 0 0 0 0 0 0 0 0 0 0 0 0 0 0 0 0 4 71 11 347 371 435 505 1010 848 515 234 33 160 200 141
9 12 6 5 0 1 0 0 0 0 0 0 0 0 0 0 0 0 0 0 0 0 0 0 0 0 0 0 0 0 1 21 0 174 126 9 0 177 726 936 636 61 325 386 186
14 9 8 4 2 0 0 0 0 0 0 0 0 0 0 0 0 0 0 0 0 0 0 0 0 0 0 0 0 0 0 10 0 0 0 0 0 155 218 769 1050 378 255 510 328
9 8 2 2 1 0 0 0 0 0 0 0 0 0 0 0 0 0 0 0 0 0 0 0 0 0 0 0 0 0 0 17 8 0 0 0 2 397 442 507 837 725 725 617 463
7 6 2 0 0 0 0 0 0 0 0 0 0 0 0 0 0 0 0 0 0 0 0 0 0 0 0 0 0 0 0 0 0 0 0 0 132 170 779 678 968 740 658 540 621
6 2 1 1 0 0 0 0 0 0 0 0 0 0 0 0 0 0 0 0 0 0 0 0 0 0 0 0 0 19 0 0 0 0 0 0 5 131 251 723 648 905 896 691 317
2 1 0 0 0 0 0 0 0 0 0 0 0 0 0 0 0 0 0 0 0 0 0 0 0 0 0 2 0 10 0 0 0 0 0 0 0 10 43 0 1 824 1197 1023 819
0 0 0 0 0 0 0 0 0 3 0 0 0 0 0 0 0 0 0 0 0 0 0 0 0 0 1 7 0 4 0 0 0 0 0 1 0 2 0 0 2 30 5 1260 1062
0 0 0 0 0 0 0 0 18 0 0 0 0 0 0 0 0 0 0 0 0 0 16 0 0 0 0 2 1 0 3 0 0 0 0 0 0 0 0 10 350 432 146 151 1247
0 0 0 0 0 0 1 41 6 0 0 0 0 0 0 0 0 0 0 0 0 0 0 10 1 0 0 0 0 0 6 3 0 0 5 0 0 0 0 39 72 300 430 458 1164
68 11 0 0 0 0 5 0 6 0 0 1 10 0 8 1 4 10 0 0 0 0 0 0 0 0 0 0 0 0 0 0 0 0 0 0 0 0 0 3 26 26 138 640 785
8 51 0 0 0 1 21 2 0 0 0 5 14 10 0 7 6 11 0 0 0 0 0 0 0 0 0 0 0 0 0 0 0 0 1 13 4 0 0 0 0 2 0 1 78
0 41 0 0 0 0 0 0 0 0 0 0 0 3 2 15 23 16 4 0 0 0 0 0 0 0 0 0 0 0 0 0 1 5 0 16 0 0 0 0 0 0 0 0 0
0 0 0 0 6 0 0 0 0 0 0 0 0 0 0 1 12 4 0 0 0 0 0 0 0 0 0 0 0 0 0 0 0 0 19 0 0 0 0 0 0 0 0 0 0
0 0 0 0 0 0 0 0 0 0 0 0 0 0 0 0 2 0 0 0 0 0 0 0 0 0 0 0 0 0 0 0 0 1 28 6 0 0 0 0 0 0 0 0 0
0 0 0 0 0 0 0 0 0 0 0 0 0 0 0 1 2 0 0 0 0 0 0 2 11 0 0 0 0 0 0 0 0 0 1 0 0 0 0 0 0 0 0 0 0
0 0 0 0 0 0 0 0 0 0 0 0 0 0 0 0 0 0 0 0 0 0 0 0 2 0 0 0 0 0 0 0 0 0 0 0 0 0 0 0 0 0 0 0 0
0 0 0 0 0 0 0 0 0 0 0 0 0 0 0 0 0 0 0 0 0 0 0 0 0 0 0 0 0 0 0 0 0 0 0 0 0 0 0 0 0 0 0 0 0

GFSSW_con_sbcape_075.txt.gz
CAPE
2 3 2 2 1 2 3 3 2 3 2 1 1 1 0 0 0 0 0 0 0 0 54 0 0 32 267 362 581 837 749 349 390 635 513 377 289 424 398 349 274 301 307 50 61
1 3 3 3 2 1 1 2 3 2 2 1 1 0 0 0 0 0 0 0 0 144 0 0 0 1 207 232 592 878 608 238 342 558 192 446 580 760 503 242 289 262 146 37 75
4 3 1 1 2 3 2 1 1 2 2 1 1 0 0 0 0 0 0 0 0 66 0 0 0 0 55 239 647 687 346 164 330 641 654 441 348 527 292 435 256 261 97 49 113
5 3 3 3 3 3 3 2 2 2 2 1 1 0 0 0 0 0 0 0 0 0 0 0 0 0 9 210 571 709 412 264 220 390 614 780 520 279 433 551 316 165 104 52 134
1 2 3 4 4 4 2 2 3 2 3 2 1 0 0 0 0 0 0 0 0 0 0 0 0 0 1 33 582 758 426 287 46 2 19 300 747 780 264 84 158 315 108 52 139
2 1 2 3 4 4 4 2 1 3 2 2 0 0 0 0 0 0 0 0 0 0 0 0 0 0 0 0 245 612 533 223 69 4 0 248 538 585 792 290 327 259 111 87 112
6 4 2 2 2 2 1 2 3 3 1 2 0 0 0 0 0 0 0 0 0 0 0 0 0 0 0 0 0 171 449 171 18 0 4 507 599 804 734 600 200 175 120 105 125
6 2 2 3 3 3 4 3 0 1 3 2 0 0 0 0 0 0 0 0 0 0 0 0 0 0 0 0 0 45 212 338 118 9 135 532 629 918 945 575 217 152 131 127 133
7 6 3 2 6 1 1 0 0 0 0 0 0 0 0 0 0 0 0 0 0 0 0 0 0 0 0 0 0 0 132 158 143 35 155 488 709 882 927 744 306 122 111 106 117
9 8 2 3 7 3 0 0 0 0 0 0 0 0 0 0 0 0 0 0 0 0 0 0 0 0 0 0 0 0 21 118 177 112 211 583 544 1072 816 421 402 175 138 116 104
10 10 7 7 1 1 0 0 0 0 0 0 0 0 0 0 0 0 0 0 0 0 0 0 0 0 0 0 0 1 2 49 109 145 187 253 647 742 1062 624 688 171 134 265 139
10 8 8 3 1 0 0 0 0 0 0 0 0 0 0 0 0 0 0 0 0 0 0 0 0 0 0 0 0 0 4 85 51 157 177 51 31 418 589 1032 1029 331 118 396 207
9 5 1 2 0 0 0 0 0 0 0 0 0 0 0 0 0 0 0 0 0 0 0 0 0 0 0 0 0 0 17 132 55 0 58 30 61 162 117 467 1239 700 475 531 338
2 3 1 0 0 0 0 0 0 0 0 0 0 0 0 0 0 0 0 0 0 0 0 0 0 0 0 0 0 3 0 63 44 10 10 5 71 193 204 225 1342 746 716 551 520
1 3 0 0 0 0 0 0 0 0 8 0 0 0 0 0 0 0 0 0 0 0 0 0 0 0 0 0 0 9 0 6 73 4 51 57 78 46 424 588 1136 826 933 910 688
2 1 0 0 0 0 0 0 0 0 28 0 0 0 0 0 0 0 0 0 0 0 0 0 0 0 0 0 1 25 31 4 9 16 8 40 1 448 323 399 963 877 808 869 713
0 0 0 0 0 0 0 0 20 81 0 0 0 0 0 0 1 0 0 0 0 0 0 0 1 0 0 1 26 73 58 16 18 9 14 8 8 117 6 0 27 498 443 1086 804
0 0 4 0 0 0 0 27 140 7 25 0 0 6 10 9 7 5 1 0 0 1 62 0 0 0 0 9 60 69 53 23 5 4 9 60 69 22 27 391 446 421 264 1103 1025
0 9 73 2 0 0 76 167 114 22 0 0 0 55 48 25 31 37 26 32 11 1 0 61 26 4 0 34 102 58 44 16 87 57 53 111 7 0 110 205 283 665 612 183 1179
26 94 18 0 0 25 245 9 26 0 0 17 71 68 69 56 51 36 79 1 1 0 0 0 8 0 0 0 1 1 25 76 77 65 79 87 9 33 81 95 130 65 227 363 190
8 163 10 0 5 204 112 92 18 0 5 84 61 90 34 68 53 65 54 0 0 0 0 0 14 1 0 0 0 0 0 27 95 41 118 103 28 0 36 37 12 0 0 0 2
5 159 5 0 168 39 87 0 0 27 9 7 4 0 1 2 59 42 70 1 0 0 0 0 0 11 0 0 0 0 7 1 43 32 13 88 0 19 8 0 0 0 0 0 0
0 0 0 2 218 13 0 0 0 0 12 9 15 20 20 0 37 4 1 0 0 1 0 0 0 30 1 0 0 0 0 0 14 43 106 67 1 11 4 0 0 0 0 0 0
0 3 0 0 4 0 0 0 0 0 0 2 21 41 63 25 12 29 0 0 0 3 0 1 1 9 1 8 0 0 0 0 1 13 35 118 62 0 5 0 0 0 0 0 0
0 0 0 0 0 0 0 0 0 0 0 0 0 22 125 148 54 35 39 8 0 2 17 21 0 0 0 0 1 7 0 0 0 0 76 176 109 4 0 0 0 0 0 0 0
0 0 0 0 0 0 0 0 0 0 0 0 0 0 0 149 108 109 70 78 71 28 46 35 7 0 0 0 0 0 0 0 0 0 2 120 34 8 0 0 0 0 0 0 0
0 0 0 0 0 0 0 0 0 0 0 0 0 0 0 0 0 0 8 8 29 47 39 50 66 57 28 0 0 0 0 0 0 0 7 104 7 0 1 0 0 0 0 0 0

GFSSW_con_sbcape_078.txt.gz
CAPE
2 4 4 3 4 4 4 4 3 3 1 1 1 0 0 0 0 0 0 0 0 1 0 0 0 0 125 320 388 658 592 545 459 443 260 25 53 95 311 413 291 427 49 31 27
2 3 1 2 3 3 3 3 4 3 2 1 1 0 0 0 0 0 0 0 0 2 0 0 0 20 181 160 417 548 635 282 334 230 202 400 159 346 442 221 236 177 24 10 54
5 4 3 2 3 3 3 3 3 4 3 2 1 0 0 0 0 0 0 0 0 19 0 0 0 0 163 135 344 198 557 214 566 521 478 676 732 781 272 151 181 39 13 10 52
1 1 3 5 6 4 2 3 4 3 3 2 1 0 0 0 0 0 0 0 0 0 0 0 0 0 45 166 421 703 485 270 666 595 447 471 549 322 377 511 88 27 2 25 55
2 1 1 1 3 5 4 3 2 3 2 1 1 0 0 0 0 0 0 0 0 0 0 0 0 0 0 115 605 456 562 378 147 961 679 427 546 388 145 162 130 58 10 23 66
2 3 1 1 1 1 1 2 2 2 2 1 0 0 0 0 0 0 0 0 0 0 0 0 0 0 0 48 584 583 280 242 106 47 140 533 623 546 163 137 351 80 33 54 79
1 4 2 1 2 2 1 2 1 2 0 2 1 0 0 0 0 0 0 0 0 0 0 0 0 0 0 0 66 221 699 317 106 24 104 599 739 676 227 198 601 107 56 85 101
3 6 7 1 1 4 3 3 0 1 3 5 0 0 0 0 0 0 0 0 0 0 0 0 0 0 0 0 0 42 202 330 133 19 87 525 552 761 625 396 346 156 76 100 88
5 6 4 1 2 5 0 0 0 6 0 1 0 0 0 0 0 0 0 0 0 0 0 0 0 0 0 0 0 1 120 109 51 14 200 379 538 608 583 265 268 248 91 85 124
6 2 4 2 1 1 0 0 0 0 0 0 0 0 0 0 0 0 0 0 0 0 0 0 0 0 0 0 0 0 18 124 153 65 162 498 38 12 660 383 212 169 101 109 95
7 9 6 4 1 1 0 0 0 0 0 0 0 0 0 0 0 0 0 0 0 0 0 0 0 0 0 0 0 0 0 12 255 120 105 805 321 685 689 591 263 115 186 37 51
7 7 6 4 1 0 0 0 0 0 0 0 0 0 0 0 0 0 0 0 0 0 0 0 0 0 0 0 0 0 1 1 11 90 584 187 193 542 747 595 377 347 218 100 87
4 5 3 0 0 0 0 0 0 0 0 0 0 0 0 0 0 0 0 0 0 0 0 0 0 0 0 0 0 0 0 24 135 6 174 206 512 507 913 652 782 519 216 185 142
2 1 1 0 0 0 0 0 0 0 0 0 0 0 0 0 0 0 0 0 0 0 0 0 0 0 0 0 0 0 0 23 59 51 77 90 147 429 541 794 870 318 145 292 388
3 1 1 0 0 0 0 0 0 0 13 0 0 0 0 0 0 0 0 0 0 0 0 0 0 0 0 0 0 0 0 0 36 47 0 0 39 104 116 945 1113 615 322 435 394
0 0 0 0 0 0 0 0 0 0 24 0 0 0 0 0 0 2 0 0 0 0 0 0 0 0 0 0 2 0 6 0 6 17 0 7 22 466 229 45 399 1127 702 788 601
0 0 0 0 0 0 0 0 63 40 29 0 0 0 0 0 2 14 0 0 0 0 0 0 0 0 0 0 0 0 28 3 0 14 13 0 20 277 119 102 72 785 1232 816 947
0 0 0 0 0 0 0 113 127 103 3 0 3 0 1 14 12 14 2 0 0 0 15 17 0 0 0 0 0 9 41 53 3 0 0 3 50 96 123 219 352 574 704 1182 1005
0 0 0 102 21 0 101 276 26 5 0 6 0 25 17 25 20 11 24 22 0 0 20 18 19 1 0 0 0 36 76 67 58 12 27 119 178 190 217 433 760 682 272 197 161
0 25 137 0 0 90 142 84 67 0 0 41 111 40 50 8 32 27 36 41 18 10 0 0 4 11 0 0 0 1 16 65 33 7 68 139 181 239 264 312 391 88 0 1 5
0 52 50 0 0 64 213 69 33 0 0 46 143 68 24 41 65 88 18 1 0 0 0 0 2 3 8 0 0 5 20 2 14 59 111 177 106 373 249 123 4 0 0 0 1
7 106 4 0 157 122 66 0 0 26 0 0 1 20 78 93 54 38 1 0 0 0 0 0 0 21 5 0 0 2 3 0 74 71 30 22 0 149 7 0 0 0 0 0 0
30 0 0 3 118 208 0 0 0 17 9 4 17 0 0 15 94 45 0 0 0 1 12 0 0 28 6 5 0 0 0 0 7 45 287 32 44 36 0 0 0 0 0 0 0
8 10 0 0 0 9 0 0 0 0 0 6 23 3 0 0 0 50 2 0 0 0 0 0 0 29 0 0 0 0 0 0 0 6 12 121 278 29 0 0 0 0 0 0 0
2 0 0 0 0 0 0 0 0 1 0 0 0 5 15 115 0 0 12 0 0 0 0 0 0 0 2 0 0 0 0 0 0 0 129 341 373 19 3 0 0 0 0 0 0
0 0 0 0 0 0 0 0 0 0 0 0 0 0 0 161 19 112 108 19 0 0 0 0 7 7 0 0 0 0 0 6 0 0 39 180 191 7 0 0 0 0 0 0 0
0 0 4 0 0 0 0 0 0 0 0 0 0 0 0 2 0 13 7 72 23 68 31 9 11 17 10 0 0 0 0 0 0 0 377 320 55 1 0 1 1 0 0 0 0

GFSSW_con_sbcape_081.txt.gz
CAPE
3 3 3 2 4 5 3 2 2 2 2 2 2 2 4 4 0 0 0 0 0 0 0 0 0 0 0 24 92 553 279 278 186 4 7 8 59 105 332 312 96 4 0 3 36
3 3 4 4 3 3 4 4 3 2 2 2 2 2 2 2 0 0 0 0 5 0 0 0 0 0 0 14 59 51 152 205 175 48 29 58 156 444 47 390 258 0 2 9 39
0 1 1 1 4 4 4 4 4 3 2 2 1 1 2 0 0 0 0 0 38 0 0 0 0 0 2 21 386 11 162 298 75 65 101 184 170 402 269 164 8 5 0 4 26
1 2 0 0 1 5 4 4 4 3 3 2 1 0 0 0 0 0 19 0 0 0 0 0 0 0 0 21 373 385 342 241 274 414 371 626 631 325 458 416 16 0 0 0 29
1 0 1 1 1 3 1 3 3 2 2 3 2 0 0 0 0 0 0 0 0 0 0 0 0 0 0 1 403 203 69 376 565 434 595 654 614 378 314 120 11 2 0 6 19
1 2 2 1 3 2 1 1 2 3 4 2 3 0 0 0 0 0 0 0 0 0 0 0 0 0 0 0 370 106 34 26 404 348 335 345 278 103 95 2 11 9 1 11 42
4 6 3 1 1 1 1 3 3 3 0 1 4 0 0 0 0 0 0 0 0 0 0 0 0 0 0 0 30 427 17 52 248 593 465 484 321 444 41 145 12 7 4 18 52
7 7 1 2 1 1 3 1 0 2 1 2 2 0 0 0 0 0 0 0 0 0 0 0 0 0 0 0 0 167 85 106 140 90 737 362 286 104 7 170 51 10 8 18 35
0 2 2 1 1 1 1 0 0 0 4 1 0 0 0 0 0 0 0 0 0 0 0 0 0 0 0 0 0 0 3 109 137 136 561 345 325 299 259 307 55 9 12 27 26
5 4 5 1 1 1 0 0 0 0 0 0 0 0 0 0 0 0 0 0 0 0 0 0 0 0 0 0 0 0 0 0 16 7 593 16 7 268 132 169 120 31 21 23 40
4 3 2 5 3 0 0 0 0 0 0 0 0 0 0 0 0 0 0 0 0 0 0 0 0 0 0 0 0 0 0 0 128 146 50 6 0 0 94 138 213 48 17 9 15
0 0 0 4 0 0 0 0 0 0 0 0 0 0 0 0 0 0 0 0 0 0 0 0 0 0 0 0 0 0 0 0 175 476 246 14 0 0 0 108 149 3 3 7 9
0 0 0 1 0 0 0 0 0 0 0 0 0 0 0 0 0 0 0 0 0 0 0 0 0 0 0 0 0 0 0 0 96 71 277 256 353 15 22 401 125 45 115 11 12
3 0 0 0 0 0 0 0 0 0 0 0 0 0 0 0 0 0 0 0 0 0 0 0 0 0 0 0 0 0 0 0 97 68 80 304 106 162 651 343 195 82 102 41 50
2 2 1 0 0 0 0 0 0 0 0 0 0 0 0 0 0 0 0 0 0 0 0 0 0 0 0 0 0 0 0 1 62 28 45 112 101 241 541 493 267 292 159 88 51
2 0 0 0 0 0 0 0 0 0 11 13 0 0 0 0 0 0 0 0 0 0 0 0 0 0 0 0 0 0 0 0 2 3 4 0 30 236 555 399 546 32 46 247 307
0 0 0 0 0 0 0 0 4 24 28 29 0 0 0 0 0 0 0 0 0 0 0 0 0 0 0 0 0 0 0 0 0 25 5 5 25 231 297 505 254 160 24 31 307
0 0 0 0 0 0 0 112 155 11 0 47 29 0 0 0 0 8 0 0 0 0 0 0 0 0 0 0 0 0 0 0 0 0 0 2 244 112 85 72 50 1 169 100 186
0 0 0 0 0 0 10 17 90 0 0 1 6 9 0 0 3 3 0 0 0 0 0 1 0 0 0 0 0 0 0 0 1 0 0 301 290 110 1 3 0 0 71 83 171
0 0 0 3 0 4 4 140 36 0 0 2 48 4 4 9 10 8 32 2 15 0 0 0 0 0 0 0 0 0 1 0 0 24 28 464 334 316 181 25 0 0 0 0 3
0 0 8 0 0 7 73 97 41 0 0 2 0 17 14 0 25 65 27 0 0 0 0 0 0 1 1 0 0 1 0 6 0 0 0 76 48 23 42 0 0 0 0 0 1
0 25 80 0 3 65 1 0 0 0 0 0 0 12 3 5 21 22 21 1 0 0 0 0 0 0 0 0 0 0 20 22 0 0 1 71 8 0 0 0 0 0 0 0 2
0 8 0 0 119 69 0 0 0 0 0 4 0 0 0 1 59 34 7 0 0 0 0 0 0 0 0 7 0 0 0 0 0 0 10 39 23 0 0 0 0 0 0 0 0
0 8 2 0 0 0 0 0 0 0 0 0 2 2 0 0 0 1 0 0 0 0 0 0 0 0 0 0 0 0 0 0 0 0 120 39 9 0 0 0 0 0 0 0 0
0 0 0 0 0 0 0 0 0 0 0 0 0 15 35 1 78 0 12 0 0 0 0 0 0 0 0 0 0 0 0 0 0 0 178 164 51 0 0 0 0 0 0 0 0
0 0 0 0 0 17 0 0 0 0 0 0 0 0 98 0 5 82 11 2 0 0 0 0 15 0 0 0 0 0 0 0 0 217 295 275 16 0 0 0 0 0 0 0 0
0 2 92 33 0 0 0 0 0 0 0 0 0 0 15 3 3 24 0 0 13 12 3 13 18 0 0 0 0 0 0 0 129 277 196 73 0 0 0 0 0 0 0 0 0

GFSSW_con_sbcape_084.txt.gz
CAPE
5 5 5 5 5 4 3 4 3 3 3 3 4 3 2 3 0 0 0 0 0 0 0 0 0 0 0 0 70 473 238 50 18 0 4 57 123 275 381 0 14 10 0 0 16
0 0 0 0 1 2 5 3 3 3 3 3 3 3 1 1 0 0 0 0 0 0 0 0 0 0 0 0 26 274 4 23 100 8 21 58 160 300 282 24 34 3 23 137 108
1 1 4 1 1 0 4 3 4 3 4 3 3 2 2 0 0 0 0 0 0 9 0 0 0 0 0 1 77 2 126 177 76 1 22 93 176 119 35 65 18 0 0 11 22
1 1 1 1 1 1 3 1 2 3 2 4 2 1 0 0 0 0 0 0 96 0 0 0 0 0 0 5 303 7 39 166 51 33 60 248 188 18 405 264 4 0 20 2 50
2 2 3 3 4 3 0 1 0 1 3 5 4 1 0 0 0 0 46 0 0 0 0 0 0 0 0 0 260 207 160 500 272 247 321 530 471 253 320 293 23 1 29 36 43
7 8 1 0 1 1 1 1 0 1 5 0 0 0 0 0 0 0 0 0 0 0 0 0 0 0 0 0 281 252 51 604 395 454 773 363 309 210 185 107 18 4 14 42 88
4 1 2 1 1 1 0 0 1 5 4 0 0 0 0 0 0 0 0 0 0 0 0 0 0 0 0 0 0 49 43 180 316 473 526 438 281 252 145 112 2 5 3 8 40
2 1 4 2 1 1 0 1 2 3 0 0 0 0 0 0 0 0 0 0 0 0 0 0 0 0 0 0 9 184 11 1 228 487 402 184 135 286 102 51 9 13 8 28 2
1 5 5 4 1 0 1 0 0 0 0 2 0 0 0 0 0 0 0 0 0 0 0 0 0 0 0 0 0 36 84 58 274 622 565 176 124 368 130 240 12 11 17 38 32
0 3 1 1 0 1 0 0 0 0 0 0 0 0 0 0 0 0 0 0 0 0 0 0 0 0 0 0 0 0 0 14 235 620 614 252 159 197 254 326 13 3 13 21 16
1 1 0 0 2 0 0 0 0 0 0 0 0 0 0 0 0 0 0 0 0 0 0 0 0 0 0 0 0 0 0 0 158 365 123 259 29 116 222 346 158 34 11 18 41
1 1 1 0 3 0 0 0 0 0 0 0 0 0 0 0 0 0 0 0 0 0 0 0 0 0 0 0 0 0 0 0 457 237 77 113 206 114 150 264 252 56 11 8 12
2 3 1 0 0 0 0 0 0 0 0 0 0 0 0 0 0 0 0 0 0 0 0 0 0 0 0 0 0 0 0 0 136 280 101 98 93 28 0 8 214 110 23 1 25
4 2 1 1 0 0 0 0 0 0 0 0 0 0 0 0 0 0 0 0 0 0 0 0 0 0 0 0 0 0 0 0 165 57 44 147 0 184 14 8 188 36 22 1 15
2 2 0 0 0 0 0 0 0 0 0 0 0 0 0 0 0 0 0 0 0 0 0 0 0 0 0 0 0 0 0 0 26 41 173 105 85 46 139 383 146 52 34 0 12
2 0 0 0 0 0 0 0 0 0 0 1 0 0 0 0 0 0 0 0 0 0 0 0 0 0 0 0 0 0 0 30 16 13 16 56 113 24 385 330 310 319 166 85 17
0 0 0 0 0 0 0 0 24 47 49 82 8 0 0 0 0 0 0 0 0 0 0 0 0 0 0 0 0 0 0 0 0 4 7 0 56 26 280 491 334 362 304 137 88
0 0 0 0 0 0 0 0 0 6 2 15 1 0 0 0 0 0 0 0 0 0 0 0 0 0 0 0 0 0 0 0 0 0 0 0 20 28 84 442 316 171 105 2 6
0 0 0 0 0 0 0 0 0 0 0 0 0 0 0 0 0 0 0 0 0 0 0 0 0 0 0 0 0 0 0 0 0 0 0 109 50 3 5 0 0 0 0 6 163
0 0 0 0 0 0 0 9 4 0 2 0 0 0 2 3 5 1 0 0 0 0 0 0 0 0 0 0 0 0 0 0 0 0 0 128 53 0 0 0 0 0 0 1 2
0 0 0 0 0 0 0 0 4 0 0 0 0 0 0 3 0 5 0 0 0 0 0 0 0 0 0 0 0 0 0 0 0 0 0 87 11 58 0 0 0 0 0 0 4
0 0 0 0 0 0 0 0 0 0 0 0 0 0 1 1 0 0 0 0 0 0 0 0 0 0 0 0 0 0 0 0 3 1 15 2 11 0 0 0 0 0 0 0 1
0 0 0 0 0 0 0 0 0 0 0 0 0 0 0 0 1 0 0 0 0 0 0 0 0 0 0 0 0 0 0 0 0 0 12 0 0 0 0 0 0 0 0 0 0
0 0 0 0 0 0 0 0 0 0 0 0 0 0 0 0 0 0 0 0 0 0 0 0 0 0 0 0 0 0 0 0 0 0 6 0 1 0 0 0 0 0 0 0 0
0 0 0 0 0 0 0 0 0 0 0 0 0 0 0 0 0 0 0 0 0 0 0 0 0 0 0 0 0 0 0 0 0 0 7 0 0 0 0 0 0 0 0 0 0
0 0 0 0 0 0 0 0 0 0 0 0 0 0 0 0 0 0 0 0 0 0 0 0 0 0 0 0 0 0 0 0 26 197 14 0 0 0 0 0 0 0 0 0 0
0 0 0 0 0 0 0 0 0 0 0 0 0 0 0 0 0 0 0 0 0 0 0 0 0 0 0 0 0 0 0 0 20 230 8 8 0 0 0 0 0 0 0 0 0

GFSSW_con_sbcape_087.txt.gz
CAPE
0 0 0 0 1 1 1 4 6 5 5 4 4 3 2 3 0 0 0 0 0 0 0 0 0 0 0 0 0 555 334 61 99 0 2 17 140 294 341 42 35 46 40 41 0
1 1 1 1 1 0 1 2 2 4 5 1 2 3 3 2 0 0 0 0 0 33 0 0 0 0 0 0 21 137 2 13 55 0 1 121 274 333 51 20 82 43 15 0 0
0 1 0 0 0 0 0 2 1 0 2 2 1 3 2 0 0 0 0 0 0 0 0 0 0 0 0 0 0 23 90 225 1 0 59 57 140 129 9 65 44 34 14 0 7
3 4 4 4 3 1 1 1 1 0 0 1 4 3 0 0 0 0 0 0 0 0 0 0 0 0 0 0 77 3 12 278 19 93 134 134 169 137 75 217 14 83 45 0 0
1 3 1 1 2 6 2 1 0 0 0 0 2 2 0 0 0 0 98 0 0 0 0 0 0 0 0 0 158 81 308 554 52 63 246 199 224 97 292 503 15 130 114 40 24
1 2 2 0 1 1 1 3 2 0 1 0 0 2 0 0 0 0 0 0 0 0 0 0 0 0 0 0 186 104 438 335 297 79 550 457 131 258 202 153 16 33 26 39 61
2 2 1 1 1 0 1 1 1 0 0 0 1 0 0 0 0 0 0 0 0 0 0 0 0 0 0 0 0 235 253 144 392 525 451 518 177 209 256 57 22 26 32 26 82
3 3 6 3 1 1 1 1 2 3 0 0 0 0 0 0 0 0 0 0 0 0 0 0 0 0 0 0 0 98 176 118 207 477 461 77 228 196 143 121 21 20 64 45 87
4 2 1 2 1 1 1 0 1 1 0 0 0 0 0 0 0 0 0 0 0 0 0 0 0 0 0 0 0 0 21 21 450 467 419 181 218 365 230 162 0 11 38 95 74
3 2 1 3 1 1 0 0 0 0 0 0 0 0 0 0 0 0 0 0 0 0 0 0 0 0 0 0 0 0 0 52 315 538 310 186 154 202 231 321 0 0 13 5 4
3 1 1 2 1 1 0 0 0 0 0 0 0 0 0 0 0 0 0 0 0 0 0 0 0 0 0 0 0 0 0 0 168 548 384 205 170 256 266 362 10 8 12 3 0
2 1 2 0 0 0 0 0 0 0 0 0 0 0 0 0 0 0 0 0 0 0 0 0 0 0 0 0 0 0 0 1 292 166 204 236 158 153 171 367 163 36 9 5 0
1 0 0 0 0 0 0 0 0 0 0 0 0 0 0 0 0 0 0 0 0 0 0 0 0 0 0 0 0 0 0 0 175 100 35 146 88 123 149 86 229 357 70 1 0
0 1 2 1 0 0 0 0 0 0 0 0 0 0 0 0 0 0 0 0 0 0 0 0 0 0 0 0 0 0 0 0 302 82 124 62 42 10 29 2 11 266 166 3 0
3 2 0 0 0 0 0 0 0 0 0 0 0 0 0 0 0 0 0 0 0 0 0 0 0 0 0 0 0 0 0 0 201 8 55 111 0 0 0 0 0 191 75 13 0
1 1 0 0 0 0 0 0 0 0 8 0 0 0 0 0 0 0 0 0 0 0 0 0 0 0 0 0 0 0 0 0 0 0 44 2 3 0 53 47 62 264 93 16 14
0 0 0 0 0 0 0 0 0 0 0 16 0 1 0 0 0 0 0 0 0 0 0 0 0 0 0 0 0 0 0 0 35 23 24 0 11 0 27 195 250 201 111 24 27
0 0 0 0 0 0 0 0 0 0 0 0 0 0 0 0 0 0 0 0 0 0 0 0 0 0 0 0 0 0 0 0 2 0 0 1 1 0 0 109 177 134 112 40 135
0 0 0 0 0 0 0 0 0 0 0 0 0 0 0 0 0 0 0 0 0 0 0 0 0 0 0 0 0 0 0 0 0 0 0 3 0 0 0 0 0 0 0 1 19
0 0 0 0 0 0 0 0 0 0 0 0 0 0 1 0 0 0 0 0 0 0 0 0 0 0 0 0 0 0 0 0 0 0 0 22 2 0 12 0 1 2 1 3 1
0 0 0 0 0 0 0 0 0 0 0 0 0 1 0 0 1 0 0 0 0 0 0 0 0 0 0 0 0 0 0 0 0 0 0 70 7 0 0 0 0 1 0 2 3
0 0 0 0 0 0 0 0 0 0 0 0 0 0 0 0 5 0 0 0 0 0 0 0 0 0 0 0 0 0 0 0 0 0 0 0 0 0 0 0 0 0 0 1 2
0 0 0 0 0 0 0 0 0 0 0 0 0 0 0 0 2 0 0 0 0 0 0 0 0 0 0 0 0 0 0 0 0 0 0 0 0 0 0 0 0 0 0 0 1
0 0 0 0 0 0 0 0 0 0 0 0 0 0 0 0 0 0 0 0 0 0 0 0 0 0 0 0 0 0 0 0 0 0 0 0 0 4 0 0 0 0 0 0 0
0 0 0 0 0 0 0 0 0 0 0 0 0 0 0 0 0 0 0 0 0 0 0 0 0 0 0 0 0 0 0 0 0 0 0 0 0 0 0 0 0 0 0 0 0
0 0 0 0 0 0 0 0 0 0 0 0 0 0 0 0 0 0 0 0 0 0 0 0 0 0 0 0 0 0 0 0 0 0 0 0 0 0 0 0 0 0 0 0 0
0 0 0 0 0 0 0 0 0 0 0 0 0 0 0 0 0 0 0 0 0 0 0 0 0 0 0 0 4 0 0 0 0 0 0 0 0 0 0 0 0 0 0 0 0

GFSSW_con_sbcape_090.txt.gz
CAPE
1 1 1 0 1 1 1 0 1 1 0 4 1 4 3 3 0 0 0 0 0 0 0 0 0 0 0 0 0 362 200 99 53 5 21 37 101 203 160 14 10 33 42 68 49
2 2 1 1 0 0 0 1 1 0 1 0 2 3 4 4 0 0 0 0 0 19 0 0 0 0 0 0 4 40 1 13 63 0 28 102 112 201 42 10 26 23 14 37 29
5 3 2 2 1 1 0 0 0 2 1 0 2 2 3 1 0 0 0 0 0 39 0 0 0 0 0 0 0 61 41 208 1 0 94 353 283 91 21 17 1 20 0 8 0
2 1 1 2 5 1 1 0 0 0 2 1 2 2 1 0 0 0 0 0 0 0 0 0 0 0 0 0 10 0 55 224 6 64 210 182 293 32 128 71 0 8 28 33 0
1 2 1 1 2 4 4 0 0 0 0 1 1 2 0 0 0 0 168 0 0 0 0 0 0 0 0 0 37 1 291 111 151 98 156 258 178 54 41 24 17 16 37 15 0
1 1 1 1 1 1 1 0 0 0 0 1 2 1 0 0 0 0 0 0 0 0 0 0 0 0 0 0 52 124 268 157 167 279 343 294 216 30 33 65 44 35 30 19 10
4 1 4 1 2 1 1 0 0 0 0 0 2 0 0 0 0 0 0 0 0 0 0 0 0 0 0 0 0 62 216 363 145 249 382 308 211 174 161 79 86 41 29 40 31
2 2 2 0 3 3 0 1 4 1 0 0 1 0 0 0 0 0 0 0 0 0 0 0 0 0 0 0 0 137 85 150 395 418 343 185 93 355 237 34 66 80 82 75 67
3 2 1 1 1 0 1 2 2 1 0 1 0 0 0 0 0 0 0 0 0 0 0 0 0 0 0 0 0 0 1 27 329 424 415 245 85 480 82 40 28 46 88 73 102
1 0 1 1 0 0 2 0 0 0 0 0 0 0 0 0 0 0 0 0 0 0 0 0 0 0 0 0 0 0 0 0 188 139 456 382 86 212 210 31 25 21 62 78 72
2 0 1 1 0 0 0 0 0 0 0 0 0 0 0 0 0 0 0 0 0 0 0 0 0 0 0 0 0 0 0 0 139 281 468 356 78 142 80 171 2 27 47 97 94
0 0 0 0 0 0 0 0 0 0 0 0 0 0 0 0 0 0 0 0 0 0 0 0 0 0 0 0 0 0 0 118 266 575 152 5 103 102 174 287 23 0 0 3 50
1 0 0 0 0 0 0 0 0 0 0 0 0 0 0 0 0 0 0 0 0 0 0 0 0 0 0 0 0 0 0 0 139 125 130 94 93 154 102 177 228 167 0 0 0
3 0 1 1 0 0 0 0 0 0 0 0 0 0 0 0 0 0 0 0 0 0 0 0 0 0 0 0 0 0 0 0 269 143 64 69 51 67 82 97 46 233 82 0 0
2 4 0 0 0 0 0 0 0 0 0 0 0 0 0 0 0 0 0 0 0 0 0 0 0 0 0 0 0 0 0 0 180 30 73 57 1 0 55 100 71 22 222 0 0
2 2 0 0 0 0 0 0 0 0 0 0 0 0 0 0 0 0 0 0 0 0 0 0 0 0 0 0 0 0 0 0 0 0 32 18 9 0 7 14 50 35 86 4 0
0 0 0 0 0 0 0 0 0 0 0 0 0 0 0 0 0 0 0 0 0 0 0 0 0 0 0 0 0 0 0 0 0 3 0 0 7 0 0 1 0 11 89 26 0
0 0 0 0 0 0 0 0 0 0 0 0 0 0 0 0 0 0 0 0 0 0 0 0 0 0 0 0 0 0 0 0 0 0 3 0 0 0 0 0 105 112 46 5 5
0 0 0 0 0 0 0 0 0 0 0 0 0 0 0 0 0 0 0 0 0 0 0 0 0 0 0 0 0 0 0 0 0 0 0 0 0 0 0 0 0 5 5 9 54
0 0 0 0 0 0 0 0 0 0 0 0 0 0 0 0 0 0 0 0 0 0 0 0 0 0 0 0 0 0 0 0 0 0 0 22 0 0 15 1 4 3 2 3 3
0 0 0 0 0 0 0 0 0 0 0 0 0 0 0 10 0 0 0 0 0 0 0 0 0 0 0 0 0 0 0 0 0 0 0 15 0 0 0 0 1 1 3 2 3
0 0 0 0 0 0 0 0 0 0 0 0 0 0 0 0 0 0 0 0 0 0 0 0 0 0 0 0 0 0 0 0 0 0 0 0 0 0 0 0 0 0 5 2 2
0 0 0 0 0 0 0 0 0 0 0 0 0 0 0 0 0 0 0 0 0 0 0 0 0 0 0 0 0 0 0 0 0 0 0 1 0 0 0 0 0 0 1 2 1
0 0 0 0 0 0 0 0 0 0 0 0 0 0 0 0 0 0 0 0 0 0 0 0 0 0 0 0 0 0 0 0 0 0 0 0 0 2 0 0 0 0 0 0 0
0 0 0 0 0 0 0 0 0 0 0 0 0 0 0 0 0 0 0 0 0 0 0 0 0 0 0 0 0 0 0 0 0 0 0 0 0 0 0 0 0 0 0 0 0
0 0 0 0 0 0 0 0 0 0 0 0 0 0 0 0 0 0 0 0 0 0 0 0 0 0 0 0 0 0 0 0 7 0 0 0 0 0 0 0 0 0 0 0 0
0 0 0 0 0 0 0 0 0 0 0 0 0 0 0 0 0 0 0 0 0 0 0 0 0 0 0 0 2 0 0 0 0 0 0 0 0 0 0 0 0 0 0 0 0

GFSSW_con_sbcape_093.txt.gz
CAPE
1 1 0 1 0 0 1 1 0 0 1 1 1 2 2 3 0 0 0 0 0 0 0 0 0 0 0 1 0 268 428 232 30 21 110 96 132 123 60 3 48 76 1 72 314
4 1 2 1 0 0 0 0 1 1 0 1 1 3 2 4 0 0 0 0 0 0 0 0 0 0 0 0 0 120 343 117 52 25 87 175 120 50 32 85 109 108 125 208 254
3 4 3 4 2 1 1 0 1 0 0 3 0 3 1 4 0 0 0 0 0 1 0 0 0 0 0 0 0 143 247 295 40 44 163 130 118 30 32 16 24 86 107 190 195
3 2 1 3 1 1 1 1 0 1 1 1 0 1 0 0 0 0 0 0 0 0 0 0 0 0 0 0 6 2 124 235 21 175 273 111 96 0 0 41 25 24 129 171 171
1 2 0 1 2 1 1 0 1 1 0 0 2 0 0 0 0 0 0 0 0 0 0 0 0 0 0 0 11 50 305 106 137 261 135 169 42 31 90 8 28 80 133 103 30
1 0 1 1 0 1 2 1 1 0 0 2 1 0 0 0 0 0 0 0 0 0 0 0 0 0 0 0 33 194 363 205 227 260 146 53 44 32 53 9 34 59 44 55 58
1 1 0 1 4 1 0 2 1 2 0 0 0 0 0 0 0 0 0 0 0 0 0 0 0 0 0 0 0 398 359 348 309 319 217 190 74 47 78 31 22 16 52 72 104
0 1 1 2 0 1 2 1 0 0 0 1 0 0 0 0 0 0 0 0 0 0 0 0 0 0 0 0 14 291 413 384 315 273 210 145 152 162 130 75 60 60 62 81 123
3 0 0 0 1 2 1 2 1 0 1 1 0 0 0 0 0 0 0 0 0 0 0 0 0 0 0 0 93 11 318 251 322 318 257 157 55 310 126 165 93 110 108 95 175
0 1 2 1 0 0 0 0 0 1 0 0 0 0 0 0 0 0 0 0 0 0 0 0 0 0 0 0 0 98 95 197 343 379 321 130 260 238 156 211 165 142 146 165 143
2 0 0 0 0 0 0 0 0 0 0 0 0 0 0 0 0 0 0 0 0 0 0 0 0 0 0 0 0 52 33 0 68 330 303 205 319 214 127 177 178 188 185 175 163
2 0 0 2 0 0 0 0 0 0 0 0 0 0 0 0 0 0 0 0 0 0 0 0 0 0 0 0 0 0 0 1 411 369 252 167 123 91 275 159 204 217 230 184 264
3 0 0 0 0 0 0 0 0 0 0 0 0 0 0 0 0 0 0 0 0 0 0 0 0 0 0 0 0 0 0 343 250 181 23 9 26 74 175 508 193 204 218 248 265
2 0 0 0 0 0 0 0 0 0 0 0 0 0 0 0 0 0 0 0 0 0 0 0 0 0 0 0 0 0 0 1 466 251 173 74 8 19 144 314 414 154 138 180 263
2 1 0 1 0 0 0 0 0 0 0 0 0 0 0 0 0 0 0 0 0 0 0 0 0 0 0 0 0 0 0 0 383 181 242 50 13 15 173 270 534 513 193 78 97
3 0 0 0 0 0 0 0 0 0 0 0 0 0 0 0 0 0 0 0 0 0 0 0 0 0 0 0 0 0 0 0 90 127 17 149 77 0 253 424 404 437 439 197 33
0 0 0 0 0 0 0 0 0 0 0 0 0 0 0 0 0 0 0 0 0 0 0 0 0 0 0 0 0 0 0 0 1 15 0 12 215 54 192 100 170 202 443 480 69
0 0 0 0 0 0 0 0 0 0 0 0 0 0 0 0 0 0 0 0 0 0 0 0 0 0 0 0 0 0 0 0 0 5 0 25 10 45 44 36 230 356 343 529 257
0 0 0 0 0 0 0 0 0 0 0 0 0 1 0 0 0 0 0 0 0 0 0 0 0 0 0 0 0 0 0 0 0 0 0 55 107 98 118 188 308 327 281 463 316
0 0 0 0 0 0 0 0 0 0 0 0 8 0 33 1 15 7 0 0 0 0 0 0 0 0 0 0 0 0 0 0 0 6 6 101 120 217 286 168 125 211 131 203 278
0 0 0 0 0 0 0 0 0 0 0 0 0 28 10 88 32 40 0 0 0 0 0 0 0 0 0 0 0 0 0 0 0 0 3 14 43 177 356 283 90 31 47 17 26
0 0 0 0 0 0 0 0 0 0 0 0 0 2 10 6 85 0 0 0 0 0 0 0 0 0 0 0 0 0 0 0 0 0 22 29 27 0 36 222 105 40 54 25 4
0 0 0 0 0 0 0 0 0 0 0 0 0 0 0 0 163 14 0 0 0 0 0 0 0 0 0 0 0 0 0 0 0 8 57 0 16 0 1 5 1 2 4 3 4
0 0 0 0 0 0 0 0 0 0 0 0 0 0 0 4 0 16 1 0 0 0 0 0 0 13 10 0 0 0 0 0 0 0 32 10 44 6 3 2 0 0 2 3 2
0 0 0 0 0 0 0 0 0 0 0 0 6 0 0 40 0 1 0 0 0 0 0 1 0 0 0 0 0 0 21 38 0 0 0 1 21 86 60 14 0 1 0 0 0
0 0 0 0 0 0 0 0 0 0 0 3 0 0 0 40 0 0 0 0 0 0 0 0 6 0 0 0 0 0 3 156 78 32 23 23 34 0 29 0 0 1 0 0 0
0 0 0 0 0 0 0 0 0 0 0 0 0 0 0 0 0 0 0 0 0 0 0 0 0 1 6 0 21 21 0 0 0 27 40 39 27 0 0 0 0 0 0 0 0

GFSSW_con_sbcape_096.txt.gz
CAPE
2 2 3 0 1 1 2 1 1 1 1 2 1 2 2 0 0 0 0 0 0 0 0 0 0 0 42 64 90 317 719 214 209 8 254 323 508 544 398 402 259 237 0 156 451
1 4 4 6 6 1 1 1 2 2 2 2 1 2 2 0 0 0 0 0 0 0 0 0 0 0 14 59 98 461 735 278 489 65 486 408 525 452 377 390 274 0 61 223 372
4 2 2 4 1 2 2 1 1 1 1 2 1 2 0 0 0 0 0 0 0 0 0 0 0 0 108 30 212 524 432 609 280 192 376 440 479 282 393 387 298 114 171 259 330
4 5 2 2 3 2 1 1 1 2 0 2 1 0 0 0 0 0 0 0 0 0 0 0 0 0 173 52 149 256 479 422 269 454 332 432 352 206 246 100 158 90 152 223 277
1 3 2 1 1 1 1 1 1 1 1 1 1 0 0 0 0 0 0 0 0 0 0 0 0 0 509 110 67 422 474 319 387 553 203 300 127 96 125 44 92 1 121 185 181
1 1 3 6 2 1 1 1 1 0 2 2 0 0 0 0 0 0 0 0 0 0 0 0 0 0 198 66 42 463 373 358 418 417 138 123 78 103 107 64 15 42 113 85 72
1 1 1 1 0 1 1 1 0 1 3 2 1 0 0 0 0 0 0 0 0 0 0 0 0 39 0 0 0 284 456 352 592 326 187 135 120 214 84 45 53 62 49 48 44
1 1 2 1 1 1 1 0 1 3 1 0 0 0 0 0 0 0 0 0 0 0 0 0 1 1 0 0 294 660 633 560 470 569 337 53 207 102 80 45 13 29 81 92 94
1 2 1 1 0 0 1 0 1 1 1 0 0 0 0 0 0 0 0 0 0 0 0 0 0 0 0 11 608 253 544 527 581 300 287 117 102 548 90 61 36 67 104 149 95
2 3 1 2 0 0 0 0 0 0 0 0 0 0 0 0 0 0 0 0 0 0 0 0 0 11 0 12 391 120 477 787 774 405 39 165 3 371 134 100 106 84 124 166 133
2 3 1 1 0 0 0 0 0 0 0 0 0 0 0 0 0 0 0 0 0 0 0 0 0 93 2 0 0 77 58 494 614 573 130 145 108 188 168 159 119 112 148 153 173
2 1 0 1 0 0 0 0 0 0 0 0 0 0 0 0 0 0 0 0 0 0 0 0 0 24 28 0 0 68 332 373 546 712 356 122 182 225 260 184 300 93 112 143 188
2 0 0 0 1 0 0 0 0 0 0 0 0 0 0 0 0 0 0 0 0 0 0 0 0 9 0 0 0 8 230 133 540 322 209 197 101 54 66 171 248 188 156 210 288
3 0 0 0 0 0 0 0 0 0 0 0 0 0 0 0 0 0 0 0 0 0 0 0 0 0 0 1 0 1 0 247 709 335 155 59 44 11 1 99 290 272 339 205 399
4 0 0 1 0 0 0 0 0 0 5 0 0 0 0 0 0 0 0 0 0 0 0 0 0 0 0 3 0 2 0 30 209 283 213 178 87 14 17 17 496 719 373 232 272
3 0 0 0 0 0 0 0 0 1 1 0 0 0 0 0 0 0 0 0 0 0 0 0 0 0 0 0 0 0 0 0 164 256 263 135 43 2 51 70 124 692 705 486 335
0 0 1 0 0 0 0 0 3 4 0 0 0 0 4 8 0 0 0 0 0 0 0 0 0 0 0 0 0 0 2 2 33 106 94 244 103 21 8 304 239 647 722 701 426
0 0 0 0 0 0 0 0 0 0 0 0 0 0 0 1 25 7 0 0 0 0 0 0 0 0 0 0 0 0 0 44 47 119 67 16 157 137 371 357 407 727 682 877 824
0 0 0 0 0 0 0 0 0 0 0 0 9 14 7 0 5 14 16 14 3 0 0 0 0 0 0 0 0 0 0 0 31 34 83 68 47 317 327 489 729 855 685 771 1059
0 0 0 0 0 0 0 0 0 0 0 0 34 38 44 8 5 49 32 50 58 2 4 4 0 0 0 0 0 0 0 45 3 93 67 119 102 44 573 647 619 935 907 822 1024
0 0 0 0 0 0 9 0 0 0 0 0 2 107 92 67 36 65 62 17 8 9 0 13 0 1 0 0 0 0 0 0 37 47 82 87 124 625 712 884 740 611 515 762 1048
0 2 0 0 3 0 1 0 0 0 0 0 1 94 203 176 83 107 90 75 0 0 0 3 13 50 0 0 0 0 0 0 0 43 38 85 325 480 791 923 778 375 366 302 364
0 0 0 0 10 0 0 0 0 0 0 0 34 113 222 266 296 84 70 0 0 1 29 28 5 78 18 0 0 0 0 0 4 12 68 87 154 599 738 830 663 616 486 238 168
0 0 0 0 0 0 0 0 0 0 0 0 103 99 234 304 331 170 73 0 0 8 0 1 64 114 83 5 11 0 0 0 0 7 24 74 288 728 763 703 444 390 183 66 105
0 0 0 0 0 0 0 0 0 0 0 0 175 104 190 320 209 132 101 22 0 8 12 42 127 133 55 14 3 5 0 0 0 3 46 79 81 527 881 862 605 217 178 104 176
3 0 0 0 0 0 0 0 0 0 0 0 22 22 125 303 302 14 13 7 13 0 30 104 67 91 76 44 23 100 120 37 6 0 18 47 74 157 804 828 654 383 27 164 162
0 4 55 0 0 0 0 0 0 0 0 23 6 1 14 3 0 3 0 0 0 51 106 19 141 59 106 43 104 90 58 62 83 99 138 57 406 361 539 490 499 452 180 185 165

GFSSW_con_sbcape_099.txt.gz
CAPE
3 2 1 3 2 0 1 1 1 3 2 1 1 0 1 0 0 0 0 0 0 0 0 0 0 0 20 600 619 550 751 302 112 147 240 307 284 262 386 387 363 329 83 340 320
2 5 6 2 5 5 4 2 1 2 2 3 2 1 1 0 0 0 0 0 0 0 0 0 0 86 343 587 440 554 970 258 415 160 421 480 399 338 383 304 350 35 102 270 322
1 1 2 1 4 3 4 3 1 1 1 2 1 1 0 0 0 0 0 0 0 0 0 0 0 68 388 353 229 544 625 643 597 540 559 522 385 476 245 252 75 104 181 250 318
4 4 1 1 1 3 3 3 2 2 2 2 1 1 0 0 0 0 0 0 0 0 0 0 0 85 348 524 238 319 503 521 469 439 594 506 567 340 158 249 146 155 174 204 228
2 1 2 2 1 1 1 2 1 2 1 1 0 0 0 0 0 0 0 0 0 0 0 0 0 0 399 651 393 388 463 431 383 390 537 419 227 145 249 139 163 106 166 190 168
2 3 2 1 1 2 2 2 1 0 0 0 0 0 0 0 0 0 0 0 0 0 0 0 0 0 107 610 479 516 528 385 459 630 650 310 143 92 80 37 107 106 150 174 142
1 1 2 1 2 2 1 0 0 0 1 1 0 0 0 0 0 0 0 0 0 0 0 0 0 0 289 343 119 555 442 401 451 544 187 120 138 105 46 72 76 115 145 148 110
2 2 2 1 2 1 2 0 0 0 1 0 0 0 0 0 0 0 0 0 0 0 0 0 0 0 213 0 379 1004 409 367 435 441 296 243 233 119 47 72 97 117 115 90 83
0 0 1 2 2 2 1 0 0 1 0 0 0 0 0 0 0 0 0 0 0 0 0 0 0 8 63 45 412 821 327 414 456 403 255 217 294 315 84 75 102 107 87 92 92
1 2 1 1 2 0 0 0 0 0 0 0 0 0 0 0 0 0 0 0 0 0 0 0 0 34 52 90 398 325 88 557 695 456 267 10 0 140 129 85 82 100 120 110 64
0 1 2 2 2 0 0 0 0 0 0 0 0 0 0 0 0 0 0 0 0 0 0 0 0 3 51 50 30 33 4 3 574 97 29 102 18 107 108 32 181 115 105 118 61
0 3 2 1 2 0 0 0 0 0 0 0 0 0 0 0 0 0 0 0 0 0 0 0 0 0 84 50 16 107 113 52 109 167 14 78 38 110 79 8 39 224 122 128 117
0 2 1 2 0 0 0 0 0 0 0 0 0 0 0 0 0 0 0 0 0 0 0 0 0 0 36 43 0 31 219 12 11 210 10 49 74 149 124 59 55 257 254 117 136
1 2 1 0 0 0 0 0 0 0 6 0 1 0 0 0 0 0 0 0 0 0 0 0 0 0 83 32 0 22 124 27 32 402 546 92 82 173 58 50 78 354 125 112 102
1 1 0 1 0 0 0 0 0 0 18 0 3 0 0 0 0 0 0 0 0 0 0 0 0 0 0 0 17 2 1 370 242 247 282 196 93 145 101 35 4 413 192 77 163
1 1 0 0 0 0 0 0 0 1 8 20 2 7 0 0 0 0 0 0 0 0 0 0 0 0 0 0 20 39 0 22 338 385 141 105 87 125 42 26 35 76 160 244 197
0 0 0 0 0 0 0 0 36 50 0 21 26 5 12 16 23 0 0 0 0 0 0 0 0 0 0 0 5 53 5 64 100 149 165 59 75 36 88 14 70 124 399 310 111
0 0 0 0 0 0 0 40 86 0 24 0 2 6 2 28 27 4 1 0 0 0 6 0 0 0 0 1 0 12 42 99 119 86 101 146 130 58 39 32 53 235 493 771 540
0 0 0 0 0 0 3 142 63 9 0 0 33 30 30 2 0 37 42 15 5 4 3 5 0 0 0 0 1 0 77 79 20 60 23 53 314 311 129 113 302 507 512 724 747
0 0 0 0 0 0 53 0 8 0 0 0 57 86 76 26 0 46 56 37 38 10 1 46 39 5 0 0 0 0 20 113 85 101 68 76 133 150 456 526 572 616 930 979 872
0 0 0 0 0 3 86 37 0 0 0 0 27 67 123 22 54 46 26 53 33 45 22 40 38 24 0 0 0 0 0 34 93 88 89 158 265 336 747 916 983 1055 1125 994 1071
0 11 0 0 4 25 77 0 0 0 0 0 0 50 133 66 111 71 26 13 0 8 19 14 43 19 5 0 0 0 0 0 26 105 69 31 336 458 844 1087 1264 1266 1283 1511 1681
0 48 0 0 56 57 7 0 0 0 0 0 55 61 172 161 218 148 6 1 0 4 78 62 31 66 42 20 0 0 0 0 4 19 78 93 437 644 1216 1002 1092 990 781 970 891
0 5 0 0 11 0 1 5 3 0 0 0 37 116 213 304 280 235 154 24 8 0 120 14 55 40 125 49 15 0 0 0 4 30 7 47 739 966 1179 1129 988 817 555 398 366
0 33 13 7 1 0 0 0 0 0 0 0 84 121 246 390 385 341 213 120 28 84 123 47 104 114 55 59 54 9 0 2 4 33 81 76 263 827 1164 1104 1029 749 509 347 398
59 23 0 3 0 0 0 4 0 0 0 12 10 100 135 372 504 184 220 221 172 41 153 210 223 156 128 15 39 47 42 20 2 0 14 40 295 33 1002 1299 1082 884 815 748 496
0 36 86 2 0 1 33 0 0 0 0 3 28 63 148 188 113 203 82 89 199 23 48 124 155 251 101 92 63 103 116 72 55 68 65 212 468 341 852 1145 1198 931 718 643 513

GFSSW_con_sbcape_102.txt.gz
CAPE
1 5 3 5 1 5 1 1 1 2 2 2 1 1 0 1 0 0 0 0 0 0 0 0 0 0 0 26 135 545 107 81 46 98 67 18 2 54 73 97 90 170 145 194 61
1 1 1 1 1 2 2 3 2 2 2 2 1 1 0 0 0 0 0 0 0 0 0 0 0 0 2 162 429 641 345 91 11 76 75 122 57 148 212 250 162 52 120 82 116
1 2 2 2 1 4 2 2 2 2 1 1 0 0 0 0 0 0 0 0 0 0 0 0 0 70 94 217 268 315 158 290 249 223 77 305 128 257 181 255 144 31 29 63 81
2 3 2 4 3 2 2 2 1 1 1 0 0 0 0 0 0 0 0 0 0 0 0 0 0 17 173 341 292 201 377 563 508 482 167 253 311 171 196 117 19 111 46 22 57
4 3 2 2 3 2 1 1 1 0 1 0 1 0 0 0 0 0 20 0 0 0 0 0 0 0 89 249 382 217 301 405 174 322 248 375 463 327 168 72 13 114 93 44 77
2 2 1 2 2 1 1 0 0 0 1 0 0 0 0 0 0 0 0 0 0 0 0 0 0 0 16 113 337 496 414 388 395 181 416 309 107 144 106 51 9 107 80 60 67
0 0 1 2 1 1 1 1 1 1 0 1 1 0 0 0 0 0 0 0 0 0 0 0 0 0 0 43 479 273 520 449 622 661 438 122 104 125 31 47 34 64 73 84 72
1 0 1 1 1 0 0 0 0 1 0 1 0 0 0 0 0 0 0 0 0 0 0 0 0 0 0 23 123 558 534 515 394 491 111 98 170 159 32 49 62 73 90 100 88
1 1 3 1 1 0 0 0 0 0 0 0 0 0 0 0 0 0 0 0 0 0 0 0 0 0 0 27 307 771 653 525 456 396 391 317 208 172 60 47 78 101 98 97 113
0 0 0 0 0 0 0 0 0 0 0 0 0 0 0 0 0 0 0 0 0 0 0 0 0 0 0 70 262 314 434 463 431 248 145 154 34 113 175 108 111 96 71 88 70
0 0 1 0 0 0 0 0 0 0 0 0 0 0 0 0 0 0 0 0 0 0 0 0 0 0 13 92 150 0 249 344 0 20 66 62 9 25 141 171 138 59 70 89 71
0 0 1 0 0 0 0 0 0 0 0 0 0 0 0 0 0 0 0 0 0 0 0 0 0 0 2 130 385 74 54 95 0 0 56 43 26 23 90 69 54 106 17 110 69
0 0 0 0 0 0 0 0 0 0 0 0 0 0 0 0 0 0 0 0 0 0 0 0 0 0 0 10 36 148 130 3 1 0 9 55 77 188 117 84 48 32 30 133 97
0 2 0 0 0 0 0 0 0 0 0 0 0 0 0 0 0 0 0 0 0 0 0 0 0 0 0 4 82 268 54 2 3 0 49 108 61 115 33 48 10 14 26 125 75
0 2 0 0 0 0 0 0 0 0 28 0 0 0 0 0 0 0 0 0 0 0 0 0 0 0 0 10 145 5 152 102 30 0 25 83 83 44 127 27 3 8 36 108 107
0 0 1 0 0 0 0 0 0 0 32 13 0 0 0 0 1 1 0 0 0 0 0 0 0 0 0 3 8 3 131 105 17 3 98 137 159 130 125 86 62 7 56 143 122
0 0 0 0 0 0 0 0 7 55 2 8 18 7 6 0 15 0 0 0 0 0 0 0 0 0 0 0 1 89 81 128 176 101 132 117 107 204 117 80 56 15 96 124 206
0 0 0 0 0 0 0 0 50 25 15 2 0 4 0 32 28 3 0 0 0 0 0 0 0 0 0 0 1 88 152 14 71 107 205 117 112 258 92 8 0 64 108 139 140
0 0 0 0 0 0 0 69 114 8 0 0 9 38 21 13 5 18 0 0 0 0 0 19 0 0 0 0 0 58 10 27 17 13 121 122 148 246 9 1 7 59 117 42 30
0 0 0 0 0 0 0 21 50 0 0 0 3 29 9 25 16 10 15 35 12 3 0 5 1 0 0 0 0 5 23 7 114 54 79 104 65 144 131 104 110 141 108 0 12
0 0 0 0 0 0 14 26 0 0 0 0 0 5 20 1 55 34 44 7 18 19 4 0 11 12 10 0 0 0 0 0 20 198 27 137 179 286 435 254 333 501 484 314 742
0 0 1 0 0 3 34 0 0 0 0 0 0 0 26 53 45 25 124 30 0 2 11 8 32 21 12 1 0 0 1 2 23 33 31 37 224 185 204 599 611 1103 865 1584 936
0 3 0 0 0 63 9 0 0 0 0 0 0 54 11 97 46 46 92 20 4 0 0 0 0 0 17 9 0 0 0 0 0 0 53 53 321 249 9 1181 1565 1769 1842 1523 2145
0 51 8 0 0 32 38 0 2 0 0 0 0 6 16 101 117 0 19 9 1 0 314 0 0 0 34 68 38 1 0 0 0 1 0 0 457 908 1018 1479 1069 1268 1461 1128 1294
0 48 7 0 0 5 0 4 0 0 0 0 0 26 80 125 59 49 32 67 2 1 1 0 20 53 22 0 17 6 0 0 1 0 29 141 610 479 702 1213 1047 736 726 741 624
1 72 90 11 0 0 0 0 0 0 0 1 0 16 39 102 168 41 23 5 256 117 54 52 122 145 53 14 21 15 12 0 0 1 22 102 740 354 209 304 746 582 440 519 497
7 11 53 11 4 0 10 4 0 0 0 0 0 13 109 217 68 131 18 99 257 158 124 179 254 192 300 231 125 49 122 94 11 0 14 818 671 125 0 56 1131 798 691 719 469

GFSSW_con_sbcape_105.txt.gz
CAPE
0 0 1 1 2 1 3 3 3 1 2 1 1 1 2 3 0 0 0 0 0 0 0 0 0 0 0 0 139 325 0 30 68 21 0 108 116 212 50 21 77 81 31 18 52
2 4 5 4 4 2 3 3 2 1 2 1 1 1 2 0 0 0 0 0 0 0 0 0 0 0 0 39 350 262 80 19 40 78 126 20 209 202 137 63 108 40 4 27 97
0 3 3 3 4 2 1 1 2 2 3 3 2 1 1 0 0 0 0 0 0 0 0 0 0 0 0 236 292 237 30 70 0 1 219 121 207 213 75 33 75 7 0 24 19
4 3 1 1 2 2 2 1 1 1 1 2 2 1 0 0 0 0 0 0 0 0 0 0 0 0 65 204 275 148 121 49 51 216 250 219 251 170 143 65 8 10 0 18 14
3 3 3 3 2 1 1 2 1 0 1 1 1 0 0 0 0 0 1 0 0 0 0 0 0 0 23 356 181 363 356 48 61 10 61 195 293 217 177 33 3 23 2 3 9
0 2 2 2 3 2 2 2 0 1 1 1 1 0 0 0 0 0 0 0 0 0 0 0 0 0 1 83 95 376 209 434 51 393 234 274 174 122 91 44 16 15 0 1 12
1 2 3 2 2 2 1 1 0 1 1 1 1 0 0 0 0 0 0 0 0 0 0 0 0 0 0 0 233 325 308 507 264 379 465 110 191 102 84 57 16 0 0 1 9
0 1 2 3 2 2 0 0 0 0 0 1 1 0 0 0 0 0 0 0 0 0 0 0 0 0 0 8 45 261 393 221 486 268 266 170 108 136 45 19 19 23 12 22 17
0 0 1 2 1 0 0 0 0 0 0 0 0 0 0 0 0 0 0 0 0 0 0 0 0 0 0 0 0 455 206 172 382 414 252 206 155 191 82 19 31 32 32 16 16
0 0 2 3 0 0 0 0 0 0 0 0 0 0 0 0 0 0 0 0 0 0 0 0 0 0 0 0 0 111 104 281 163 19 10 223 142 210 278 28 41 47 38 24 3
0 0 0 0 0 0 0 0 0 0 0 0 0 0 0 0 0 0 0 0 0 0 0 0 0 0 0 0 0 157 225 4 19 5 2 117 128 101 96 111 98 62 35 13 1
0 0 1 0 0 0 0 0 0 0 0 0 0 0 0 0 0 0 0 0 0 0 0 0 0 0 0 77 184 48 5 27 13 0 0 5 108 49 49 63 58 48 71 30 8
0 0 1 0 0 0 0 0 0 0 0 0 0 0 0 0 0 0 0 0 0 0 0 0 0 0 0 191 140 153 143 41 27 6 0 8 37 36 54 75 73 55 28 69 25
0 0 0 1 0 0 0 0 0 0 0 0 0 0 0 0 0 0 0 0 0 0 0 0 0 0 0 77 150 188 157 25 14 0 0 20 21 71 44 26 39 33 15 68 22
0 0 0 0 0 0 0 0 0 0 0 0 0 0 0 0 0 0 0 0 0 0 0 0 0 0 0 0 249 282 137 47 2 0 0 41 95 55 13 12 19 27 7 40 36
0 0 0 0 0 0 0 0 0 0 7 0 0 0 0 0 0 0 0 0 0 0 0 0 0 0 0 24 246 208 105 45 30 12 0 31 61 76 5 0 0 0 1 17 83
0 0 0 0 0 0 0 0 0 10 47 0 0 1 0 0 0 0 0 0 0 0 0 0 0 0 0 77 311 215 140 58 27 0 0 0 24 26 79 82 2 0 7 23 70
0 0 0 0 0 0 0 0 4 78 33 0 0 0 0 15 13 0 0 0 0 0 0 0 0 0 0 0 156 258 105 20 29 52 35 79 77 40 37 45 62 4 9 53 48
0 0 0 0 0 0 0 0 19 11 0 0 0 8 25 33 18 20 2 0 0 0 0 0 2 4 0 0 0 10 51 52 34 0 2 55 37 32 142 87 22 5 28 31 28
0 0 0 0 0 0 0 0 1 0 0 0 0 0 9 1 25 24 22 2 0 0 0 0 0 0 3 0 0 0 10 0 53 9 2 100 69 147 19 55 27 0 6 41 27
0 0 0 0 0 0 0 0 44 0 0 0 0 0 7 33 12 14 34 23 0 0 3 8 0 0 11 4 0 0 0 2 38 0 34 67 72 64 71 50 85 53 19 1 0
0 0 0 0 0 0 0 0 3 0 0 0 0 0 0 82 15 69 41 15 0 0 0 0 0 0 0 13 0 0 0 0 0 0 4 1 370 495 340 163 59 73 74 26 7
0 0 0 0 0 0 6 3 0 0 0 0 0 0 0 93 90 114 42 7 0 0 0 0 0 0 0 2 4 0 0 0 0 0 0 7 210 166 285 221 106 521 105 72 0
0 2 0 0 0 0 5 24 26 0 0 0 0 0 0 77 94 112 8 0 1 0 64 0 0 0 0 0 0 9 0 0 0 0 0 0 368 189 41 0 848 721 653 592 110
0 0 4 17 0 0 0 0 0 0 0 0 0 0 17 62 68 23 0 0 1 9 0 0 0 0 13 42 0 0 1 11 0 0 0 486 496 233 238 620 428 370 407 339 486
0 0 0 17 30 0 0 0 0 0 0 0 0 0 10 178 184 18 28 30 23 27 86 12 20 241 115 85 103 57 76 89 33 0 786 884 442 211 286 134 316 198 250 309 249
0 0 17 56 58 0 0 4 0 0 0 0 0 0 32 115 43 31 16 31 205 137 76 115 150 112 178 12 97 193 3 78 165 104 279 649 481 13 0 0 39 257 243 424 277

GFSSW_con_sbcape_108.txt.gz
CAPE
1 3 4 3 3 3 2 2 4 4 4 3 4 4 3 3 0 0 0 0 0 0 0 0 0 0 0 0 329 138 2 43 102 3 10 153 223 72 150 171 29 70 7 41 141
2 2 2 3 2 5 3 2 4 3 4 4 4 4 2 2 0 0 0 0 0 0 0 0 0 0 0 0 380 341 9 13 42 113 101 167 163 39 110 121 58 14 48 58 140
3 3 4 4 3 3 4 4 4 3 4 3 3 2 1 0 0 0 0 0 0 0 0 0 0 0 0 57 452 181 19 34 21 21 46 176 96 172 39 124 19 9 49 41 47
3 3 4 4 3 4 3 4 4 3 2 3 3 1 0 0 0 0 0 0 0 0 0 0 0 0 0 96 396 143 67 46 84 67 223 319 335 116 165 99 15 6 27 4 7
2 1 2 2 3 3 2 3 2 2 2 2 2 1 0 0 0 0 0 0 0 0 0 0 0 0 0 104 446 241 20 86 74 60 82 149 264 154 141 124 0 2 2 0 45
1 1 2 3 2 3 4 5 1 1 1 1 1 0 0 0 0 0 0 0 0 0 0 0 0 0 0 96 324 523 405 156 75 34 138 206 321 100 109 32 0 0 3 6 0
0 0 1 2 2 3 2 1 0 0 1 2 0 0 0 0 0 0 0 0 0 0 0 0 0 0 0 0 187 590 323 121 27 209 140 285 154 42 30 29 13 13 0 6 15
0 0 0 1 2 1 1 0 0 0 0 1 0 0 0 0 0 0 0 0 0 0 0 0 0 0 0 0 0 517 242 183 64 51 6 282 54 48 13 28 25 7 6 6 17
0 0 0 1 2 1 0 0 0 0 0 0 0 0 0 0 0 0 0 0 0 0 0 0 0 0 0 0 0 392 80 82 218 61 183 133 35 76 29 48 25 31 5 4 8
0 0 0 2 1 0 0 0 0 0 0 0 0 0 0 0 0 0 0 0 0 0 0 0 0 0 0 0 0 23 124 15 5 14 34 1 66 181 92 31 38 16 15 21 6
0 0 0 2 1 0 0 0 0 0 0 0 0 0 0 0 0 0 0 0 0 0 0 0 0 0 0 0 0 177 77 2 11 0 5 9 0 46 114 74 42 0 8 3 17
0 0 0 0 0 1 0 0 0 0 0 0 0 0 0 0 0 0 0 0 0 0 0 0 0 0 0 0 3 93 50 28 3 0 2 7 0 0 80 61 25 45 4 9 39
0 0 0 0 0 0 0 0 0 0 0 0 0 0 0 0 0 0 0 0 0 0 0 0 0 0 0 0 173 72 154 31 17 6 16 1 0 0 93 90 59 33 33 57 0
0 0 0 0 0 0 0 0 0 0 0 0 0 0 0 0 0 0 0 0 0 0 0 0 0 0 0 3 248 225 191 85 7 0 0 2 10 58 53 25 24 69 18 43 18
0 0 0 1 0 0 0 0 0 0 0 0 0 0 0 0 0 0 0 0 0 0 0 0 0 0 0 0 342 253 161 51 18 0 2 6 1 25 32 17 9 7 24 24 24
0 0 0 0 0 0 0 0 0 0 0 0 0 0 0 0 0 0 0 0 0 0 0 0 0 0 0 149 416 194 119 52 11 0 5 4 0 4 33 5 2 12 50 47 31
0 0 0 0 0 0 0 0 0 0 0 0 0 0 0 0 0 0 0 0 0 0 0 0 0 0 644 422 319 184 96 51 51 3 2 9 6 16 40 3 20 3 20 58 107
0 0 0 0 0 0 0 0 0 0 1 0 0 0 0 0 0 0 0 0 0 0 0 0 0 0 257 447 423 197 54 40 34 17 64 50 32 48 25 14 14 1 36 68 124
0 0 0 0 0 0 0 0 0 0 0 0 0 0 0 0 1 0 0 0 0 0 0 0 0 0 0 338 343 232 89 10 7 2 21 55 33 6 0 44 23 14 14 50 101
0 0 0 0 0 0 0 0 0 0 0 0 0 0 0 0 0 0 14 9 1 0 0 0 0 0 0 2 198 245 79 45 0 35 31 1 1 0 0 1 10 15 7 60 51
0 0 0 0 0 0 0 0 0 0 0 0 0 0 0 0 5 11 11 19 4 0 0 0 0 0 0 0 0 0 0 0 0 0 53 41 42 0 0 0 70 9 8 35 27
0 0 0 0 0 0 0 0 0 0 0 0 0 0 0 0 0 7 26 30 0 0 0 0 0 0 0 0 0 0 0 0 0 0 4 19 30 65 17 0 24 23 3 7 20
0 0 0 0 0 0 0 0 0 0 0 0 0 0 0 3 9 8 30 10 0 0 0 0 0 0 0 0 0 0 0 0 0 0 0 2 41 62 70 7 1 0 34 38 27
0 0 0 0 0 0 0 0 0 0 0 0 0 0 0 0 0 48 13 17 0 0 602 0 0 0 0 0 0 0 0 0 0 0 0 0 23 95 3 343 355 212 164 191 48
0 0 0 0 0 3 0 0 0 0 0 0 0 0 0 0 4 48 9 0 4 58 0 0 0 0 0 26 77 59 15 14 3 0 0 0 28 6 94 634 471 486 555 459 33
0 0 0 0 0 0 0 0 0 0 0 0 0 0 0 2 17 1 11 3 0 0 17 0 1 28 89 18 38 44 0 71 65 10 665 424 284 157 456 350 380 452 628 567 145
0 0 0 0 1 8 2 0 0 0 0 0 0 0 0 20 5 1 1 5 6 15 0 89 15 1 76 0 25 26 0 29 66 27 24 351 211 40 241 387 181 359 523 509 455

GFSSW_con_sbcape_111.txt.gz
CAPE
3 3 3 1 1 1 1 4 3 0 2 1 2 3 4 3 0 0 0 0 0 0 0 0 0 0 0 0 346 63 12 28 59 3 57 120 111 170 237 134 141 136 82 130 170
2 2 1 1 2 3 2 0 0 0 1 2 1 4 3 2 0 0 0 0 0 0 0 0 0 0 0 0 446 211 10 28 99 79 65 185 94 119 118 19 19 78 85 155 193
3 4 3 2 1 0 0 0 1 3 1 2 4 4 1 0 0 0 0 0 0 0 0 0 0 0 0 0 407 109 119 33 35 56 32 62 198 124 31 59 4 88 141 165 137
2 3 4 4 1 1 0 0 0 1 3 3 2 2 0 0 0 0 0 0 0 0 0 0 0 0 0 0 404 240 137 66 5 50 46 117 298 88 73 116 47 84 123 163 139
1 1 3 3 2 1 1 1 2 3 2 2 2 1 0 0 0 0 109 2 0 0 0 0 0 0 0 0 367 215 119 64 66 98 116 97 191 229 78 27 124 89 100 114 121
0 1 1 3 2 2 2 3 1 0 1 2 1 0 0 0 0 0 0 0 0 0 0 0 0 0 0 0 180 334 99 162 187 79 83 207 238 182 178 27 41 97 64 53 81
0 0 0 2 1 1 1 1 1 1 1 2 1 0 0 0 0 0 0 0 0 0 0 0 0 0 0 0 0 521 334 137 103 107 167 296 191 104 59 14 26 36 57 49 66
0 0 0 1 2 1 1 0 0 1 1 2 0 0 0 0 0 0 0 0 0 0 0 0 0 0 0 0 0 556 284 109 100 189 80 191 128 72 46 18 18 39 6 21 0
0 0 0 1 1 1 1 1 0 0 0 0 0 0 0 0 0 0 0 0 0 0 0 0 0 0 0 0 0 142 54 89 117 84 63 174 93 99 1 1 10 41 0 0 0
0 0 0 0 2 1 1 0 0 0 0 0 0 0 0 0 0 0 0 0 0 0 0 0 0 0 0 0 0 22 88 15 10 76 84 25 41 63 51 4 39 25 0 0 24
0 0 0 0 0 0 0 0 0 0 0 0 0 0 0 0 0 0 0 0 0 0 0 0 0 0 0 0 0 170 128 77 15 18 27 26 4 15 66 94 29 1 0 0 0
0 0 0 0 0 1 0 0 0 0 0 0 0 0 0 0 0 0 0 0 0 0 0 0 0 0 0 0 4 225 120 38 18 10 13 28 14 1 0 91 83 3 0 0 0
0 0 0 0 0 0 0 0 0 0 0 0 0 0 0 0 0 0 0 0 0 0 0 0 0 0 0 0 283 157 113 51 32 10 6 2 5 44 3 78 92 73 3 1 0
0 0 0 1 0 0 0 0 0 0 0 0 0 0 0 0 0 0 0 0 0 0 0 0 0 0 0 0 238 149 275 184 48 10 2 1 0 33 0 19 62 87 32 1 0
0 0 0 1 0 0 0 0 0 0 0 0 0 0 0 0 0 0 0 0 0 0 0 0 0 0 0 0 319 283 270 166 35 0 0 13 0 4 17 0 19 73 11 3 0
0 0 0 0 0 0 0 0 0 0 0 0 0 0 0 0 0 0 0 0 0 0 0 0 0 0 0 154 189 218 126 91 12 0 0 18 9 0 7 2 0 34 52 36 16
0 0 0 0 0 0 0 0 0 0 0 0 0 0 0 0 0 0 0 0 0 0 0 0 0 811 643 528 361 163 20 1 13 0 5 3 2 0 0 19 13 23 34 30 54
0 0 0 0 0 0 0 0 0 0 0 0 0 0 0 0 0 0 0 0 0 0 0 0 0 859 853 621 491 236 2 0 0 5 17 33 13 9 9 0 0 0 8 59 89
0 0 0 0 0 0 0 0 0 0 0 0 0 0 0 0 0 0 0 0 0 0 0 0 0 0 750 741 550 429 125 0 15 0 2 15 55 8 0 0 1 19 5 13 23
0 0 0 0 0 0 0 0 0 0 0 0 0 0 0 0 0 0 0 0 0 0 0 0 0 0 0 519 441 263 101 123 16 57 32 0 29 3 5 32 87 34 5 2 2
0 0 0 0 0 0 0 0 0 0 0 0 0 0 0 0 0 0 3 0 0 0 0 0 0 0 0 1 167 24 20 0 2 0 40 11 17 15 0 1 112 48 8 2 57
0 0 0 0 0 0 0 0 0 0 0 0 0 0 0 0 0 0 20 36 0 0 0 0 0 0 0 0 0 0 0 0 1 0 0 0 2 54 0 0 40 52 0 0 28
0 0 0 0 0 0 0 0 0 0 0 0 0 0 0 0 0 0 0 10 3 0 0 0 0 0 10 9 9 0 0 0 0 0 0 0 0 31 9 0 16 25 4 13 11
0 0 0 0 0 0 0 0 0 0 0 0 0 0 0 0 0 0 1 3 0 0 669 2 0 0 0 0 0 28 13 0 0 0 0 0 0 16 54 152 0 10 3 5 64
0 0 0 0 0 0 0 0 0 0 0 0 0 0 0 0 0 0 0 0 1 5 0 0 0 0 0 38 38 55 93 52 1 0 0 0 0 1 206 404 183 107 75 33 39
0 0 0 0 0 0 0 0 0 0 0 0 0 0 0 0 0 0 0 0 2 0 0 0 17 10 45 27 29 2 11 49 10 20 3 134 253 398 554 645 612 484 296 41 46
0 0 0 0 0 0 0 0 0 0 0 0 0 0 0 0 0 0 0 0 1 16 0 32 4 1 89 0 0 0 0 2 6 77 48 117 29 25 52 232 186 427 364 265 96

GFSSW_con_sbcape_114.txt.gz
CAPE
3 2 1 0 0 0 1 0 0 1 3 0 2 2 1 2 0 0 0 0 0 0 0 0 0 0 0 0 318 71 5 31 106 0 77 71 139 140 121 91 103 78 71 127 336
3 4 1 2 0 1 2 2 2 2 2 2 1 2 3 4 0 0 0 0 0 0 0 0 0 0 0 0 444 176 32 54 137 71 59 138 85 202 106 76 79 92 139 265 299
3 4 2 0 1 1 3 2 2 0 2 2 1 2 2 2 0 0 0 0 0 0 0 0 0 0 0 0 122 98 106 63 53 71 33 50 139 125 70 38 22 84 128 235 212
1 2 2 2 2 2 1 2 2 1 2 3 2 2 1 0 0 0 1 0 0 0 0 0 0 0 0 0 227 181 219 102 28 29 125 166 337 55 32 61 23 84 123 192 159
0 1 2 2 3 3 3 2 1 1 2 2 2 1 0 0 0 0 0 0 0 0 0 0 0 0 0 0 308 316 229 203 169 130 140 154 240 207 14 45 51 112 103 116 92
0 0 1 1 1 2 2 2 2 2 1 1 1 0 0 0 0 0 0 0 0 0 0 0 0 0 0 0 32 254 260 281 260 121 121 179 186 203 98 63 87 117 105 47 52
0 0 0 1 1 1 1 1 2 1 1 1 0 0 0 0 0 0 0 0 0 0 0 0 0 0 0 0 0 295 355 122 279 167 230 187 86 114 86 58 83 85 107 32 48
0 0 0 0 1 1 1 3 2 1 1 1 0 0 0 0 0 0 0 0 0 0 0 0 0 0 0 0 0 540 222 88 107 351 200 104 67 276 143 23 75 85 58 77 28
0 0 0 0 1 1 3 2 1 1 0 0 0 0 0 0 0 0 0 0 0 0 0 0 0 0 0 0 0 0 22 133 93 50 173 96 95 157 13 5 41 75 64 40 15
0 0 0 1 1 1 0 0 0 0 0 0 0 0 0 0 0 0 0 0 0 0 0 0 0 0 0 0 0 21 40 32 47 45 20 0 0 83 21 1 15 32 15 56 0
1 0 0 0 0 1 0 0 0 0 0 0 0 0 0 0 0 0 0 0 0 0 0 0 0 0 0 0 0 60 110 37 37 51 25 5 1 26 0 41 11 1 0 0 33
1 0 0 0 0 0 0 0 0 0 0 0 0 0 0 0 0 0 0 0 0 0 0 0 0 0 0 0 0 155 118 67 22 15 0 2 3 12 0 2 44 12 0 3 12
1 1 0 0 0 0 0 0 0 0 0 0 0 0 0 0 0 0 0 0 0 0 0 0 0 0 0 10 114 182 73 45 47 23 1 0 0 2 12 7 53 40 0 0 17
2 2 0 1 0 0 0 0 0 0 0 0 0 0 0 0 0 0 0 0 0 0 0 0 0 0 0 0 7 151 144 104 71 13 1 0 0 0 2 30 61 66 0 0 0
1 2 0 0 0 0 0 0 0 0 0 0 0 0 0 0 0 0 0 0 0 0 0 0 0 0 0 0 13 11 292 121 63 0 5 12 0 0 14 1 0 24 10 0 0
0 1 0 0 0 0 0 0 0 0 0 0 0 0 0 0 0 0 0 0 0 0 0 0 0 0 0 77 76 351 187 56 10 0 0 11 0 0 5 0 0 1 9 1 0
0 0 1 0 0 0 0 0 0 0 0 0 0 0 0 0 0 0 0 0 0 0 0 0 0 384 481 465 377 255 38 16 44 0 2 0 0 0 28 0 0 8 20 1 0
0 0 0 0 0 0 0 0 0 0 0 0 0 0 0 0 0 0 0 0 0 0 0 0 0 573 598 521 490 202 16 13 23 0 1 39 0 0 0 5 0 14 37 16 0
0 0 0 0 0 0 0 0 0 0 0 0 0 0 0 0 0 0 0 0 0 0 0 0 0 0 556 646 502 415 243 4 44 0 6 38 8 0 0 0 0 24 29 19 31
0 0 0 0 0 0 0 0 0 0 0 0 0 0 0 0 0 0 0 0 0 0 0 0 0 0 1 644 601 448 228 167 25 51 47 4 4 0 0 0 1 18 24 18 26
0 0 0 0 0 0 0 0 0 0 0 0 0 0 0 0 0 0 0 0 0 0 0 0 0 0 0 93 547 9 228 0 1 0 15 7 0 0 0 0 24 23 32 18 5
0 0 0 0 0 0 0 0 0 0 0 0 0 0 0 0 0 0 0 0 0 0 0 0 0 0 0 0 0 1 108 3 0 0 0 0 0 32 4 0 35 32 40 25 29
0 0 0 0 0 0 0 0 0 0 0 0 0 0 0 0 0 0 0 0 0 0 0 0 0 0 6 0 6 0 11 0 0 0 0 0 0 137 27 17 60 53 23 26 18
0 0 0 0 0 0 0 0 0 0 0 0 0 0 0 0 0 0 0 0 0 0 370 0 0 0 0 0 0 98 113 51 0 0 0 0 0 89 147 81 92 81 58 32 11
0 0 0 0 0 0 0 0 0 0 0 0 0 0 0 0 0 0 0 0 0 0 0 0 0 0 0 27 52 13 32 113 1 0 0 7 96 267 319 412 69 27 32 46 38
0 0 0 0 0 0 0 0 0 0 0 0 0 0 0 0 0 0 0 0 0 0 0 0 14 49 63 11 54 0 0 67 83 246 25 39 305 477 418 624 511 205 61 95 88
0 0 0 0 0 0 0 0 2 0 0 0 0 0 0 0 0 0 0 0 0 0 0 52 80 4 0 0 5 0 0 4 18 123 82 211 77 201 236 257 296 446 225 101 200

GFSSW_con_sbcape_117.txt.gz
CAPE
2 3 2 1 3 3 1 1 1 1 1 1 0 0 0 2 0 0 0 0 0 0 0 0 0 0 0 0 396 153 214 104 24 38 140 211 217 121 186 53 27 175 58 181 411
3 2 2 2 2 2 1 1 0 0 1 2 2 2 3 1 0 0 0 0 0 0 0 0 0 0 0 0 603 359 275 111 140 67 124 197 174 217 66 59 157 248 295 394 478
2 2 2 1 1 1 1 1 0 1 1 2 2 2 1 2 0 0 0 0 0 0 0 0 0 0 0 0 224 220 237 35 41 136 104 193 197 199 63 61 116 138 348 477 588
0 1 2 2 3 3 3 3 2 1 1 1 2 1 0 0 0 0 108 0 0 0 0 0 0 0 0 0 145 200 121 65 13 4 114 173 283 154 60 59 56 76 348 456 480
0 0 1 1 1 2 2 2 2 2 2 2 1 0 0 0 0 0 0 0 0 0 0 0 0 0 0 0 26 165 331 112 67 0 0 117 213 216 85 76 99 212 320 321 415
0 0 0 0 1 1 1 1 2 2 2 1 1 0 0 0 0 0 0 0 0 0 0 0 0 0 0 0 0 491 572 467 312 166 75 169 193 306 86 123 146 194 245 297 399
0 0 0 0 0 1 0 2 0 2 2 1 0 0 0 0 0 0 0 0 0 0 0 0 0 0 0 0 0 518 558 451 337 221 75 165 151 199 185 161 166 189 260 318 368
3 0 0 0 0 0 2 0 0 1 0 1 0 0 0 0 0 0 0 0 0 0 0 0 0 0 0 0 314 519 369 274 251 258 249 77 91 179 203 186 161 197 232 283 333
4 2 0 0 0 1 1 0 0 0 0 0 0 0 0 0 0 0 0 0 0 0 0 0 0 0 0 0 0 153 36 296 194 118 208 57 58 109 151 159 89 201 242 250 280
2 3 3 1 0 1 0 0 0 0 0 0 0 0 0 0 0 0 0 0 0 0 0 0 0 0 0 0 0 33 131 241 256 107 20 87 59 18 35 177 169 164 164 236 207
3 3 2 2 0 1 0 0 0 0 0 0 0 0 0 0 0 0 0 0 0 0 0 0 0 0 0 0 0 0 71 139 148 113 61 0 0 16 9 87 84 94 82 141 187
3 0 2 3 1 0 0 0 0 0 0 0 0 0 0 0 0 0 0 0 0 0 0 0 0 0 0 0 0 0 43 226 98 86 46 31 0 5 0 21 50 3 9 117 151
1 1 1 1 0 0 0 0 0 0 0 0 0 0 0 0 0 0 0 0 0 0 0 0 0 0 0 0 0 23 0 168 151 97 33 34 0 0 11 8 80 80 51 29 84
1 3 0 2 0 0 0 0 0 0 0 0 0 0 0 0 0 0 0 0 0 0 0 0 0 0 0 0 0 0 94 161 226 151 101 48 56 0 8 37 36 65 129 42 19
2 2 0 0 0 0 0 0 0 0 0 0 0 0 0 0 0 0 0 0 0 0 0 0 0 0 0 0 0 0 309 332 277 149 116 87 123 20 0 8 7 6 29 106 7
2 0 0 0 0 0 0 0 0 0 0 0 0 0 0 0 0 0 0 0 0 0 0 0 0 0 0 19 0 357 343 254 198 211 200 110 92 56 25 0 8 10 0 32 38
0 0 3 0 0 0 0 0 0 0 0 0 0 0 0 0 0 0 0 0 0 0 0 0 0 9 159 235 350 468 441 186 190 285 106 213 143 90 29 0 8 0 0 39 23
0 0 0 0 0 0 0 0 0 0 0 0 0 0 0 0 0 0 0 0 0 0 0 0 0 131 282 203 339 459 104 0 4 137 191 229 177 124 22 4 0 0 0 116 16
0 0 0 0 0 0 0 0 0 0 0 0 0 0 0 0 0 0 0 0 0 0 0 0 0 0 458 553 575 607 455 129 354 274 305 377 259 140 93 15 9 0 12 82 3
0 0 0 0 0 0 0 0 0 0 0 0 0 0 0 0 0 0 0 0 0 0 0 0 0 0 5 613 524 712 423 440 492 141 100 284 285 281 220 106 20 33 60 81 53
0 0 0 0 0 0 0 0 0 0 0 0 0 0 0 0 0 0 0 0 0 0 0 0 0 1 0 154 267 497 530 396 418 447 194 158 81 176 199 186 142 52 81 66 75
0 0 0 0 0 0 0 0 0 0 0 0 0 0 0 0 0 0 0 0 0 0 0 0 0 7 7 0 0 291 446 435 423 171 410 352 40 382 143 139 244 227 141 86 82
0 0 0 0 0 0 0 0 0 0 0 0 0 0 0 0 0 0 0 0 0 0 0 0 0 0 39 36 47 116 355 89 0 8 319 157 1 317 309 141 271 327 296 201 146
0 0 0 0 0 0 0 0 0 0 0 0 0 0 0 0 0 0 0 0 0 0 69 0 0 0 23 92 100 426 396 507 26 25 134 47 16 32 509 592 295 311 266 211 172
0 0 0 0 0 0 0 0 0 0 0 0 0 0 0 0 0 0 0 0 0 0 0 0 4 0 20 181 228 201 286 572 318 392 0 12 374 701 713 729 668 349 291 270 242
0 0 0 0 0 0 0 0 0 0 0 0 0 0 0 0 0 0 0 0 0 0 12 30 99 159 271 263 131 258 74 495 714 756 735 577 682 633 652 924 684 420 360 344 363
0 0 0 0 0 0 0 0 0 0 0 0 0 0 0 0 0 0 0 0 0 12 60 212 379 337 218 202 125 85 72 52 530 673 713 782 745 514 622 708 708 565 454 473 378